[[{"header":{"parameterUnit":"m.s-1","parameterCategory":1,"la1":31.0,"la2":29.5877,"lo1":-88.7671,"lo2":-86.6584,"dy":0.0162,"dx":0.0185,"nx":115,"ny":88,"refTime":"2023-10-08T18:00:00:Z","depth":0,"parameterNumber":2,"parameterNumberName":"U-component_of_WINDS"},"data":[0.0,0.0,0.0,0.0,0.0,0.0,0.0,0.0,0.0,0.0,0.0,0.0,0.0,0.0,0.0,0.0,0.0,0.0,0.0,0.0,0.0,0.0,0.0,0.0,0.0,0.0,0.0,0.0,0.0,0.0,0.0,0.0,0.0,0.0,0.0,0.0,0.0,0.0,0.0,0.0,0.0,0.0,0.0,0.0,0.0,0.0,0.0,0.0,0.0,0.0,0.0,0.0,0.0,0.0,0.0,0.0,0.0,0.0,0.0,0.0,0.0,0.0,0.0,0.0,0.0,0.0,0.0,0.0,0.0,0.0,0.0,0.0,0.0,0.0,0.0,0.0,0.0,0.0,0.0,0.0,0.0,0.0,0.0,0.0,0.0,0.0,0.0,0.0,0.0,0.0,0.0,0.0,0.0,0.0,0.0,0.0,0.0,0.0,0.0,0.0,0.0,0.0,0.0,0.0,0.0,0.0,0.0,0.0,0.0,0.0,0.0,0.0,0.0,0.0,0.0,0.0,0.0,0.0,0.0,0.0,0.0,0.0,0.0,0.0,0.0,0.0,0.0,0.0,0.0,0.0,0.0,0.0,0.0,0.0,0.0,0.0,0.0,0.0,0.0,0.0,0.0,0.0,0.0,0.0,0.0,0.0,0.0,0.0,0.0,0.0,0.0,0.0,0.0,0.0,0.0,0.0,0.0,0.0,0.0,0.0,0.0,0.0,0.0,0.0,0.0,0.0,0.0,0.0,0.0,0.0,0.0,0.0,0.0,0.0,0.0,0.0,0.0,0.0,0.0,0.0,0.0,0.0,0.0,0.0,0.0,0.0,0.0,0.0,0.0,0.0,0.0,0.0,0.0,0.0,0.0,0.0,0.0,0.0,0.0,0.0,0.0,0.0,0.0,0.0,0.0,0.0,0.0,0.0,0.0,0.0,0.0,0.0,0.0,0.0,0.0,0.0,0.0,0.0,0.0,0.0,0.0,0.0,0.0,0.0,0.0,0.0,0.0,0.0,0.0,0.0,0.0,0.0,0.0,0.0,0.0,0.0,0.0,0.0,0.0,0.0,0.0,0.0,0.0,0.0,0.0,0.0,0.0,0.0,0.0,0.0,0.0,0.0,0.0,0.0,0.0,0.0,0.0,0.0,0.0,0.0,0.0,0.0,0.0,0.0,0.0,0.0,0.0,0.0,0.0,0.0,0.0,0.0,0.0,0.0,0.0,0.0,0.0,0.0,0.0,0.0,0.0,0.0,0.0,0.0,0.0,0.0,0.0,0.0,0.0,0.0,0.0,0.0,0.0,0.0,0.0,0.0,0.0,0.0,0.0,0.0,0.0,0.0,0.0,0.0,0.0,0.0,0.0,0.0,0.0,0.0,0.0,0.0,0.0,0.0,0.0,0.0,0.0,0.0,0.0,0.0,0.0,0.0,0.0,0.0,0.0,0.0,0.0,0.0,0.0,0.0,0.0,0.0,0.0,0.0,0.0,0.0,0.0,0.0,0.0,0.0,0.0,0.0,0.0,0.0,0.0,0.0,0.0,0.0,0.0,0.0,0.0,0.0,0.0,0.0,0.0,0.0,0.0,0.0,0.0,0.0,0.0,0.0,0.0,0.0,0.0,0.0,0.0,0.0,0.0,0.0,0.0,0.0,0.0,0.0,0.0,0.0,0.0,0.0,0.0,0.0,0.0,0.0,0.0,0.0,0.0,0.0,0.0,0.0,0.0,0.0,0.0,0.0,0.0,0.0,0.0,0.0,0.0,0.0,0.0,0.0,0.0,0.0,0.0,0.0,0.0,0.0,0.0,0.0,0.0,0.0,0.0,0.0,0.0,0.0,0.0,0.0,0.0,0.0,0.0,0.0,0.0,0.0,0.0,0.0,0.0,0.0,0.0,0.0,0.0,0.0,0.0,0.0,0.0,0.0,0.0,0.0,0.0,0.0,0.0,0.0,0.0,0.0,0.0,0.0,0.0,0.0,0.0,0.0,0.0,0.0,0.0,0.0,0.0,0.0,0.0,0.0,0.0,0.0,0.0,0.0,0.0,0.0,0.0,0.0,0.0,0.0,0.0,0.0,0.0,0.0,0.0,0.0,0.0,0.0,0.0,0.0,0.0,0.0,0.0,0.0,0.0,0.0,0.0,0.0,0.0,0.0,0.0,0.0,0.0,0.0,0.0,0.0,0.0,0.0,0.0,0.0,0.0,0.0,0.0,0.0,0.0,0.0,0.0,0.0,0.0,0.0,0.0,0.0,0.0,0.0,0.0,0.0,0.0,0.0,0.0,0.0,0.0,0.0,0.0,0.0,0.0,0.0,0.0,0.0,0.0,0.0,0.0,0.0,0.0,0.0,0.0,0.0,0.0,0.0,0.0,0.0,0.0,0.0,0.0,0.0,0.0,0.0,0.0,0.0,0.0,0.0,0.0,0.0,0.0,0.0,0.0,0.0,0.0,0.0,0.0,0.0,0.0,0.0,0.0,0.0,0.0,0.0,0.0,0.0,0.0,0.0,0.0,0.0,0.0,0.0,0.0,0.0,0.0,0.0,0.0,0.0,0.0,0.0,0.0,0.0,0.0,0.0,0.0,0.0,0.0,0.0,0.0,0.0,0.0,0.0,0.0,0.0,0.0,0.0,0.0,0.0,0.0,0.0,0.0,0.0,0.0,0.0,0.0,0.0,0.0,0.0,0.0,0.0,0.0,0.0,0.0,0.0,0.0,0.0,0.0,0.0,0.0,0.0,0.0,0.0,0.0,0.0,0.0,0.0,0.0,0.0,0.0,0.0,0.0,0.0,0.0,0.0,0.0,0.0,0.0,0.0,0.0,0.0,0.0,0.0,0.0,0.0,0.0,0.0,0.0,0.0,0.0,0.0,0.0,0.0,0.0,0.0,0.0,0.0,0.0,0.0,0.0,0.0,0.0,0.0,0.0,0.0,0.0,0.0,0.0,0.0,0.0,0.0,0.0,0.0,0.0,0.0,0.0,0.0,0.0,0.0,0.0,0.0,0.0,0.0,0.0,0.0,0.0,0.0,0.0,0.0,0.0,0.0,0.0,0.0,0.0,0.0,0.0,0.0,0.0,0.0,0.0,0.0,0.0,0.0,0.0,0.0,0.0,0.0,0.0,0.0,0.0,0.0,0.0,0.0,0.0,0.0,0.0,0.0,0.0,0.0,0.0,0.0,0.0,0.0,0.0,0.0,0.0,0.0,0.0,0.0,0.0,0.0,0.0,0.0,0.0,0.0,0.0,0.0,0.0,0.0,0.0,0.0,0.0,0.0,0.0,0.0,0.0,0.0,0.0,0.0,0.0,0.0,0.0,0.0,0.0,0.0,0.0,0.0,0.0,0.0,0.0,0.0,0.0,0.0,0.0,0.0,0.0,0.0,0.0,0.0,0.0,0.0,0.0,0.0,0.0,0.0,0.0,0.0,0.0,0.0,0.0,0.0,0.0,0.0,0.0,0.0,0.0,0.0,0.0,0.0,0.0,0.0,0.0,0.0,0.0,0.0,0.0,0.0,0.0,0.0,0.0,0.0,0.0,0.0,0.0,0.0,0.0,0.0,0.0,0.0,0.0,0.0,0.0,0.0,0.0,0.0,0.0,0.0,0.0,0.0,0.0,0.0,0.0,0.0,0.0,0.0,0.0,0.0,0.0,0.0,0.0,0.0,0.0,0.0,0.0,0.0,0.0,0.0,0.0,0.0,0.0,0.0,0.0,0.0,0.0,0.0,0.0,0.0,0.0,0.0,0.0,0.0,0.0,0.0,0.0,0.0,0.0,0.0,0.0,0.0,0.0,0.0,0.0,0.0,0.0,0.0,0.0,0.0,0.0,0.0,0.0,0.0,0.0,0.0,0.0,0.0,0.0,0.0,0.0,0.0,0.0,0.0,0.0,0.0,0.0,0.0,0.0,0.0,0.0,0.0,0.0,0.0,0.0,0.0,0.0,0.0,0.0,0.0,0.0,0.0,0.0,0.0,0.0,0.0,0.0,0.0,0.0,0.0,0.0,0.0,0.0,0.0,0.0,0.0,0.0,0.0,0.0,0.0,0.0,0.0,0.0,0.0,0.0,0.0,0.0,0.0,0.0,0.0,0.0,0.0,0.0,0.0,0.0,0.0,0.0,0.0,0.0,0.0,0.0,0.0,0.0,0.0,0.0,0.0,0.0,0.0,0.0,0.0,0.0,0.0,0.0,0.0,0.0,0.0,0.0,0.0,0.0,0.0,0.0,0.0,0.0,0.0,0.0,0.0,0.0,0.0,0.0,0.0,0.0,0.0,-0.0507,0.0,0.0,0.0,0.0,0.0,0.0,0.0,0.0,0.0,0.0,0.0,0.0,0.0,0.0,0.0,0.0,0.0,0.0,0.0,0.0,0.0,0.0,0.0,0.0,0.0,0.0,0.0,0.0,0.0,0.0,0.0,0.0,0.0,0.0,0.0,0.0,0.0,0.0,0.0,0.0,0.0,0.0,0.0,0.0,0.0,0.0,0.0,0.0,0.0,0.0,0.0,0.0,0.0,0.0,0.0,0.0,0.0,0.0,0.0,0.0,0.0,0.0,0.0,0.0,0.0,0.0,0.0,0.0,0.0,0.0,0.0,0.0,0.0,0.0,0.0,0.0,0.0,0.0,0.0,0.0,0.0,0.0,0.0,0.0,0.0,0.0,0.0,0.0,0.0,0.0,0.0,0.0,0.0,0.0,0.0,0.0,0.0,0.0,0.0,0.0,0.0,0.0,0.0,0.0,0.0,0.0,0.0,0.0,0.0,0.0,0.0182,0.0286,0.0312,0.0234,0.0104,0.0,0.0,0.0,0.0,0.0,0.0,0.0,0.0,0.0,0.0,0.0,0.0,0.0,0.0,0.0,0.0,0.0,0.0,0.0,0.0,0.0,0.0,0.0,0.0,0.0,0.0,0.0,0.0,0.0,0.0,0.0,0.0,0.0,0.0,0.0,0.0,0.0,0.0,0.0,0.0,0.0,0.0,0.0,0.0,0.0,0.0,0.0,0.0,0.0,0.0,0.0,0.0,0.0,0.0,0.0,0.0,0.0,0.0,0.0,0.0,0.0,0.0,0.0,0.0,0.0,0.0,0.0,0.0,0.0,0.0,0.0,0.0,0.0,0.0,0.0,0.0,0.0,0.0,0.0,0.0,0.0,0.0,0.0,0.0,0.0,0.0,0.0,0.0,0.0,0.0,0.0,0.0,0.0,0.0,0.0,0.0,0.0,0.0,0.0,0.0,0.0,0.0,0.0,0.0,0.0,0.0,0.0,0.0,0.0,0.0,0.0,0.0,0.1095,0.0961,0.0669,0.0,0.0,0.0,0.0,0.0,0.0,0.0,0.0,0.0,0.0,0.0,0.0,0.0,0.0,0.0,0.0,0.0,0.0,0.0,0.0,0.0,0.0,0.0,0.0,0.0,0.0,0.0,0.0,0.0,0.0,0.0,0.0,0.0,0.0,0.0,0.0,0.0,0.0,0.0,0.0,0.0,0.0,0.0,0.0,0.0,0.0,0.0,0.0,0.0,0.0,0.0,0.0,0.0,0.0,0.0,0.0,0.0,0.0,0.0,0.0,0.0,0.0,0.0,0.0,0.0,0.0,0.0,0.0,0.0,0.0,0.0,0.0,0.0,0.0,0.0,0.0,0.0,0.0,0.0,0.0,0.0,0.0,0.0,0.0,0.0,0.0,0.0,0.0,0.0,0.0,0.0,0.0,0.0,0.0,0.0,0.0,0.0,0.0,0.0,0.0,0.0,0.0,0.0,0.0,0.0,0.0,0.0,0.0,0.0,0.0,0.1774,0.1718,0.1719,0.0,0.1252,0.0,0.0,0.0,0.0,0.0,0.0,0.0,0.0,0.0,0.0,0.0,0.0,0.0,0.0,0.0,0.0,0.0,0.0,0.0,0.0,0.0,0.0,0.0,0.0,0.0,0.0,0.0,0.0,0.0,0.0,0.0,0.0,0.0,0.0,0.0,0.0,0.0,0.0,0.0,0.0,0.0,0.0,0.0,0.0,0.0,0.0,0.0,0.0,0.0,0.0,0.0,0.0,0.0,0.0,0.0,0.0,0.0,0.0,0.0,0.0,0.0,0.0,0.0,0.0,0.0,0.0,0.0,0.0,0.0,0.0,0.0,0.0,0.0,0.0,0.0,0.0,0.0,0.0,0.0,0.0,0.0,0.0,0.0,0.0,0.0,0.0,0.0,0.0,0.0,0.0,0.0,0.0,0.0,0.0,0.0,0.0,0.0,0.0,0.0,0.0,0.0,0.0,0.0,0.0,0.0,0.0,0.0,0.0,0.0,0.0,0.241,0.2333,0.2317,0.2189,0.0,0.0,0.0,0.0,0.0,0.0,0.0,0.0,0.0,0.0,0.0,0.0,0.0,0.0,0.0,0.0,0.0,0.0,0.0,0.0,0.0,0.0,0.0,0.0,0.0,0.0,0.0,0.0,0.0,0.0,0.0,0.0,0.0,0.0,0.0,0.0,0.0,0.0,0.0,0.0,0.0,0.0,0.0,0.0,0.0,0.0,0.0,0.0,0.0,0.0,0.0,0.0,0.0,0.0,0.0,0.0,0.0,0.0,0.0,0.0,0.0,0.0,0.0,0.0,0.0,0.0,0.0,0.0,0.0,0.0,0.0,0.0,0.0,0.0,0.0,0.0,0.0,0.0,0.0,0.0,0.0,0.0,0.0,0.0,0.0,0.0,0.0,0.0,0.0,0.0,0.0,0.0,0.0,0.0,0.0,0.0,0.0,0.0,0.0,0.0,0.0,0.0,0.0,0.0,0.0,0.0,0.0,0.0,0.0,0.0,0.3301,0.3219,0.3061,0.2973,0.2848,0.2597,0.0,0.0,0.0,0.0,0.0,0.0,0.0,0.0,0.0,0.0,0.0,0.0,0.0,0.0,0.0,0.0,0.0,0.0,0.0,0.0,0.0,0.0,0.0,0.0,0.0,0.0,0.0,0.0,0.0,0.0,0.0,0.0,0.0,0.0,0.0,0.0,0.0,0.0,0.0,0.0,0.0,0.0,0.0,0.0,0.0,0.0,0.0,0.0,0.0,0.0,0.0,0.0,0.0,0.0,0.0,0.0,0.0,0.0,0.0,0.0,0.0,0.0,0.0,0.0,0.0,0.0,0.0,0.0,0.0,0.0,0.0,0.0,0.0,0.0,0.0,0.0,0.0,0.0,0.0,0.0,0.0,0.0,0.0,0.0,0.0,0.0,0.0,0.0,0.0,0.0,0.0,0.0,0.0,0.0,0.0,0.0,0.0,0.0,0.0,0.0,0.0,0.0,0.0,0.0,0.0,0.0,0.0,0.0,0.4588,0.4518,0.4331,0.3958,0.3701,0.3561,0.0,0.0,0.0,0.0,0.0,0.0,0.0,0.0,0.0,0.0,0.0,0.0,0.0,0.0,0.0,0.0,0.0,0.0,0.0,0.0,0.0,0.0,0.0,0.0,0.0,0.0,0.0,0.0,0.0,0.0,0.0,0.0,0.0,0.0,0.0,0.0,0.0,0.0,0.0,0.0,0.0,0.0,0.0,0.0,0.0,0.0,0.0,0.0,0.0,0.0,0.0,0.0,0.0,0.0,0.0,0.0,0.0,0.0,0.0,0.0,0.0,0.0,0.0,0.0,0.0,0.0,0.0,0.0,0.0,0.0,0.0,0.0,0.0,0.0,0.0,0.0,0.0,0.0,0.0,0.0,0.0,0.0,0.0,0.0,0.0,0.0,0.0,0.0,0.0,0.0,0.0,0.0,0.0,0.0,0.0,0.0,0.0,0.0,0.0,0.0,0.0,0.0,0.0,0.0,0.0,0.0,0.0,0.0,0.0,0.475,0.4734,0.4654,0.4515,0.4425,0.4367,0.0,0.0,0.0,0.0,0.0,0.0,0.0,0.0,0.0,0.0,0.0,0.0,0.0,0.0,0.0,0.0,0.0,0.0,0.0,0.0,0.0,0.0,0.0,0.0,0.0,0.0,0.0,0.0,0.0,0.0,0.0,0.0,0.0,0.0,0.0,0.0,0.0,0.0,0.0,0.0,0.0,0.0,0.0,0.0,0.0,0.0,0.0,0.0,0.0,0.0,0.0,0.0,0.0,0.0,0.0,0.0,0.0,0.0,0.0,0.0,0.0,0.0,0.0,0.0,0.0,0.0,0.0,0.0,0.0,0.0,0.0,0.0,0.0,0.0,0.0,0.0,0.0,0.0,0.0,0.0,0.0,0.0,0.0,0.0,0.0,0.0,0.0,0.0,0.0,0.0,0.0,0.0,0.0,0.0,0.0,0.0,0.0,0.0,0.0,0.0,0.0,0.0,0.0,0.0,0.0,0.0,0.0,0.0,0.0,0.5379,0.0,0.5383,0.5379,0.5379,0.5383,0.0,0.0,0.0,0.0,0.0,0.0,0.0,0.0,0.0,0.0,0.0,0.0,0.0,0.0,0.0,0.0,0.0,0.0,0.0,0.0,0.0,0.0,0.0,0.0,0.0,0.0,0.0,0.0,0.0,0.0,0.0,0.0,0.0,0.0,0.0,0.0,0.0,0.0,0.0,0.0,0.0,0.0,0.0,0.0,0.0,0.0,0.0,0.0,0.0,0.0,0.0,0.0,0.0,0.0,0.0,0.0,0.0,0.0,0.0,0.0,0.0,0.0,0.0,0.0,0.0,0.0,0.0,0.0,0.0,0.0,0.0,0.0,0.0,0.0,0.0,0.0,0.0,0.0,0.0,0.0,0.0,0.0,0.0,0.0,0.0,0.0,0.0,0.0,0.0,0.0,0.0,0.0,0.0,0.0,0.0,0.0,0.0,0.0,0.0,0.0,0.0,0.0,0.0,0.0,0.0,0.0,0.0,0.0,0.6623,0.6589,0.6564,0.6539,0.6613,0.6564,0.6559,0.0,0.0,0.0,0.0,0.0,0.0,0.0,0.0,0.0,0.0,0.0,0.0,0.0,0.0,0.0,0.0,0.0,0.0,0.0,0.0,0.0,0.0,0.0,0.0,0.0,0.0,0.0,0.0,0.0,0.0,0.0,0.0,0.0,0.0,0.0,0.0,0.0,0.0,0.0,0.0,0.0,0.0,0.0,0.0,0.0,0.0,0.0,0.0,0.0,0.0,0.0,0.0,0.0,0.0,0.0,0.0,0.0,0.0,0.0,0.0,0.0,0.0,0.0,0.0,0.0,0.0,0.0,0.0,0.0,0.0,0.0,0.0,0.0,0.0,0.0,0.0,0.0,0.0,0.0,0.0,0.0,0.0,0.0,0.0,0.0,0.0,0.0,0.0,0.0,0.0,0.0,0.0,0.0,0.0,0.0,0.0,0.0,0.0,0.0,0.0,0.0,0.0,0.0,0.0,0.0,0.0,0.0,0.0,0.0,0.6833,0.6803,0.6803,0.6803,0.6803,0.6919,0.0,0.0,0.0,0.0,0.0,0.0,0.0,0.0,0.0,0.0,0.0,0.0,0.0,0.0,0.0,0.0,0.0,0.0,0.0,0.0,0.0,0.0,0.0,0.0,0.0,0.0,0.0,0.0,0.0,0.0,0.0,0.0,0.0,0.0,0.0,0.0,0.0,0.0,0.0,0.0,0.0,0.0,0.0,0.0,0.0,0.0,0.0,0.0,0.0,0.0,0.0,0.0,0.0,0.0,0.0,0.0,0.0,0.0,0.0,0.0,0.0,0.0,0.0,0.0,0.0,0.0,0.0,0.0,0.0,0.0,0.0,0.0,0.0,0.0,0.0,0.0,0.0,0.0,0.0,0.0,0.0,0.0,0.0,0.0,0.0,0.0,0.0,0.0,0.0,0.0,0.0,0.0,0.0,0.0,0.0,0.0,0.0,0.0,0.0,0.0,0.0,0.0,0.0,0.0,0.0,0.0,0.0,0.0,0.0,0.8312,0.7746,0.748,0.7602,0.751,0.7663,0.8086,0.0,0.0,0.0,0.0,0.0,0.0,0.0,0.0,0.0,0.0,0.0,0.0,0.0,0.0,0.0,0.0,0.0,0.0,0.0,0.0,0.0,0.0,0.0,0.0,0.0,0.0,0.0,0.0,0.0,0.0,0.0,0.0,0.0,0.0,0.0,0.0,0.0,0.0,0.0,0.0,0.0,0.0,0.0,0.0,0.0,0.0,0.0,0.0,0.0,0.0,0.0,0.0,0.0,0.0,0.0,0.0,0.0,0.0,0.0,0.0,0.0,0.0,0.0,0.0,0.0,0.0,0.0,0.0,0.0,0.0,0.0,0.0,0.0,0.0,0.0,0.0,0.0,0.0,0.0,0.0,0.0,0.0,0.0,0.0,0.0,0.0,0.0,0.0,0.0,0.0,0.0,0.0,0.0,0.0,0.0,0.0,0.0,0.0,0.0,0.0,0.0,0.0,0.0,0.0,0.0,0.0,0.0,0.0,1.0667,0.9309,0.872,0.8915,0.8641,0.8799,0.0,0.0,0.0,0.0,0.0,0.0,0.0,0.0,0.0,0.0,0.0,0.0,0.0,0.0,0.0,0.0,0.0,0.0,0.0,0.0,0.0,0.0,0.0,0.0,0.0,0.0,0.0,0.0,0.0,0.0,0.0,0.0,0.0,0.0,0.0,0.0,0.0,0.0,0.0,0.0,0.0,0.0,0.0,0.0,0.0,0.0,0.0,0.0,0.0,0.0,0.0,0.0,0.0,0.0,0.0,0.0,0.0,0.0,0.0,0.0,0.0,0.0,0.0,0.0,0.0,0.0,0.0,0.0,0.0,0.0,0.0,0.0,0.0,0.0,0.0,0.0,0.0,0.0,0.0,0.0,0.0,0.0,0.0,0.0,0.0,0.0,0.0,0.0,0.0,0.0,0.0,0.0,0.0,0.0,0.0,0.0,0.0,0.0,0.0,0.0,0.0,0.0,0.0,0.0,0.0,0.0,0.0,0.0,0.0,1.1563,1.1173,1.076,1.0284,0.9974,1.0059,0.0,0.0,0.0,0.0,0.0,0.0,0.0,0.0,0.0,0.0,0.0,0.0,0.0,0.0,0.0,0.0,0.0,0.0,0.0,0.0,0.0,0.0,0.0,0.0,0.0,0.0,0.0,0.0,0.0,0.0,0.0,0.0,0.0,0.0,0.0,0.0,0.0,0.0,0.0,0.0,0.0,0.0,0.0,0.0,0.0,0.0,0.0,0.0,0.0,0.0,0.0,0.0,0.0,0.0,0.0,0.0,0.0,0.0,0.0,0.0,0.0,0.0,0.0,0.0,0.0,0.0,0.0,0.0,0.0,0.0,0.0,0.0,0.0,0.0,0.0,0.0,0.0,0.0,0.0,0.0,0.0,0.0,0.0,0.0,0.0,0.0,0.0,0.0,0.0,0.0,0.0,0.0,0.0,0.0,0.0,0.0,0.0,0.0,0.0,0.0,0.0,0.0,0.0,0.0,0.0,0.0,0.0,0.0,1.3266,1.3268,1.3418,1.3269,1.2755,1.1579,1.1255,0.0,0.0,0.0,0.0,0.0,0.0,0.0,0.0,0.0,0.0,0.0,0.0,0.0,0.0,0.0,0.0,0.0,0.0,0.0,0.0,0.0,0.0,0.0,0.0,0.0,0.0,0.0,0.0,0.0,0.0,0.0,0.0,0.0,0.0,0.0,0.0,0.0,0.0,0.0,0.0,0.0,0.0,0.0,0.0,0.0,0.0,0.0,0.0,0.0,0.0,0.0,0.0,0.0,0.0,0.0,0.0,0.0,0.0,0.0,0.0,0.0,0.0,0.0,0.0,0.0,0.0,0.0,0.0,0.0,0.0,0.0,0.0,0.0,0.0,0.0,0.0,0.0,0.0,0.0,0.0,0.0,0.0,0.0,0.0,0.0,0.0,0.0,0.0,0.0,0.0,0.0,0.0,0.0,0.0,0.0,0.0,0.0,0.0,0.0,0.0,0.0,0.0,0.0,0.0,0.0,0.0,0.0,0.0,1.5008,1.5201,1.5553,1.5643,1.5482,1.3375,1.2485,0.0,0.0,0.0,0.0,0.0,0.0,0.0,0.0,0.0,0.0,0.0,0.0,0.0,0.0,0.0,0.0,0.0,0.0,0.0,0.0,0.0,0.0,0.0,0.0,0.0,0.0,0.0,0.0,0.0,0.0,0.0,0.0,0.0,0.0,0.0,0.0,0.0,0.0,0.0,0.0,0.0,0.0,0.0,0.0,0.0,0.0,0.0,0.0,0.0,0.0,0.0,0.0,0.0,0.0,0.0,0.0,0.0,0.0,0.0,0.0,0.0,0.0,0.0,0.0,0.0,0.0,0.0,0.0,0.0,0.0,0.0,0.0,0.0,0.0,0.0,0.0,0.0,0.0,0.0,0.0,0.0,0.0,0.0,0.0,0.0,0.0,0.0,0.0,0.0,0.0,0.0,0.0,0.0,0.0,0.0,0.0,0.0,0.0,0.0,0.0,0.0,0.0,0.0,0.0,0.0,0.0,0.0,0.0,1.5206,1.5774,1.5903,1.6045,1.6251,1.4974,1.4248,0.0,0.0,0.0,0.0,0.0,0.0,0.0,0.0,0.0,0.0,0.0,0.0,0.0,0.0,0.0,0.0,0.0,0.0,0.0,0.0,0.0,0.0,0.0,0.0,0.0,0.0,0.0,0.0,0.0,0.0,0.0,0.0,0.0,0.0,0.0,0.0,0.0,0.0,0.0,0.0,0.0,0.0,0.0,0.0,0.0,0.0,0.0,0.0,1.824,0.0,0.0,0.0,0.0,0.0,0.0,0.0,0.0,0.0,0.0,0.0,0.0,0.0,0.0,0.0,0.0,0.0,0.0,0.0,0.0,0.0,0.0,0.0,0.0,0.0,0.0,0.0,0.0,0.0,0.0,0.0,0.0,0.0,0.0,0.0,0.0,0.0,0.0,0.0,0.0,0.0,0.0,0.0,0.0,0.0,0.0,0.0,0.0,0.0,0.0,0.0,0.0,0.0,0.0,0.0,0.0,0.0,0.0,0.0,1.6042,1.6461,1.6451,1.6558,1.671,1.619,1.5607,0.0,0.0,0.0,0.0,0.0,0.0,0.0,0.0,0.0,0.0,0.0,0.0,0.0,0.0,0.0,0.0,0.0,0.0,0.0,0.0,0.0,0.0,0.0,0.0,0.0,0.0,0.0,0.0,0.0,0.0,0.0,0.0,0.0,0.0,0.0,0.0,0.0,0.0,0.0,0.0,0.0,0.0,0.0,0.0,0.0,0.0,0.0,0.0,0.0,0.0,0.0,0.0,0.0,0.0,0.0,0.0,0.0,0.0,0.0,0.0,0.0,0.0,0.0,0.0,0.0,0.0,0.0,0.0,0.0,0.0,0.0,0.0,0.0,0.0,0.0,0.0,0.0,0.0,0.0,0.0,0.0,0.0,0.0,0.0,0.0,0.0,0.0,0.0,0.0,0.0,0.0,0.0,0.0,0.0,0.0,0.0,0.0,0.0,0.0,0.0,0.0,0.0,0.0,0.0,0.0,0.0,0.0,1.6655,1.7047,1.7152,1.7173,1.7206,1.7239,1.7163,1.6718,1.5869,0.0,0.0,0.0,0.0,0.0,0.0,0.0,0.0,0.0,0.0,0.0,0.0,0.0,0.0,0.0,0.0,0.0,0.0,0.0,0.0,0.0,0.0,0.0,0.0,0.0,0.0,0.0,0.0,0.0,0.0,0.0,0.0,0.0,0.0,0.0,0.0,0.0,0.0,2.0602,2.0111,0.0,0.0,0.0,0.0,0.0,0.0,0.0,0.0,1.879,0.0,0.0,0.0,0.0,0.0,0.0,0.0,0.0,0.0,0.0,0.0,0.0,0.0,0.0,0.0,0.0,0.0,0.0,0.0,0.0,0.0,0.0,0.0,0.0,0.0,0.0,0.0,0.0,0.0,0.0,0.0,0.0,0.0,0.0,0.0,0.0,0.0,0.0,0.0,0.0,0.0,0.0,0.0,0.0,0.0,0.0,0.0,0.0,0.0,0.0,0.0,0.0,0.0,0.0,0.0,0.0,1.6938,1.7318,1.7607,1.7916,1.7916,1.8053,1.8303,1.7847,1.7537,1.7392,0.0,0.0,0.0,0.0,0.0,0.0,0.0,0.0,0.0,0.0,0.0,0.0,0.0,0.0,0.0,0.0,0.0,0.0,0.0,0.0,0.0,0.0,0.0,0.0,0.0,0.0,0.0,0.0,0.0,0.0,0.0,0.0,0.0,0.0,0.0,0.0,0.0,0.0,0.0,2.0259,2.0043,0.0,0.0,0.0,0.0,0.0,0.0,0.0,0.0,1.9301,0.0,0.0,0.0,0.0,0.0,0.0,0.0,0.0,0.0,0.0,0.0,0.0,0.0,0.0,0.0,0.0,0.0,0.0,0.0,0.0,0.0,0.0,0.0,0.0,0.0,0.0,0.0,0.0,0.0,0.0,0.0,0.0,0.0,0.0,0.0,0.0,0.0,0.0,0.0,0.0,0.0,0.0,0.0,0.0,0.0,0.0,0.0,0.0,0.0,0.0,0.0,0.0,0.0,0.0,0.0,1.7537,1.7861,1.8034,1.8099,1.8099,1.8093,1.8133,1.7844,1.7723,0.0,0.0,0.0,0.0,0.0,0.0,0.0,0.0,0.0,0.0,0.0,0.0,0.0,0.0,0.0,0.0,0.0,0.0,0.0,0.0,0.0,0.0,0.0,0.0,0.0,0.0,0.0,0.0,0.0,0.0,0.0,0.0,0.0,0.0,0.0,0.0,0.0,0.0,0.0,0.0,2.0615,2.0602,2.0602,0.0,0.0,0.0,0.0,0.0,0.0,1.9774,1.9813,0.0,0.0,0.0,0.0,0.0,0.0,0.0,0.0,0.0,0.0,0.0,0.0,0.0,0.0,0.0,0.0,0.0,0.0,0.0,0.0,0.0,0.0,0.0,0.0,0.0,0.0,0.0,0.0,0.0,0.0,0.0,0.0,0.0,0.0,0.0,0.0,0.0,0.0,0.0,0.0,0.0,0.0,0.0,0.0,0.0,0.0,0.0,0.0,0.0,0.0,0.0,0.0,0.0,0.0,0.0,1.8065,1.8418,1.8562,1.839,1.8379,1.8296,1.8127,1.7994,1.795,0.0,0.0,0.0,0.0,0.0,0.0,0.0,0.0,0.0,0.0,0.0,0.0,0.0,0.0,0.0,0.0,0.0,0.0,0.0,0.0,0.0,0.0,0.0,0.0,0.0,0.0,0.0,0.0,0.0,0.0,0.0,0.0,0.0,0.0,0.0,0.0,0.0,0.0,0.0,0.0,0.0,2.1176,2.1122,2.1162,0.0,0.0,0.0,0.0,2.033,2.025,0.0,0.0,0.0,0.0,0.0,0.0,0.0,0.0,0.0,0.0,0.0,0.0,0.0,0.0,0.0,0.0,0.0,0.0,0.0,0.0,0.0,0.0,0.0,0.0,0.0,0.0,0.0,0.0,0.0,0.0,0.0,0.0,0.0,0.0,0.0,0.0,0.0,0.0,0.0,0.0,0.0,0.0,0.0,0.0,0.0,0.0,0.0,0.0,0.0,0.0,0.0,0.0,0.0,0.0,0.0,0.0,1.8721,1.9165,1.937,1.9338,1.9338,1.9365,1.9451,1.8956,1.8739,0.0,0.0,0.0,0.0,0.0,0.0,0.0,0.0,0.0,0.0,0.0,0.0,0.0,0.0,0.0,0.0,0.0,0.0,0.0,0.0,0.0,0.0,0.0,0.0,0.0,0.0,0.0,0.0,0.0,0.0,0.0,0.0,0.0,0.0,0.0,0.0,0.0,0.0,0.0,0.0,0.0,2.1435,2.1149,2.1368,2.1435,0.0,0.0,2.0699,2.0659,2.0401,0.0,0.0,0.0,0.0,0.0,0.0,0.0,0.0,0.0,0.0,0.0,0.0,0.0,0.0,0.0,0.0,0.0,0.0,0.0,0.0,0.0,0.0,0.0,0.0,0.0,0.0,0.0,0.0,0.0,0.0,0.0,0.0,0.0,0.0,0.0,0.0,0.0,0.0,0.0,0.0,0.0,0.0,0.0,0.0,0.0,0.0,0.0,0.0,0.0,0.0,0.0,0.0,0.0,0.0,0.0,1.894,1.9418,1.9633,1.9758,1.9898,1.9908,1.98,1.958,1.9314,1.9152,0.0,0.0,0.0,0.0,0.0,0.0,0.0,0.0,0.0,0.0,0.0,0.0,0.0,0.0,0.0,0.0,0.0,0.0,0.0,0.0,0.0,0.0,0.0,0.0,0.0,0.0,0.0,0.0,0.0,0.0,0.0,0.0,0.0,0.0,0.0,0.0,0.0,0.0,0.0,0.0,0.0,0.0,2.1617,2.1743,0.0,0.0,0.0,2.1341,2.0975,0.0,0.0,0.0,0.0,0.0,0.0,0.0,0.0,0.0,0.0,0.0,0.0,0.0,0.0,0.0,0.0,0.0,0.0,0.0,0.0,0.0,0.0,0.0,0.0,0.0,0.0,0.0,0.0,0.0,0.0,0.0,0.0,0.0,0.0,0.0,0.0,0.0,0.0,0.0,0.0,0.0,0.0,0.0,0.0,0.0,0.0,0.0,0.0,0.0,0.0,0.0,0.0,0.0,0.0,0.0,0.0,0.0,1.9968,2.0032,2.0183,2.0333,2.0328,2.0102,1.9693,1.9682,0.0,0.0,0.0,0.0,0.0,0.0,0.0,0.0,0.0,0.0,0.0,0.0,0.0,0.0,0.0,0.0,0.0,0.0,0.0,0.0,0.0,0.0,0.0,0.0,0.0,0.0,0.0,1.8988,0.0,0.0,0.0,0.0,0.0,0.0,0.0,0.0,0.0,0.0,0.0,0.0,0.0,0.0,2.1912,2.1833,2.1965,2.1952,0.0,0.0,2.1697,2.1189,2.1296,2.1363,0.0,0.0,0.0,0.0,0.0,0.0,0.0,0.0,0.0,0.0,0.0,0.0,0.0,0.0,0.0,0.0,0.0,0.0,0.0,0.0,0.0,0.0,0.0,0.0,0.0,0.0,0.0,0.0,0.0,0.0,0.0,0.0,0.0,0.0,0.0,0.0,0.0,0.0,0.0,0.0,0.0,0.0,0.0,0.0,0.0,0.0,0.0,0.0,0.0,0.0,0.0,0.0,0.0,0.0,0.0,2.0188,2.0442,2.0669,2.0845,2.069,2.0453,2.0177,2.0167,1.9913,0.0,0.0,0.0,0.0,0.0,0.0,0.0,0.0,0.0,0.0,0.0,0.0,0.0,0.0,0.0,0.0,0.0,0.0,0.0,0.0,0.0,0.0,0.0,0.0,0.0,0.0,0.0,0.0,0.0,0.0,0.0,0.0,0.0,0.0,0.0,0.0,0.0,0.0,0.0,0.0,0.0,2.1641,2.1386,2.1897,2.2076,0.0,2.1541,2.1502,2.1162,2.1104,2.1122,2.1122,0.0,0.0,0.0,0.0,0.0,0.0,0.0,0.0,0.0,0.0,0.0,0.0,0.0,0.0,0.0,0.0,0.0,0.0,0.0,0.0,0.0,0.0,0.0,0.0,0.0,0.0,0.0,0.0,0.0,0.0,0.0,0.0,0.0,0.0,0.0,0.0,0.0,0.0,0.0,0.0,0.0,0.0,0.0,0.0,0.0,0.0,0.0,0.0,0.0,0.0,0.0,0.0,0.0,2.0518,2.0867,2.1003,2.1219,2.1534,2.133,2.1103,2.0877,2.0576,2.0274,0.0,0.0,0.0,0.0,0.0,0.0,0.0,0.0,0.0,0.0,0.0,0.0,0.0,0.0,0.0,0.0,0.0,0.0,0.0,0.0,0.0,0.0,0.0,0.0,0.0,0.0,0.0,0.0,1.9088,1.9601,1.9785,0.0,0.0,0.0,0.0,0.0,0.0,0.0,0.0,0.0,0.0,2.1721,2.162,2.2005,0.0,0.0,2.2077,2.2224,2.1724,2.1771,2.1857,2.167,2.1657,0.0,0.0,0.0,0.0,0.0,0.0,0.0,0.0,0.0,0.0,0.0,0.0,0.0,0.0,0.0,0.0,0.0,0.0,0.0,0.0,0.0,0.0,0.0,0.0,0.0,0.0,0.0,0.0,0.0,0.0,0.0,0.0,0.0,0.0,0.0,0.0,0.0,0.0,0.0,0.0,0.0,0.0,0.0,0.0,0.0,0.0,0.0,0.0,0.0,0.0,0.0,0.0,2.0899,2.1373,2.1448,2.1717,2.2212,2.1954,2.1728,2.1532,2.1093,2.0705,0.0,0.0,0.0,0.0,0.0,0.0,0.0,0.0,0.0,0.0,0.0,0.0,0.0,0.0,0.0,0.0,0.0,0.0,0.0,0.0,0.0,0.0,0.0,0.0,0.0,0.0,0.0,0.0,1.9221,1.9733,2.0011,0.0,0.0,0.0,0.0,0.0,0.0,0.0,0.0,0.0,0.0,2.1574,2.1574,2.1887,2.2026,2.188,2.2285,2.2464,2.2058,2.2151,2.2191,2.1943,0.0,0.0,0.0,0.0,0.0,0.0,0.0,0.0,0.0,0.0,0.0,0.0,0.0,0.0,0.0,0.0,0.0,0.0,0.0,0.0,0.0,0.0,0.0,0.0,0.0,0.0,0.0,1.3657,0.0,0.0,1.5083,0.0,0.0,0.0,0.0,0.0,0.0,0.0,0.0,0.0,0.0,0.0,0.0,0.0,0.0,0.0,0.0,0.0,0.0,0.0,0.0,0.0,0.0,2.1147,2.1609,2.1857,2.2202,2.2654,2.2439,2.2202,2.2007,2.1717,2.1265,2.0615,0.0,0.0,0.0,0.0,0.0,0.0,0.0,0.0,0.0,0.0,0.0,0.0,0.0,0.0,0.0,0.0,0.0,0.0,0.0,0.0,0.0,0.0,0.0,0.0,0.0,0.0,1.9766,1.9881,2.0023,0.0,0.0,0.0,0.0,0.0,0.0,0.0,0.0,0.0,0.0,2.1163,2.111,2.111,2.1393,2.1645,2.1694,2.185,2.1949,2.2005,2.2017,2.193,0.0,0.0,0.0,0.0,0.0,0.0,0.0,0.0,0.0,0.0,0.0,0.0,0.0,0.0,0.0,0.0,0.0,0.0,0.0,0.0,0.0,0.0,0.0,0.0,0.0,0.0,0.0,1.4625,1.45,0.0,0.0,0.0,0.0,0.0,0.0,0.0,0.0,0.0,0.0,0.0,2.1638,2.2195,0.0,0.0,0.0,0.0,0.0,0.0,0.0,0.0,0.0,0.0,0.0,0.0,2.1555,2.2309,2.2406,2.2686,2.3138,2.289,2.2654,2.2492,2.1911,2.1286,2.0626,0.0,0.0,0.0,0.0,0.0,0.0,0.0,0.0,0.0,0.0,0.0,0.0,0.0,0.0,0.0,0.0,0.0,0.0,0.0,0.0,0.0,0.0,0.0,0.0,0.0,1.9634,0.0,0.0,0.0,0.0,0.0,0.0,0.0,0.0,0.0,0.0,0.0,2.1276,2.0922,2.1,2.1087,2.1087,2.137,2.1676,0.0,0.0,0.0,0.0,0.0,0.0,0.0,0.0,0.0,0.0,0.0,0.0,0.0,0.0,2.3913,2.3075,2.3197,2.3369,2.3118,0.0,0.0,0.0,0.0,0.0,0.0,0.0,0.0,0.0,0.0,0.0,0.0,0.0,0.0,1.6257,0.0,1.6404,0.0,0.0,0.0,0.0,0.0,0.0,0.0,0.0,2.1148,2.1705,2.161,2.265,2.277,0.0,2.1819,2.1157,0.0,0.0,0.0,0.0,0.0,0.0,0.0,0.0,2.1779,2.2406,2.2686,2.2998,2.3365,2.2675,2.2212,2.2012,2.0883,2.0282,2.0338,2.0307,2.0516,0.0,0.0,0.0,0.0,0.0,0.0,0.0,0.0,0.0,0.0,0.0,0.0,0.0,0.0,0.0,0.0,0.0,0.0,0.0,0.0,0.0,0.0,0.0,2.0388,0.0,0.0,0.0,0.0,0.0,0.0,0.0,0.0,0.0,2.1281,2.1401,2.1377,2.1039,2.1135,2.1244,2.1244,0.0,0.0,0.0,0.0,0.0,0.0,0.0,2.3015,2.3018,2.3345,2.3696,2.3932,2.4132,2.4486,2.5017,0.0,0.0,2.3927,2.396,2.4075,2.3855,2.3954,2.4145,2.4247,2.4437,2.4613,0.0,0.0,0.0,0.0,0.0,0.0,0.0,0.0,1.7799,1.8043,0.0,1.6841,0.0,0.0,0.0,0.0,1.84,1.8079,0.0,0.0,2.0629,2.1282,2.1527,2.3069,2.3153,2.1805,2.1293,2.0191,1.861,2.0477,0.0,0.0,0.0,0.0,0.0,0.0,2.1668,2.1886,2.2518,2.3005,2.3174,2.1658,2.0832,2.068,1.8888,1.8476,1.9703,1.9459,1.9915,2.1352,2.0684,0.0,0.0,0.0,0.0,0.0,0.0,0.0,0.0,0.0,0.0,0.0,0.0,0.0,0.0,0.0,0.0,0.0,0.0,0.0,0.0,2.1029,0.0,0.0,0.0,0.0,0.0,0.0,0.0,0.0,0.0,0.0,2.1619,2.1535,2.1534,2.151,0.0,0.0,0.0,0.0,2.1631,2.1967,2.2015,2.2159,2.2519,2.2627,2.2645,2.2695,0.0,0.0,2.423,2.4372,2.467,2.5413,2.5338,2.506,2.506,2.5023,2.4998,2.4983,2.4968,2.514,2.5403,2.5383,2.5579,1.4563,0.0,0.0,0.0,0.0,1.4313,1.5136,1.6395,1.7536,1.7627,1.6943,1.7682,0.0,0.0,0.0,0.0,0.0,0.0,1.8795,1.8417,1.9213,1.9525,1.9452,2.0403,2.0497,1.9779,1.9644,1.9276,1.8803,1.9318,1.9569,1.9548,0.0,0.0,0.0,0.0,1.9791,1.9936,2.0185,2.0405,2.0543,2.007,1.968,1.9328,1.9622,1.9357,1.8425,1.9281,1.9468,1.88,1.9274,0.0,0.0,0.0,0.0,0.0,0.0,0.0,0.0,0.0,0.0,0.0,0.0,0.0,0.0,0.0,0.0,0.0,0.0,0.0,2.0781,2.1258,2.145,0.0,0.0,0.0,0.0,0.0,0.0,0.0,0.0,0.0,2.2635,2.2308,2.1933,0.0,0.0,2.1764,2.1788,2.1788,2.1898,2.2153,2.2373,0.0,2.2399,2.2744,2.3005,2.284,2.3598,2.4455,2.5243,2.5606,2.5983,2.6489,2.6488,2.643,2.6357,2.55,2.4734,2.4485,2.4749,2.51,2.5217,2.5535,2.5915,1.5466,1.4887,1.455,1.4527,1.4588,1.4873,1.5557,1.6513,1.7645,1.7698,1.6912,1.7374,1.6757,1.5414,1.5481,0.0,0.0,0.0,1.7887,1.7689,1.8134,1.8338,1.8396,1.9326,1.9332,1.8547,1.8509,1.8144,1.7526,1.7744,1.7813,1.7783,0.0,0.0,1.8702,1.8906,1.9015,1.9052,1.9271,1.938,1.9418,1.872,1.7953,1.7163,1.7823,1.7928,1.7353,1.8016,1.8233,1.7822,1.8213,1.833,0.0,0.0,0.0,0.0,0.0,0.0,0.0,0.0,0.0,0.0,0.0,1.9378,1.9537,0.0,0.0,0.0,2.0137,2.0748,2.1643,2.1885,0.0,0.0,0.0,0.0,0.0,0.0,0.0,2.3097,2.3121,2.3121,2.3109,2.2804,2.249,2.2175,2.2272,2.2369,2.2369,0.0,2.2429,2.2586,2.2744,2.2792,2.2673,2.2922,2.3212,2.343,2.4271,2.5154,2.5848,2.6166,2.6455,2.6867,2.6881,2.6808,2.6793,2.5886,2.5183,2.5227,2.5467,2.5686,2.5818,2.6237,2.6603,1.6374,1.6105,1.5364,1.5112,1.5164,1.6224,1.6734,1.6946,1.804,1.8046,1.7262,1.645,1.5906,1.5624,1.5891,0.0,1.7304,1.6335,1.6366,1.7218,1.7379,1.758,1.7814,1.9096,1.9056,1.7726,1.7751,1.6947,1.5548,1.6111,1.6303,1.6216,1.7476,1.8032,1.7912,1.8471,1.875,1.8711,1.9006,1.9146,1.912,1.752,1.5992,1.4799,1.4674,1.525,1.6359,1.6176,1.6561,1.7665,1.7273,1.6893,1.6785,0.0,0.0,0.0,0.0,0.0,0.0,0.0,0.0,0.0,0.0,0.0,0.0,0.0,0.0,0.0,2.074,0.0,2.2595,2.2707,0.0,0.0,0.0,2.3118,2.3143,2.3143,2.3167,2.3203,0.0,0.0,2.3203,2.3191,2.3179,2.3179,2.3143,2.3106,2.3121,2.3121,2.3106,2.3058,2.3133,2.3145,2.3034,2.3123,2.3432,2.4188,2.5007,2.5688,2.6196,2.6322,2.6507,2.6991,2.6793,2.6617,2.6588,2.6354,2.6325,2.6896,2.6735,2.6617,2.6932,2.7217,2.7452,1.6533,1.6395,1.611,1.5859,1.5718,1.5737,1.6372,1.7335,1.7536,1.7504,1.7265,1.6971,1.6152,1.5014,1.6421,1.6638,1.597,1.7046,1.7124,1.6398,1.644,1.6475,1.6553,1.6776,1.6783,1.6489,1.6272,1.6015,1.5792,1.5931,1.6035,1.6166,1.6553,1.6697,1.6638,1.6644,1.6517,1.6261,1.632,1.6328,1.6198,1.5459,1.5035,1.4955,1.5569,1.5631,1.5033,1.5746,1.5729,1.4879,1.5567,1.585,1.5647,1.6793,0.0,0.0,0.0,0.0,0.0,0.0,0.0,0.0,0.0,1.9237,1.9699,0.0,2.0035,0.0,2.1619,2.2265,2.2669,2.2864,0.0,0.0,2.3225,2.343,2.3623,2.3619,2.3804,2.4202,2.4069,2.4021,2.4226,2.4069,2.3949,2.3949,2.3599,2.3285,2.313,2.3237,2.3273,2.3155,2.3225,2.3273,2.3143,2.3353,2.3828,2.4623,2.5428,2.6188,2.698,2.7179,2.7266,2.7378,2.7305,2.7247,2.7232,2.7174,2.7261,2.7546,2.7276,2.6983,2.7327,2.7613,2.7809,1.7007,1.691,1.6761,1.653,1.6225,1.5866,1.614,1.6845,1.674,1.6623,1.655,1.6317,1.5867,1.5336,1.619,1.6266,1.5821,1.6899,1.6992,1.6286,1.6415,1.6534,1.6476,1.6327,1.63,1.6374,1.6144,1.6076,1.6151,1.6151,1.6157,1.6185,1.6266,1.6294,1.6258,1.6182,1.6035,1.5811,1.5676,1.5533,1.5377,1.5004,1.4923,1.5194,1.55,1.5286,1.4611,1.5136,1.498,1.4091,1.465,1.4951,1.4751,1.567,1.6303,0.0,0.0,0.0,0.0,0.0,0.0,0.0,0.0,0.0,0.0,0.0,2.022,2.1363,2.2035,2.2614,2.3137,2.3321,2.349,2.3759,2.3888,2.3993,2.4138,2.415,2.4258,2.4547,2.4463,2.4427,2.4601,2.4395,2.4186,2.4186,2.3945,2.3668,2.3466,2.3499,2.3535,2.343,2.3526,2.3547,2.3418,2.3943,2.4464,2.4971,2.5853,2.6702,2.7229,2.7492,2.7673,2.7678,2.7686,2.7648,2.7686,2.7686,2.7751,2.7984,2.7853,2.7671,2.7686,2.7897,2.8131,1.7507,1.7412,1.7297,1.708,1.6723,1.6388,1.6191,1.613,1.6071,1.5879,1.5661,1.5466,1.556,1.5956,1.5818,1.5934,1.6212,1.6483,1.6619,1.6653,1.691,1.7039,1.7032,1.6824,1.6763,1.6777,1.6666,1.6592,1.6605,1.6592,1.6517,1.6402,1.6395,1.6395,1.6402,1.6517,1.6497,1.6313,1.6078,1.5825,1.5696,1.5377,1.5276,1.5384,1.4951,1.4714,1.4694,1.4566,1.4468,1.4312,1.4319,1.4258,1.4153,1.4384,1.4842,0.0,1.5761,0.0,0.0,0.0,0.0,0.0,0.0,0.0,0.0,1.974,2.0261,2.1592,2.2063,2.276,2.382,2.3909,2.4089,2.4523,2.462,2.4632,2.4632,2.4644,2.4656,2.468,2.4656,2.4644,2.4692,2.4463,2.4294,2.433,2.427,2.4138,2.3957,2.3872,2.3836,2.3824,2.38,2.3764,2.3832,2.4455,2.4985,2.5184,2.6109,2.7014,2.7245,2.7624,2.7908,2.7929,2.797,2.797,2.797,2.8014,2.8131,2.8408,2.8461,2.8335,2.8145,2.8262,2.8437,1.75,1.7372,1.7473,1.7338,1.7107,1.7019,1.6775,1.6442,1.6537,1.6429,1.6191,1.6246,1.6252,1.6239,1.6391,1.6639,1.6815,1.6985,1.7134,1.7249,1.7311,1.7338,1.7331,1.7182,1.7175,1.727,1.7019,1.6951,1.706,1.6951,1.6876,1.6856,1.6856,1.6849,1.6856,0.0,0.0,0.0,1.613,1.6022,1.5988,1.5588,1.5384,1.5404,1.5099,0.0,1.4701,1.4667,1.4525,1.4319,1.4414,0.0,0.0,0.0,0.0,0.0,0.0,0.0,0.0,0.0,0.0,0.0,1.6549,1.7134,1.7149,1.8037,1.9389,2.1117,2.1726,2.2677,2.4262,2.4439,2.4475,2.4571,2.4788,2.4933,2.4921,2.4921,2.5005,2.521,2.5053,2.5005,2.5174,2.5017,2.4836,2.48,2.4656,2.454,2.4439,2.4234,2.4041,2.3848,2.38,2.38,2.38,2.4292,2.4771,2.5157,2.6175,2.7069,2.7471,2.7936,2.8255,2.8321,2.8306,2.8306,2.8306,2.8534,2.871,2.8798,2.8812,2.8783,2.8725,2.8754,2.8798,1.7887,1.7765,1.784,1.7738,0.0,1.7528,1.7392,1.7168,1.6951,1.6822,1.6748,1.6748,1.6788,1.6863,1.6937,1.7053,1.7202,1.7351,1.746,1.748,1.7602,1.7636,1.7636,1.7487,1.746,1.7467,1.7304,1.7236,1.7297,1.7236,1.7161,1.7087,1.7161,1.7161,1.7087,1.7087,1.6904,1.6479,1.6374,1.63,1.6286,1.6008,1.5818,1.5737,1.5384,0.0,0.0,0.0,0.0,0.0,0.0,0.0,0.0,1.4485,0.0,1.4948,1.5111,1.5191,1.5264,1.5416,1.5327,1.4987,1.5121,1.5643,1.6668,1.7945,1.9104,2.0081,2.1411,2.2677,2.3679,2.4413,2.4836,2.4969,2.5114,2.5198,2.5198,2.5198,2.5246,2.5355,2.5282,2.5246,2.5367,2.5162,2.5017,2.4981,2.4764,2.4595,2.4559,2.4354,2.4101,2.3848,2.38,2.38,2.384,2.4212,2.4612,2.513,2.6096,2.7051,2.7739,2.8218,2.8627,2.8822,2.8783,2.8666,2.8681,2.8915,2.9134,2.9188,2.9266,2.9393,2.9393,2.9159,2.8886,1.8267,1.8131,1.8131,1.803,1.7915,1.784,1.7881,1.7792,0.0,0.0,0.0,1.7134,1.7236,1.7453,1.7351,1.7378,1.7507,1.7575,1.7684,1.7636,1.7806,1.7915,1.7908,1.7738,1.769,1.7629,1.7561,1.75,1.75,1.75,1.7426,1.7297,1.7399,1.7385,1.7243,1.7209,1.7073,1.6784,1.6653,1.6558,1.6506,1.6422,1.6273,1.6123,1.5737,1.5391,1.5099,1.4821,1.4604,1.4462,1.4455,1.4496,1.4577,1.4434,1.4558,1.4998,1.488,1.4838,1.4965,1.4852,1.462,1.4302,1.4027,1.4665,1.6606,1.7801,1.8688,1.905,2.0932,2.2373,2.3111,2.4179,2.4996,2.5468,2.5535,2.5535,2.5535,2.5535,2.5547,2.5535,2.5547,2.5535,2.5547,2.5379,2.5186,2.5138,2.5005,2.474,2.4644,2.4451,2.4222,2.4041,2.3969,2.3884,2.3913,2.4117,2.4557,2.5019,2.5866,2.6908,2.7805,2.838,2.8859,2.9402,2.9222,2.9105,2.913,2.9281,2.9496,2.9496,2.9716,2.9906,2.9862,2.9481,2.909,1.8416,1.8287,1.8287,1.8124,1.7908,1.7731,1.7622,1.7615,1.7541,1.7494,1.7399,1.7453,1.7521,1.7568,1.7724,1.7834,1.7854,1.7826,1.7888,1.7833,1.7908,1.7915,1.7915,1.784,1.7888,1.7833,1.7812,1.7854,1.7799,1.7854,1.7724,1.7548,1.7554,1.7487,1.7392,1.7256,1.7168,1.7127,1.6804,1.6669,1.6662,1.652,1.6422,1.6279,1.609,1.5845,1.5506,1.5371,1.5215,1.5065,1.5059,1.5018,1.4955,1.4638,1.4479,1.4415,1.4155,1.3955,1.4026,1.3955,1.4003,1.4089,1.4105,1.4437,1.522,1.5849,1.6977,1.8768,1.9721,2.1146,2.3434,2.4029,2.47,2.5854,2.6097,2.6066,2.6073,2.6073,2.6029,2.6029,2.6109,2.6042,2.6005,2.6025,2.5904,2.5716,2.5572,2.5451,2.5053,2.4704,2.4535,2.4451,2.4282,2.4162,2.4101,2.3985,2.4267,2.4802,2.5403,2.6326,2.7703,2.8285,2.8851,2.9672,2.9705,2.9716,2.9731,2.9789,2.9833,2.9848,2.9921,2.9965,2.998,2.9833,2.9657,1.8694,1.8579,1.8647,1.8559,1.8405,1.828,1.8158,1.7967,1.8041,1.7948,1.7677,1.7738,1.7765,1.7779,1.7921,1.7989,1.7989,1.807,1.8111,1.8111,1.8111,1.8111,1.8104,1.803,1.803,1.8097,1.7997,1.8004,1.8084,1.8004,1.7874,1.788,1.7806,1.769,1.7494,1.7426,1.7399,1.7311,1.7026,1.6876,1.6876,1.6809,1.67,1.65,1.6327,1.6103,1.5886,1.5655,1.5466,1.5316,1.5309,1.5276,1.5208,1.4997,1.4882,1.4896,1.4692,1.457,1.457,1.4496,1.4448,1.4434,1.4695,1.5024,1.5444,1.5718,1.6427,1.7743,1.8942,2.0561,2.2653,2.3542,2.4562,2.6042,2.6174,2.6174,2.6174,2.6174,2.6174,2.6174,2.6174,2.6174,2.6174,2.6174,2.6182,2.6005,2.6037,2.5885,2.5656,2.5523,2.5222,2.4716,2.4487,2.4354,2.4246,2.4234,2.4425,2.4873,2.5517,2.6419,2.7619,2.8276,2.8987,2.9626,2.985,2.9921,2.9921,3.0068,3.0141,3.0185,3.029,3.0364,3.0378,3.0261,3.0053,1.8925,1.883,1.8905,1.8837,1.8667,1.866,1.8531,1.8335,1.843,1.8287,1.7996,1.7968,1.7962,1.7975,1.8091,1.8145,1.8158,1.8267,1.8314,1.8321,1.8321,1.8321,1.8308,1.8192,1.8206,1.8287,1.8077,1.8091,1.8267,1.8084,1.8023,1.8118,1.7989,1.786,1.7697,1.7629,1.7534,1.7467,1.7216,1.708,1.708,1.7046,1.6971,1.679,1.6564,1.6354,1.6225,1.5947,1.5737,1.5622,1.5581,1.5547,1.5506,1.5337,1.5276,1.5337,1.5187,1.5079,1.5072,1.4984,1.4869,1.4708,1.5052,1.5484,1.581,1.5913,1.628,1.7101,1.8487,1.9943,2.1435,2.283,2.4241,2.5633,2.6222,2.6391,2.6411,2.6355,2.6399,2.6355,2.6411,2.6367,2.6355,2.6399,2.6343,2.6339,2.6266,2.6174,2.6174,2.6174,2.5832,2.5289,2.4939,2.4824,2.4595,2.4668,2.4924,2.5178,2.5774,2.6642,2.7601,2.8493,2.916,2.9701,3.0038,3.0182,3.0191,3.0361,3.0492,3.0466,3.0612,3.0732,3.0717,3.0612,3.0346,1.8986,1.8952,1.885,1.862,1.8403,1.8389,1.8369,1.8342,1.8342,1.8328,1.8294,1.828,1.828,1.828,1.8287,1.8294,1.8301,1.8314,1.8328,1.8328,1.8321,1.8321,1.8335,1.8308,1.8308,1.8328,1.828,1.828,1.8342,1.8294,1.828,1.828,1.8145,1.8063,1.8016,1.7792,1.7595,1.7568,1.7412,1.7378,1.7372,1.7243,1.7161,1.7148,1.6811,1.6648,1.6615,1.6351,1.6239,1.6218,1.609,1.6003,1.586,1.5547,1.5343,1.5221,1.4957,1.4735,1.4741,1.4721,1.4728,1.4694,1.4799,1.5096,1.5632,1.5735,1.6292,1.7351,1.8068,1.9022,2.0391,2.1847,2.3329,2.4912,2.608,2.6909,2.6873,2.6909,2.6909,2.6909,2.6849,2.6909,2.6873,2.6885,2.6825,2.6656,2.6496,2.6319,2.6307,2.627,2.6278,2.6061,2.5837,2.5656,2.5535,2.5427,2.5549,2.6081,2.6032,2.6671,2.7701,2.833,2.8731,2.9775,3.0451,3.0575,3.0869,3.0993,3.0788,3.0846,3.089,3.0861,3.079,3.0832,3.0612,1.9115,1.9108,1.9047,1.8952,1.8837,1.8755,1.8715,1.8715,1.8715,1.8715,1.8728,1.8803,1.8654,1.8328,1.8409,1.8386,1.845,1.8538,1.8579,1.8579,1.8586,1.8579,1.8572,1.8484,1.8484,1.8552,1.8409,1.8416,1.8538,1.8491,1.8403,1.8321,1.8253,1.8179,1.8097,1.8063,1.7906,1.7779,1.7799,1.7779,1.7663,1.7446,1.7283,1.7188,1.7073,1.6971,1.689,1.6761,1.6666,1.6527,1.6459,1.6408,1.6252,1.5967,1.5778,1.5703,1.5438,1.5181,1.5093,1.514,1.5092,1.5011,1.5236,1.5438,1.553,1.5982,1.6587,1.7143,1.753,1.8456,2.0121,2.0964,2.2202,2.4315,2.5366,2.6015,2.6936,2.7027,2.7027,2.7027,2.7027,2.7054,2.7198,2.7401,2.7437,2.7271,2.7087,2.6906,2.6861,2.6753,2.6656,2.6689,2.656,2.627,2.5933,2.5861,2.5979,2.6097,2.6313,2.6935,2.7339,2.8347,2.8965,2.9605,3.0111,3.061,3.108,3.1189,3.1154,3.1256,3.1388,3.1402,3.1402,3.1402,3.1242,1.8668,1.8734,1.8946,1.9058,1.9189,1.9094,1.9047,1.9047,1.9047,1.9047,1.9061,1.9156,1.8966,1.8606,1.8633,1.8674,1.8721,1.8789,1.8909,1.8877,1.8943,1.8943,1.8871,1.8776,1.8769,1.883,1.8674,1.866,1.8803,1.8721,1.8586,1.8457,1.8403,1.8321,1.8233,1.8294,1.8213,1.8016,1.8063,1.8036,1.7907,1.767,1.7473,1.7331,1.7277,1.7202,1.7107,1.71,1.7053,1.6892,1.6897,1.6802,1.6646,1.6327,1.609,1.5961,1.5715,1.5546,1.5479,1.5472,1.5425,1.537,1.5641,1.5737,1.5609,1.5993,1.643,1.67,1.7013,1.7943,1.9433,2.0176,2.1556,2.3857,2.4498,2.5366,2.6755,2.7027,2.7027,2.7027,2.7027,2.7078,2.7389,2.7618,2.7763,2.7739,2.7618,2.7486,2.7425,2.7232,2.7054,2.7006,2.6969,2.6798,2.6234,2.627,2.6327,2.6278,2.6596,2.6891,2.7006,2.8052,2.8798,2.9104,2.9731,3.0136,3.0404,3.0651,3.1192,3.161,3.1755,3.1755,3.171,3.1783,3.1783,1.7353,1.7497,1.8214,1.8734,1.9203,1.9137,1.9137,1.9077,1.9137,1.9144,1.9144,1.9171,1.9196,1.9156,1.9047,1.9047,1.9128,1.9027,1.904,1.9149,1.9162,1.9176,1.9183,1.9176,1.9162,1.9142,1.9101,1.9054,1.8986,1.8966,1.8891,1.8742,1.8593,1.8461,1.8477,1.8389,1.8321,1.8267,1.8165,1.8091,1.8057,1.797,1.7758,1.7616,1.7487,1.7399,1.7385,1.7392,1.7385,1.7385,1.7236,1.71,1.6937,1.6537,1.6123,1.5708,1.5621,1.56,1.5587,1.558,1.5566,1.556,1.5581,1.5608,1.5594,1.5575,1.5792,1.6214,1.6626,1.7328,1.8349,1.9497,2.0918,2.2662,2.3994,2.5286,2.6845,2.7027,2.7027,2.6994,2.703,2.7208,2.7379,2.7596,2.7848,2.7872,2.7824,2.7727,2.7546,2.7437,2.7247,2.7078,2.7051,2.7003,2.6954,2.6846,2.6882,2.6834,2.6827,2.705,2.7304,2.7601,2.8099,2.8506,2.8881,2.9242,2.9501,3.0046,3.0763,3.1224,3.1599,3.167,3.1685,3.1785,3.19,1.7507,1.744,1.7816,1.8033,1.8094,1.8148,1.8088,1.8154,1.8183,1.8462,1.8857,1.9082,1.9351,1.9773,1.9624,1.942,1.921,1.9149,1.9156,1.9196,1.9203,1.9203,1.9203,1.9203,1.9203,1.9203,1.9203,1.9176,1.9122,1.904,1.8966,1.8898,1.8755,1.8633,1.8559,1.8586,1.8518,1.8335,1.826,1.8192,1.8097,1.7997,1.7833,1.7785,1.7643,1.7467,1.7419,1.7419,1.7419,1.7419,1.7365,1.727,1.7093,1.6693,1.6341,1.6096,1.5974,1.5879,1.5791,1.5778,1.573,1.56,1.5587,1.56,1.558,1.5539,1.5746,1.6254,1.6759,1.7335,1.7899,1.8643,1.9982,2.2156,2.3076,2.4326,2.6345,2.7027,2.7027,2.7075,2.7247,2.7582,2.7703,2.8053,2.8318,2.8318,2.8174,2.8029,2.7896,2.7655,2.7389,2.728,2.7135,2.7027,2.7027,2.7015,2.7015,2.7015,2.6991,2.7012,2.7144,2.7423,2.7868,2.8002,2.8284,2.8723,2.9154,2.9562,3.0266,3.0544,3.0953,3.1335,3.1477,3.1699,3.2092,1.7102,1.7163,1.7344,1.735,1.7266,1.7205,1.7139,1.6969,1.7234,1.7642,1.8051,1.8503,1.897,1.9398,1.9537,1.9494,1.9206,1.9327,1.942,1.942,1.942,1.9393,1.9352,1.9352,1.9352,1.9352,1.9352,1.9305,1.9203,1.9108,1.904,1.8986,1.8837,1.8742,1.8694,1.8742,1.8654,1.8484,1.8416,1.8335,1.8226,1.8091,1.8009,1.7996,1.7914,1.771,1.7575,1.7561,1.7561,1.7555,1.7521,1.7385,1.7121,1.6788,1.6479,1.6337,1.6286,1.6185,1.6133,1.6078,1.5961,1.5866,1.5811,1.5735,1.5778,1.5737,1.5953,1.6431,1.6913,1.7421,1.7856,1.8208,1.9381,2.1515,2.2016,2.2949,2.5296,2.6028,2.6494,2.6963,2.7473,2.7751,2.7872,2.8259,2.85,2.8572,2.8451,2.8306,2.8065,2.7799,2.7449,2.7317,2.709,2.7051,2.7027,2.7027,2.7027,2.7027,2.6885,2.6897,2.7003,2.7283,2.7452,2.7599,2.789,2.8347,2.8822,2.9201,2.9528,2.9797,3.0253,3.0735,3.1128,3.1673,3.1984,1.5944,1.6427,1.6669,1.6715,1.6692,1.6643,1.6349,1.5916,1.636,1.6689,1.6974,1.7566,1.7978,1.8213,1.8841,1.9103,1.912,1.9497,1.9793,1.9834,1.9841,1.9766,1.9705,1.9698,1.9624,1.9677,1.9644,1.9495,1.925,1.9217,1.9149,1.9006,1.8877,1.8871,1.8986,1.8864,1.8841,1.8735,1.862,1.8474,1.8454,1.8362,1.8274,1.8287,1.8274,1.8138,1.788,1.7867,1.786,1.784,1.7745,1.7392,1.7121,1.6797,1.6628,1.6564,1.6517,1.6503,1.6483,1.6347,1.6259,1.6218,1.6144,1.6035,1.6001,1.5927,1.6055,1.6475,1.6974,1.7459,1.7942,1.84,1.9311,2.0631,2.099,2.1638,2.2942,2.4077,2.5332,2.6541,2.7209,2.7741,2.792,2.8282,2.8596,2.8572,2.856,2.8391,2.798,2.7799,2.7524,2.7186,2.7018,2.7039,2.7027,2.7027,2.7027,2.7015,2.6825,2.6765,2.6885,2.709,2.7135,2.7226,2.7275,2.7735,2.8051,2.8474,2.8732,2.9034,2.9573,2.9976,3.0348,3.0794,3.1552,1.5173,1.5284,1.5822,1.6005,1.595,1.6022,1.5688,1.5148,1.5401,1.5733,1.6253,1.6625,1.7349,1.8176,1.8616,1.8691,1.8691,1.8894,1.9344,1.9934,2.0031,1.9949,1.9888,1.9868,1.982,1.9739,1.9725,1.9677,1.9508,1.9406,1.9332,1.9271,1.9135,1.9094,1.9128,1.9088,1.9067,1.904,1.8816,1.8687,1.8667,1.845,1.8328,1.8321,1.8321,1.8267,1.8186,1.8179,1.8124,1.803,1.8077,1.7948,1.7568,1.7053,1.6788,1.6809,1.6632,1.6517,1.6503,1.6402,1.632,1.6286,1.6171,1.6139,1.6133,1.6042,1.6107,1.6355,1.7004,1.7663,1.786,1.8603,1.9562,2.06,2.0736,2.117,2.2351,2.3036,2.3959,2.5194,2.5947,2.6642,2.7615,2.8235,2.8536,2.8415,2.85,2.8403,2.7968,2.7811,2.7703,2.7319,2.7174,2.7039,2.7027,2.7027,2.7027,2.6945,2.6825,2.6765,2.6861,2.6873,2.6873,2.6921,2.7015,2.7118,2.7435,2.7706,2.7965,2.8101,2.8462,2.8822,2.924,2.9855,3.066,1.4523,1.444,1.4914,1.5109,1.5047,1.5119,1.496,1.46,1.4846,1.5078,1.5379,1.6028,1.6615,1.7293,1.7813,1.8115,1.8115,1.8376,1.8855,1.9439,1.9696,1.9776,1.9881,1.9813,1.9814,1.9739,1.9725,1.963,1.9569,1.9488,1.9434,1.9406,1.9278,1.923,1.9271,1.923,1.9203,1.9169,1.902,1.8925,1.8891,1.8742,1.8626,1.8579,1.8572,1.8511,1.8423,1.845,1.8389,1.8206,1.8172,1.803,1.7758,1.7236,1.6937,1.6924,1.6815,1.6693,1.6673,1.652,1.6425,1.6442,1.6286,1.6171,1.6157,1.613,1.6133,1.6474,1.7162,1.7771,1.8111,1.8762,1.955,1.998,2.0032,2.0602,2.1609,2.1826,2.2432,2.3712,2.4961,2.5953,2.6781,2.8021,2.8488,2.8415,2.8415,2.8343,2.7944,2.7824,2.7618,2.7449,2.728,2.7148,2.7039,2.7027,2.7027,2.6933,2.6849,2.6861,2.6909,2.6813,2.6765,2.6909,2.7027,2.7027,2.7254,2.7208,2.7344,2.739,2.7571,2.7887,2.8429,2.9137,2.99,1.3991,1.391,1.4063,1.4216,1.4269,1.4337,1.4332,1.4284,1.4847,1.4802,1.4605,1.5635,1.5929,1.5766,1.6872,1.7396,1.7547,1.79,1.8288,1.8532,1.8818,1.9126,1.9546,1.9454,1.9434,1.9543,1.9603,1.9529,1.9501,1.9481,1.9447,1.9447,1.9345,1.9305,1.94,1.9305,1.9264,1.9271,1.9223,1.9196,1.9196,1.9169,1.9108,1.8979,1.8959,1.8843,1.864,1.8667,1.8606,1.8355,1.8097,1.7894,1.7629,1.7385,1.7141,1.7073,1.7019,1.6978,1.6951,1.6743,1.6662,1.6628,1.6418,1.632,1.6307,1.6205,1.6273,1.6708,1.734,1.7863,1.8309,1.896,1.9208,1.9078,1.9165,1.9615,2.0377,2.0405,2.0983,2.2384,2.4122,2.5481,2.5622,2.7225,2.8021,2.8367,2.8282,2.8113,2.7811,2.7618,2.7522,2.7377,2.722,2.7114,2.6994,2.7027,2.7027,2.6957,2.6897,2.6909,2.6979,2.6837,2.6777,2.6909,2.7027,2.7027,2.7027,2.7027,2.7027,2.7163,2.7254,2.7299,2.7752,2.8507,2.9162,1.3407,1.338,1.3845,1.4356,1.4789,1.4852,1.4857,1.4852,1.4982,1.5013,1.5058,1.5371,1.5745,1.6179,1.64,1.6634,1.6817,1.6883,1.7281,1.7703,1.777,1.8054,1.8455,1.8365,1.8562,1.8927,1.9043,1.9212,1.9603,1.959,1.9596,1.9596,1.9549,1.9542,1.9583,1.9609,1.9542,1.9522,1.942,1.9366,1.9345,1.9264,1.9189,1.9156,1.9149,1.9047,1.8871,1.8796,1.8793,1.8691,1.8247,1.8077,1.8057,1.765,1.7378,1.7325,1.7243,1.7134,1.708,1.6844,1.6716,1.6689,1.6533,1.6469,1.6463,1.6334,1.6309,1.6576,1.7156,1.7764,1.8061,1.8762,1.9174,1.92,1.8931,1.8847,1.9123,1.8983,1.9383,2.0936,2.1924,2.3199,2.4736,2.5956,2.6905,2.7498,2.7815,2.7946,2.7562,2.7594,2.757,2.7256,2.7042,2.703,2.7006,2.6994,2.7027,2.7027,2.6957,2.6957,2.7015,2.6933,2.6921,2.6981,2.6981,2.7027,2.7027,2.7027,2.7027,2.7027,2.7072,2.7163,2.739,2.7965,2.8546,1.2809,1.279,1.3525,1.4171,1.4798,1.5114,1.5371,1.5561,1.5371,1.5056,1.4964,1.5263,1.5416,1.5622,1.612,1.6402,1.6451,1.6347,1.6612,1.6939,1.697,1.732,1.7828,1.7837,1.8125,1.8617,1.8677,1.9103,1.9597,1.9725,1.9725,1.9718,1.9725,1.9725,1.9718,1.9725,1.9725,1.9705,1.9563,1.9501,1.9427,1.9413,1.9312,1.9264,1.925,1.921,1.9013,1.8905,1.8837,1.8715,1.8457,1.8267,1.8192,1.7846,1.7568,1.7487,1.7283,1.7168,1.7087,1.6937,1.6856,1.6822,1.6707,1.6581,1.6527,1.6435,1.6364,1.6739,1.7313,1.7737,1.8111,1.8811,1.9207,1.9257,1.8955,1.872,1.8826,1.853,1.872,1.9629,2.0546,2.1442,2.3287,2.422,2.5428,2.6407,2.6724,2.7051,2.7291,2.7455,2.7453,2.6979,2.6996,2.7078,2.703,2.6994,2.7027,2.7027,2.7027,2.7027,2.7027,2.7027,2.6981,2.6981,2.6981,2.7027,2.7027,2.7027,2.7027,2.7027,2.7027,2.7072,2.7254,2.748,2.8052,1.2323,1.2253,1.3035,1.3774,1.4469,1.5119,1.5738,1.627,1.5807,1.5245,1.4951,1.527,1.5388,1.4594,1.6009,1.6451,1.6462,1.6342,1.638,1.6529,1.6527,1.6806,1.742,1.7473,1.7751,1.827,1.8495,1.8921,1.9414,1.9597,1.9725,1.9725,1.9725,1.9725,1.9725,1.9725,1.9725,1.9718,1.961,1.9535,1.9468,1.9501,1.9447,1.9305,1.9345,1.9298,1.9122,1.9006,1.8925,1.8847,1.8626,1.8403,1.8165,1.7996,1.7738,1.7426,1.7317,1.7188,1.706,1.7026,1.6971,1.6937,1.679,1.6723,1.6675,1.6551,1.6604,1.7068,1.7506,1.7965,1.8564,1.9058,1.9256,1.9273,1.9118,1.9045,1.8964,1.8597,1.8353,1.8571,1.9837,2.0481,2.115,2.2151,2.3741,2.4934,2.5219,2.5377,2.5948,2.6353,2.6433,2.6428,2.6701,2.7186,2.709,2.7027,2.7027,2.7027,2.7027,2.7027,2.7027,2.7027,2.7027,2.7027,2.7027,2.7027,2.7027,2.7027,2.7027,2.7027,2.7027,2.7027,2.7072,2.7299,2.771,1.236,1.2407,1.3125,1.3774,1.4415,1.5124,1.5828,1.6472,1.6345,1.6004,1.6057,1.6206,1.6131,1.5977,1.6189,1.638,1.6451,1.6353,1.6358,1.6445,1.6347,1.6337,1.6495,1.6524,1.6658,1.7178,1.7703,1.8251,1.886,1.9414,1.9725,1.9725,1.9725,1.9725,1.9725,1.9725,1.9725,1.9705,1.9556,1.9488,1.9454,1.9474,1.9474,1.9386,1.942,1.9406,1.9305,1.9115,1.8979,1.8884,1.8694,1.8498,1.8382,1.8172,1.7968,1.7792,1.7514,1.7344,1.729,1.7107,1.6978,1.6971,1.6944,1.6931,1.6924,1.6754,1.691,1.7375,1.7734,1.8206,1.8934,1.9207,1.9314,1.9273,1.9159,1.9053,1.9094,1.8842,1.868,1.8881,1.9164,1.9765,2.067,2.0946,2.2153,2.3263,2.3582,2.3608,2.427,2.5149,2.5282,2.5365,2.5685,2.6143,2.6656,2.6709,2.7027,2.7027,2.7027,2.7027,2.7027,2.7027,2.7027,2.7027,2.7027,2.7027,2.7027,2.7027,2.7027,2.7027,2.7027,2.7027,2.7027,2.7208,2.739,1.256,1.2945,1.3582,1.4223,1.4927,1.5572,1.6153,1.6408,1.6089,1.5956,1.5961,1.5961,1.602,1.602,1.628,1.6418,1.6429,1.6347,1.6288,1.6288,1.6222,1.6135,1.6037,1.6018,1.6177,1.6677,1.7026,1.7703,1.8556,1.9049,1.9353,1.9664,1.9725,1.9725,1.9725,1.9725,1.9725,1.9718,1.959,1.9508,1.9447,1.9501,1.9542,1.9542,1.9535,1.9515,1.9346,1.9217,1.9074,1.8952,1.8769,1.8599,1.8518,1.8321,1.8152,1.7941,1.765,1.7392,1.7277,1.7121,1.6978,1.6985,1.6978,1.6978,1.6944,1.6836,1.7013,1.746,1.7807,1.8302,1.914,1.9314,1.9314,1.9297,1.9175,1.9191,1.9264,1.8996,1.8793,1.8907,1.8931,1.9195,1.9657,2.0041,2.073,2.1973,2.2086,2.2178,2.3398,2.4104,2.3965,2.4095,2.4426,2.4943,2.5811,2.6345,2.6936,2.7027,2.7027,2.7027,2.7027,2.7027,2.7027,2.7027,2.7027,2.7027,2.7027,2.7027,2.7027,2.6969,2.6969,2.7027,2.7114,2.7321,2.7494,1.3074,1.3582,1.4287,1.4868,1.5444,1.6153,1.6472,1.6408,1.5828,1.5764,1.5572,1.5567,1.5764,1.5764,1.6211,1.6467,1.644,1.6157,1.6008,1.6195,1.5738,1.5659,1.5641,1.5655,1.5847,1.6427,1.6666,1.7398,1.8251,1.8677,1.911,1.9603,1.9725,1.9725,1.9725,1.9725,1.9725,1.9718,1.9603,1.9542,1.9461,1.9542,1.9596,1.9705,1.9698,1.959,1.9468,1.9298,1.9149,1.9027,1.8857,1.8708,1.8572,1.8389,1.8226,1.7997,1.7663,1.746,1.7331,1.7154,1.7026,1.7012,1.6985,1.6978,1.6944,1.6935,1.7186,1.7643,1.815,1.871,1.9238,1.9321,1.9346,1.9314,1.9306,1.9329,1.9354,1.9069,1.8972,1.9045,1.9086,1.9224,1.9076,1.9244,1.9921,2.0452,2.0559,2.0908,2.2106,2.2807,2.2586,2.2808,2.3184,2.3627,2.4406,2.4829,2.556,2.6288,2.6436,2.6618,2.6709,2.7027,2.7027,2.7027,2.7027,2.7027,2.7027,2.7027,2.6981,2.6969,2.6885,2.6801,2.7043,2.7417,2.7573,1.4159,1.4287,1.4927,1.5316,1.5508,1.6217,1.6536,1.6472,1.6345,1.6345,1.6281,1.6281,1.6281,1.6345,1.6408,1.6536,1.6381,1.5951,1.575,1.5876,1.5259,1.4769,1.5125,1.5242,1.5241,1.5393,1.6055,1.7032,1.7886,1.8434,1.9043,1.9603,1.9725,1.9725,1.9725,1.9725,1.9725,1.9711,1.9576,1.9488,1.9481,1.9495,1.9563,1.9711,1.9725,1.9705,1.9563,1.9359,1.9189,1.9142,1.8905,1.8762,1.864,1.8443,1.8294,1.8145,1.7812,1.75,1.7446,1.7304,1.7182,1.7127,1.7073,1.7058,1.7044,1.701,1.7388,1.8203,1.8963,1.957,1.9458,1.9451,1.9386,1.9321,1.9314,1.9338,1.9346,1.924,1.9199,1.9313,1.9321,1.9264,1.9077,1.8907,1.9245,1.9573,1.9516,1.9453,1.9949,2.0671,2.0927,2.1391,2.1991,2.2432,2.2984,2.3214,2.3719,2.4727,2.5183,2.5651,2.597,2.6755,2.6981,2.6573,2.6743,2.7015,2.7015,2.6945,2.687,2.6716,2.6644,2.6608,2.69,2.7169,2.7423,1.4607,1.4927,1.5247,1.5636,1.5956,1.6345,1.6536,1.6536,1.6536,1.6536,1.6536,1.6536,1.6536,1.6536,1.6536,1.6536,1.6232,1.5571,1.5446,1.5394,1.4896,1.4568,1.4939,1.5119,1.5355,1.5395,1.5726,1.6544,1.7648,1.8373,1.8982,1.9536,1.9725,1.9725,1.9725,1.9725,1.9725,1.9698,1.959,1.9549,1.9549,1.9549,1.9603,1.9698,1.9725,1.9725,1.9603,1.9366,1.9169,1.9047,1.8803,1.8633,1.8525,1.843,1.8321,1.824,1.7852,1.7602,1.7575,1.7433,1.7317,1.7304,1.7229,1.7368,1.7447,1.7459,1.7598,1.8343,1.8788,1.9391,1.9577,1.9589,1.9475,1.9402,1.9371,1.9363,1.9403,1.9428,1.9419,1.9467,1.9362,1.9264,1.9273,1.911,1.8907,1.8753,1.8582,1.8476,1.8387,1.8925,1.9634,1.9971,2.0584,2.1018,2.1469,2.1771,2.2128,2.311,2.3726,2.4182,2.4556,2.5047,2.5537,2.5605,2.6004,2.6413,2.6825,2.6753,2.6608,2.6512,2.6548,2.6613,2.6717,2.6921,2.7266,1.5119,1.5636,1.5636,1.5956,1.6472,1.6536,1.6536,1.6536,1.6536,1.6536,1.6467,1.6312,1.6238,1.6238,1.6238,1.6163,1.6004,1.5106,1.492,1.4802,1.4488,1.4439,1.4661,1.5109,1.5341,1.5037,1.5364,1.5872,1.7215,1.7886,1.8677,1.9293,1.9543,1.9725,1.9725,1.9725,1.9725,1.9725,1.9725,1.9725,1.9725,1.9725,1.9725,1.9725,1.9725,1.9725,1.9691,1.9366,1.9149,1.8979,1.8755,1.8474,1.8396,1.8362,1.8348,1.826,1.7886,1.773,1.7697,1.7453,1.7412,1.7453,1.7399,1.7633,1.7846,1.7692,1.7777,1.8307,1.8869,1.9177,1.9763,1.9727,1.9605,1.9484,1.9394,1.9337,1.9436,1.9452,1.9386,1.9378,1.9313,1.9289,1.9216,1.9004,1.8809,1.8639,1.8468,1.8412,1.833,1.8377,1.8781,1.8824,1.9137,1.9589,1.9987,2.0382,2.0866,2.1621,2.205,2.2389,2.2652,2.2963,2.3543,2.4226,2.4727,2.515,2.5839,2.6599,2.6632,2.6608,2.6572,2.6552,2.658,2.6965,2.7453,1.6281,1.6345,1.6345,1.6408,1.6472,1.6536,1.6536,1.6536,1.6536,1.6536,1.6467,1.5861,1.5565,1.5623,1.5565,1.5124,1.4676,1.4443,1.4322,1.4259,1.3781,1.3482,1.3361,1.3853,1.4595,1.4739,1.5236,1.5988,1.6788,1.7026,1.7697,1.8738,1.9353,1.9725,1.9725,1.9725,1.9725,1.9725,1.9725,1.9725,1.9725,1.9725,1.9725,1.9725,1.9725,1.9711,1.9664,1.9352,1.9128,1.8952,1.881,1.8654,1.8538,1.8504,1.843,1.8314,1.8158,1.8036,1.7941,1.7656,1.7507,1.7541,1.7419,1.7316,1.7602,1.8162,1.8408,1.8536,1.9334,1.9835,1.9965,2.0011,1.9833,1.9678,1.9557,1.9435,1.9402,1.95,1.9475,1.9386,1.9345,1.9183,1.9061,1.8874,1.8688,1.8525,1.8434,1.833,1.8282,1.832,1.8296,1.8379,1.8447,1.8765,1.8963,1.9299,1.9623,2.0289,2.047,2.0635,2.0902,2.1327,2.2118,2.2754,2.3264,2.4178,2.5184,2.5931,2.6482,2.6522,2.6223,2.6213,2.6278,2.689,2.7604,1.5508,1.5892,1.5892,1.6083,1.6472,1.6536,1.6536,1.6536,1.6536,1.6536,1.6462,1.6168,1.5914,1.5734,1.5908,1.5755,1.5209,1.4443,1.4086,1.402,1.3728,1.3514,1.3862,1.4632,1.5114,1.4929,1.5196,1.5497,1.6144,1.6971,1.7825,1.8495,1.8982,1.9353,1.9603,1.9725,1.9725,1.9725,1.9725,1.9725,1.9725,1.9725,1.9725,1.9725,1.9725,1.9617,1.9501,1.9332,1.9033,1.8796,1.8586,1.8443,1.8348,1.8355,1.8396,1.8393,1.8301,1.8138,1.7948,1.7697,1.767,1.7684,1.7623,1.7547,1.7874,1.8415,1.8963,1.9127,1.9537,1.9915,2.0171,2.0214,2.0068,1.9914,1.9784,1.9703,1.9605,1.9573,1.9581,1.9484,1.9378,1.9248,1.9094,1.8907,1.8761,1.8615,1.8444,1.8306,1.8257,1.8217,1.8184,1.819,1.8166,1.8234,1.8365,1.8517,1.8564,1.9001,1.8912,1.9112,1.9267,1.9786,2.0593,2.1091,2.149,2.2662,2.4258,2.465,2.4642,2.5171,2.5795,2.5781,2.5867,2.7068,2.7801,1.4287,1.4932,1.506,1.5508,1.5961,1.5961,1.5956,1.5956,1.5956,1.5956,1.5881,1.5663,1.5464,1.5329,1.5296,1.5071,1.4985,1.4414,1.3991,1.3886,1.4049,1.3977,1.4106,1.4891,1.5529,1.5586,1.5083,1.539,1.6144,1.6732,1.7337,1.8251,1.886,1.9103,1.9353,1.9597,1.9725,1.9725,1.9725,1.9725,1.9725,1.9725,1.9725,1.9725,1.9711,1.959,1.9434,1.9284,1.8993,1.862,1.8477,1.8355,1.8192,1.8314,1.8362,1.8389,1.8294,1.8165,1.7955,1.7779,1.7834,1.7998,1.8177,1.8321,1.856,1.904,1.9341,1.9526,1.9718,1.9963,2.0164,2.0312,2.0231,2.0125,2.0095,2.0047,1.9922,1.9817,1.9768,1.9786,1.9664,1.9427,1.9248,1.9021,1.885,1.8664,1.8533,1.8338,1.8298,1.829,1.8233,1.8217,1.816,1.8095,1.7965,1.7981,1.794,1.7949,1.7908,1.8033,1.848,1.8589,1.9046,1.9448,1.9962,2.0825,2.2238,2.25,2.2812,2.3625,2.4416,2.5003,2.5552,2.6742,2.7698,1.2945,1.3582,1.4095,1.4415,1.4607,1.4543,1.4607,1.4735,1.4666,1.4661,1.4642,1.3997,1.3525,1.3021,1.3573,1.3474,1.2614,1.3533,1.3496,1.3592,1.4076,1.3962,1.4039,1.4367,1.4924,1.454,1.4771,1.5614,1.6299,1.6427,1.6666,1.6904,1.8434,1.8927,1.9144,1.9347,1.961,1.9677,1.9684,1.9711,1.9718,1.9725,1.9725,1.9725,1.9711,1.959,1.9367,1.9278,1.8979,1.8488,1.847,1.8342,1.8186,1.8294,1.8335,1.8274,1.8267,1.8138,1.7955,1.7888,1.8115,1.8528,1.8863,1.898,1.9157,1.9486,1.9758,1.9801,1.999,2.0119,2.0268,2.032,2.0336,2.0263,2.0206,2.019,2.0093,1.9955,1.9914,2.0006,1.99,1.9654,1.9516,1.9305,1.8996,1.885,1.8704,1.8517,1.8558,1.8541,1.842,1.8347,1.8249,1.8095,1.7749,1.7757,1.7957,1.794,1.7875,1.7981,1.8234,1.8234,1.8264,1.8519,1.9172,1.9672,2.0121,2.0788,2.1486,2.2326,2.306,2.3742,2.4583,2.5627,2.6628,0.8757,0.9014,0.9268,1.1325,1.4415,1.4415,1.4415,1.4401,1.4348,1.432,1.4188,1.3962,1.3641,1.3425,1.3474,1.3549,1.3276,1.3204,1.3173,1.3265,1.3683,1.3867,1.4,1.4585,1.5413,1.5052,1.5355,1.5804,1.6544,1.6671,1.7032,1.7642,1.8312,1.8431,1.8689,1.9106,1.9401,1.9508,1.9529,1.9556,1.9718,1.9725,1.9725,1.9725,1.9725,1.9522,1.9325,1.9244,1.8884,1.8559,1.843,1.8267,1.8131,1.8233,1.8247,1.8192,1.8206,1.8111,1.8044,1.7846,1.7848,1.8101,1.8645,1.9335,1.9617,1.9769,2.0072,2.0218,2.0293,2.0325,2.0328,2.0418,2.0466,2.0377,2.0336,2.0328,2.0288,2.015,2.0076,2.0169,2.0079,1.9933,1.9752,1.963,1.9289,1.8988,1.8842,1.8744,1.8793,1.8785,1.8655,1.8566,1.8485,1.8387,1.8119,1.807,1.8046,1.7973,1.79,1.8046,1.82,1.8206,1.8261,1.8337,1.8394,1.8891,1.9307,1.9561,2.0343,2.1558,2.2159,2.2601,2.3538,2.4603,2.5443,0.6184,0.6184,0.6184,0.8371,1.1774,1.1971,1.1955,1.1987,1.1737,1.19,1.1959,1.2261,1.2617,1.2685,1.3259,1.3339,1.3142,1.3049,1.2974,1.319,1.3527,1.3716,1.4062,1.4513,1.4929,1.5315,1.5623,1.5871,1.7032,1.7282,1.7581,1.7825,1.8007,1.831,1.8602,1.8993,1.9305,1.9345,1.9373,1.94,1.9575,1.9563,1.9583,1.9583,1.9576,1.9461,1.9244,1.9088,1.8803,1.8477,1.8274,1.8172,1.8097,1.807,1.8124,1.8138,1.8138,1.8077,1.8031,1.8253,1.8307,1.9029,1.9578,2.0021,2.0105,2.0342,2.0617,2.0773,2.0661,2.0466,2.0434,2.0507,2.0547,2.0466,2.0385,2.0377,2.0442,2.0377,2.0312,2.0331,2.0174,2.0068,1.9914,1.9792,1.9622,1.9337,1.9216,1.9118,1.9094,1.9037,1.8899,1.8826,1.8769,1.8663,1.8597,1.8436,1.8322,1.8225,1.8176,1.8208,1.8328,1.8241,1.8296,1.8394,1.8418,1.8369,1.8596,1.9018,1.9929,2.1021,2.1468,2.1832,2.2816,2.3832,2.4266,0.5991,0.6184,0.5991,0.612,0.6564,0.644,0.6737,0.7272,0.7125,0.7055,0.7426,0.8643,0.9534,0.9929,1.1334,1.2017,1.243,1.2613,1.2705,1.2824,1.3249,1.3306,1.3371,1.3692,1.4377,1.4107,1.473,1.5899,1.7465,1.7093,1.7514,1.819,1.8434,1.8578,1.8706,1.9186,1.9292,1.923,1.921,1.923,1.9318,1.942,1.9468,1.9515,1.9481,1.9386,1.9176,1.8959,1.8667,1.8342,1.8186,1.8063,1.799,1.8036,1.805,1.7955,1.805,1.8072,1.7998,1.8964,1.9585,2.0113,2.0311,2.0952,2.1438,2.1484,2.1202,2.1165,2.0986,2.0759,2.0669,2.0596,2.0604,2.058,2.0507,2.0499,2.0572,2.0531,2.045,2.0393,2.0336,2.0247,2.0076,1.9938,1.9865,1.9711,1.9589,1.9492,1.9394,1.9281,1.9134,1.9004,1.8939,1.8793,1.8688,1.868,1.8598,1.854,1.8451,1.8426,1.8402,1.8353,1.8385,1.8467,1.8402,1.832,1.8402,1.8586,1.9784,2.0802,2.0803,2.1273,2.2217,2.2926,2.331,0.2063,0.2063,0.2063,0.2057,0.2498,0.508,0.6158,0.6174,0.6121,0.609,0.6204,0.6851,0.7919,0.893,0.9586,1.0579,1.1746,1.1923,1.2136,1.2263,1.2872,1.2929,1.3051,1.3414,1.4027,1.4404,1.4893,1.5494,1.6971,1.6782,1.7215,1.7886,1.8456,1.8803,1.8946,1.9157,1.9094,1.9067,1.9081,1.9149,1.9325,1.94,1.9474,1.9556,1.9474,1.9312,1.9094,1.8871,1.8565,1.8267,1.8124,1.8009,1.7976,1.8009,1.805,1.8002,1.8133,1.8239,1.8551,1.9224,1.9663,2.0106,2.0622,2.1163,2.1245,2.155,2.1483,2.1392,2.1213,2.0986,2.0869,2.0828,2.082,2.082,2.0787,2.0734,2.0751,2.0621,2.0523,2.0483,2.0434,2.0344,2.0206,2.0125,2.0052,1.9987,1.9857,1.9662,1.954,1.9459,1.9345,1.9175,1.9053,1.8899,1.8801,1.8801,1.8615,1.8442,1.8434,1.8475,1.8442,1.8377,1.841,1.8442,1.8353,1.828,1.8592,1.9042,1.9893,2.055,2.0831,2.1118,2.1925,2.2287,2.2258,0.071,0.071,0.045,0.0321,0.0703,0.3012,0.4023,0.4045,0.3933,0.3917,0.4044,0.4517,0.551,0.6706,0.773,0.8931,1.0662,1.0781,1.1587,1.171,1.2504,1.2745,1.2985,1.3448,1.4029,1.4593,1.4892,1.543,1.6582,1.668,1.7148,1.7684,1.8035,1.8186,1.8456,1.8721,1.9061,1.9033,1.9027,1.9074,1.9237,1.9359,1.9474,1.9495,1.942,1.9257,1.904,1.8782,1.8511,1.8267,1.8104,1.8016,1.7975,1.8031,1.8078,1.8065,1.8281,1.8427,1.8878,1.9456,1.9848,2.0191,2.0596,2.1074,2.1459,2.18,2.1734,2.1611,2.1416,2.1197,2.1027,2.1048,2.1007,2.1007,2.095,2.095,2.0901,2.0726,2.0645,2.0604,2.0523,2.0426,2.0276,2.026,2.0247,2.019,2.0117,1.9906,1.9711,1.9638,1.9565,1.9419,1.9289,1.9191,1.9053,1.8988,1.8744,1.8385,1.8434,1.8565,1.8385,1.8312,1.8369,1.8402,1.8312,1.8406,1.8984,1.9589,2.0369,2.0979,2.1355,2.1598,2.1857,2.183,2.1763,0.2065,0.1998,0.1344,0.1021,0.0957,0.07,0.0,0.0,0.0,0.0,0.0,0.2349,0.3341,0.3604,0.5068,0.7086,0.8931,0.9177,1.0409,1.1645,1.2561,1.2745,1.3024,1.3471,1.4071,1.4461,1.4754,1.526,1.6312,1.6395,1.6875,1.7387,1.7344,1.748,1.7835,1.8253,1.8707,1.8738,1.8961,1.9061,1.9169,1.9312,1.944,1.9461,1.9373,1.9264,1.9047,1.8749,1.8531,1.8321,1.8138,1.805,1.7989,1.8004,1.7963,1.8108,1.8516,1.8753,1.9122,1.9659,2.0286,2.0788,2.1587,2.2163,2.2269,2.2172,2.2066,2.1912,2.1741,2.149,2.1278,2.1213,2.1157,2.1092,2.1056,2.1024,2.0991,2.0864,2.0791,2.0718,2.0621,2.0515,2.0308,2.0268,2.0361,2.0288,2.0223,2.0166,1.9979,1.9841,1.9776,1.9687,1.9581,1.9574,1.942,1.92,1.8964,1.8646,1.863,1.8695,1.8475,1.8312,1.8361,1.8377,1.8271,1.8579,1.9375,2.0084,2.0818,2.1299,2.1735,2.1759,2.1915,2.1763,2.1669,0.2129,0.2063,0.1857,0.1463,0.0948,0.025,0.0,0.0,0.0,0.0,0.0,0.0,0.1669,0.3029,0.3641,0.5855,0.7701,0.9238,1.0655,1.1759,1.2622,1.3051,1.3405,1.3683,1.4166,1.4527,1.4826,1.5094,1.5746,1.5977,1.628,1.6668,1.6643,1.6823,1.7197,1.7563,1.7856,1.8229,1.8608,1.8865,1.8991,1.9159,1.9287,1.9327,1.924,1.9139,1.8924,1.8655,1.8484,1.8292,1.821,1.8165,1.7963,1.8126,1.8278,1.865,1.8858,1.9074,1.9467,2.0145,2.0759,2.1195,2.1823,2.2228,2.2383,2.2449,2.2277,2.2123,2.2017,2.179,2.1628,2.1555,2.1481,2.14,2.1374,2.1317,2.1213,2.1092,2.101,2.0889,2.0791,2.0572,2.0418,2.0393,2.0418,2.0361,2.032,2.0312,2.0231,2.0085,1.9979,1.9898,1.98,1.9719,1.9532,1.9313,1.911,1.8923,1.8939,1.885,1.8662,1.8524,1.8403,1.8449,1.8527,1.9114,1.9889,2.057,2.1126,2.1664,2.211,2.2008,2.1905,2.1745,2.1584,0.2886,0.2749,0.2221,0.1449,0.0625,0.0,0.0,0.0,0.0,0.0,0.0,0.0,0.0679,0.1542,0.1913,0.3452,0.6222,0.7271,0.8747,1.0651,1.2683,1.3051,1.348,1.3936,1.4324,1.4644,1.4821,1.5007,1.5492,1.5592,1.5756,1.6175,1.6021,1.6175,1.6401,1.6704,1.6861,1.7336,1.7829,1.8325,1.8555,1.8673,1.8829,1.8936,1.8784,1.8647,1.8483,1.8281,1.8076,1.7947,1.7944,1.7934,1.7837,1.814,1.8283,1.8657,1.9081,1.9345,1.9759,2.0575,2.1024,2.1422,2.1808,2.2155,2.2367,2.2432,2.2326,2.2204,2.2172,2.2107,2.2009,2.192,2.1839,2.1766,2.1701,2.1636,2.1498,2.1352,2.1222,2.1092,2.0897,2.0669,2.0547,2.0523,2.0507,2.0499,2.0515,2.0531,2.0426,2.0271,2.0174,2.0101,1.9987,1.9873,1.9687,1.9532,1.937,1.9216,1.9167,1.9053,1.8866,1.8809,1.8793,1.8822,1.8936,1.9538,2.0194,2.0753,2.1314,2.1888,2.2283,2.2141,2.1934,2.1697,2.1574,0.4067,0.3851,0.2567,0.1369,0.0247,0.0,0.0,0.0,0.0,0.0,0.0,0.0,0.0,0.0,0.0,0.0,0.4067,0.5791,0.7883,0.93,1.2618,1.373,1.3946,1.4127,1.4745,1.4765,1.481,1.52,1.5341,1.5418,1.5565,1.5761,1.5374,1.5431,1.5665,1.5936,1.6063,1.6209,1.6774,1.724,1.7486,1.758,1.7697,1.7806,1.7714,1.7585,1.7419,1.7268,1.7098,1.7314,1.742,1.7491,1.7643,1.7876,1.8026,1.8488,1.9075,1.9771,2.0256,2.0993,2.147,2.1727,2.1896,2.2164,2.2334,2.2456,2.2367,2.2318,2.2277,2.2245,2.2164,2.2123,2.2066,2.1977,2.1896,2.1831,2.1733,2.1563,2.1368,2.123,2.1043,2.0815,2.0686,2.0653,2.0661,2.0661,2.0669,2.0755,2.0645,2.0474,2.0361,2.0296,2.0166,2.0052,1.9971,1.9817,1.9678,1.9582,1.9493,1.9297,1.9167,1.9175,1.9159,1.9158,1.924,1.9762,2.0338,2.1015,2.1685,2.2144,2.2378,2.2227,2.2028,2.1849,2.1707,0.3984,0.3847,0.2567,0.1802,0.142,0.0432,0.0,0.0,0.0,0.0,0.0,0.0,0.0,0.0,0.0,0.1049,0.2959,0.542,0.7942,1.0279,1.3047,1.4404,1.4832,1.4918,1.5329,1.5528,1.5523,1.5491,1.5613,1.5548,1.5494,1.5636,1.5287,1.5222,1.526,1.5451,1.5373,1.5404,1.5765,1.6501,1.7091,1.7386,1.7581,1.7593,1.7575,1.7381,1.7302,1.7222,1.7126,1.7098,1.6931,1.6902,1.6903,1.7311,1.7947,1.8657,1.9134,1.9938,2.0707,2.1295,2.1702,2.1928,2.2066,2.2204,2.2326,2.2415,2.2456,2.2424,2.2399,2.2375,2.235,2.2326,2.2285,2.2188,2.205,2.1993,2.1936,2.1733,2.1514,2.136,2.1181,2.1027,2.0889,2.0877,2.0869,2.0869,2.0861,2.0869,2.0877,2.0718,2.0547,2.0458,2.0328,2.0231,2.0174,2.0093,1.9946,1.9938,1.9898,1.9727,1.9516,1.9475,1.946,1.9461,1.9562,2.0204,2.084,2.1536,2.2124,2.2489,2.2595,2.2501,2.2472,2.234,2.2151,0.3949,0.3811,0.255,0.1673,0.105,0.0309,0.0,0.0,0.0,0.0,0.0,0.0,0.0,0.0,0.0,0.0,0.0,0.5418,0.714,0.9539,1.2863,1.4281,1.5016,1.5327,1.5255,1.5388,1.5694,1.5738,1.58,1.5701,1.5554,1.5543,1.5363,1.5233,1.5152,1.5113,1.5043,1.5048,1.5238,1.5747,1.6536,1.6688,1.6756,1.6843,1.6831,1.6811,1.6604,1.6477,1.6462,1.6465,1.6486,1.6578,1.672,1.7155,1.7678,1.8357,1.9079,1.9994,2.0776,2.1391,2.1775,2.1929,2.2115,2.2229,2.2545,2.2643,2.2667,2.2651,2.2716,2.2708,2.2667,2.2635,2.2562,2.2464,2.2156,2.1936,2.1888,2.179,2.1709,2.1684,2.1506,2.1327,2.126,2.1186,2.1162,2.1019,2.1002,2.1002,2.0994,2.1024,2.0799,2.0653,2.0547,2.0458,2.0409,2.0328,2.0206,2.0239,2.0255,2.0052,1.9867,1.9835,1.9788,1.9833,2.0149,2.0776,2.1479,2.2002,2.2447,2.2734,2.2831,2.2822,2.2812,2.2822,2.2727,0.3968,0.3699,0.2526,0.1356,0.0309,0.0062,0.0,0.0,0.0,0.0,0.0,0.0,0.0,0.0,0.0,0.0,0.0,0.0,0.6953,0.8738,1.2675,1.4276,1.4771,1.471,1.4954,1.5266,1.5571,1.5755,1.581,1.5729,1.5613,1.5559,1.5429,1.5276,1.5238,1.5087,1.5022,1.5113,1.5222,1.5304,1.5505,1.5608,1.5878,1.5861,1.5783,1.5669,1.5461,1.5439,1.5521,1.5773,1.6102,1.6266,1.6527,1.6927,1.7466,1.8114,1.9069,1.9745,2.0323,2.1174,2.1534,2.1856,2.2082,2.2334,2.2577,2.2765,2.2797,2.2846,2.2911,2.2927,2.2886,2.287,2.2789,2.2659,2.2285,2.1993,2.1961,2.1904,2.1912,2.1944,2.179,2.1611,2.153,2.1449,2.1352,2.1262,2.1213,2.1222,2.1213,2.1165,2.1067,2.0937,2.0832,2.0742,2.0621,2.0547,2.0442,2.0304,2.0279,2.0234,2.0188,2.0227,2.0291,2.0341,2.0727,2.1334,2.1722,2.2199,2.2585,2.2983,2.3124,2.3172,2.3172,2.319,2.3234,0.3918,0.379,0.2446,0.1718,0.1418,0.0494,0.0,0.0,0.0,0.0,0.0,0.0,0.0,0.0,0.0,0.0,0.0,0.548,0.726,0.8612,1.2858,1.4582,1.5138,1.5016,1.5199,1.546,1.571,1.576,1.5849,1.5816,1.5755,1.5782,1.5608,1.5526,1.5565,1.5407,1.5184,1.5206,1.526,1.5363,1.5407,1.5537,1.5712,1.5734,1.5718,1.5592,1.5407,1.5298,1.5227,1.534,1.5715,1.593,1.624,1.6707,1.732,1.8055,1.9023,1.9541,2.0167,2.0906,2.1318,2.1585,2.1844,2.2261,2.2504,2.2724,2.2765,2.2813,2.2862,2.2886,2.2878,2.2935,2.2895,2.2757,2.248,2.2375,2.231,2.2188,2.2099,2.2074,2.1985,2.1863,2.179,2.1684,2.1602,2.1449,2.1343,2.1352,2.1368,2.1343,2.1311,2.1238,2.1132,2.0856,2.0669,2.0734,2.0653,2.0474,2.034,2.0441,2.0513,2.0661,2.0748,2.084,2.123,2.1818,2.2158,2.2488,2.2757,2.3115,2.3398,2.3521,2.3512,2.3483,2.3441]},{"header":{"parameterUnit":"m.s-1","parameterCategory":1,"la1":31.0,"la2":29.5877,"lo1":-88.7671,"lo2":-86.6584,"dy":0.0162,"dx":0.0185,"nx":115,"ny":88,"refTime":"2023-10-08T18:00:00:Z","depth":0,"parameterNumber":3,"parameterNumberName":"V-component_of_WINDS"},"data":[0.0,0.0,0.0,0.0,0.0,0.0,0.0,0.0,0.0,0.0,0.0,0.0,0.0,0.0,0.0,0.0,0.0,0.0,0.0,0.0,0.0,0.0,0.0,0.0,0.0,0.0,0.0,0.0,0.0,0.0,0.0,0.0,0.0,0.0,0.0,0.0,0.0,0.0,0.0,0.0,0.0,0.0,0.0,0.0,0.0,0.0,0.0,0.0,0.0,0.0,0.0,0.0,0.0,0.0,0.0,0.0,0.0,0.0,0.0,0.0,0.0,0.0,0.0,0.0,0.0,0.0,0.0,0.0,0.0,0.0,0.0,0.0,0.0,0.0,0.0,0.0,0.0,0.0,0.0,0.0,0.0,0.0,0.0,0.0,0.0,0.0,0.0,0.0,0.0,0.0,0.0,0.0,0.0,0.0,0.0,0.0,0.0,0.0,0.0,0.0,0.0,0.0,0.0,0.0,0.0,0.0,0.0,0.0,0.0,0.0,0.0,0.0,0.0,0.0,0.0,0.0,0.0,0.0,0.0,0.0,0.0,0.0,0.0,0.0,0.0,0.0,0.0,0.0,0.0,0.0,0.0,0.0,0.0,0.0,0.0,0.0,0.0,0.0,0.0,0.0,0.0,0.0,0.0,0.0,0.0,0.0,0.0,0.0,0.0,0.0,0.0,0.0,0.0,0.0,0.0,0.0,0.0,0.0,0.0,0.0,0.0,0.0,0.0,0.0,0.0,0.0,0.0,0.0,0.0,0.0,0.0,0.0,0.0,0.0,0.0,0.0,0.0,0.0,0.0,0.0,0.0,0.0,0.0,0.0,0.0,0.0,0.0,0.0,0.0,0.0,0.0,0.0,0.0,0.0,0.0,0.0,0.0,0.0,0.0,0.0,0.0,0.0,0.0,0.0,0.0,0.0,0.0,0.0,0.0,0.0,0.0,0.0,0.0,0.0,0.0,0.0,0.0,0.0,0.0,0.0,0.0,0.0,0.0,0.0,0.0,0.0,0.0,0.0,0.0,0.0,0.0,0.0,0.0,0.0,0.0,0.0,0.0,0.0,0.0,0.0,0.0,0.0,0.0,0.0,0.0,0.0,0.0,0.0,0.0,0.0,0.0,0.0,0.0,0.0,0.0,0.0,0.0,0.0,0.0,0.0,0.0,0.0,0.0,0.0,0.0,0.0,0.0,0.0,0.0,0.0,0.0,0.0,0.0,0.0,0.0,0.0,0.0,0.0,0.0,0.0,0.0,0.0,0.0,0.0,0.0,0.0,0.0,0.0,0.0,0.0,0.0,0.0,0.0,0.0,0.0,0.0,0.0,0.0,0.0,0.0,0.0,0.0,0.0,0.0,0.0,0.0,0.0,0.0,0.0,0.0,0.0,0.0,0.0,0.0,0.0,0.0,0.0,0.0,0.0,0.0,0.0,0.0,0.0,0.0,0.0,0.0,0.0,0.0,0.0,0.0,0.0,0.0,0.0,0.0,0.0,0.0,0.0,0.0,0.0,0.0,0.0,0.0,0.0,0.0,0.0,0.0,0.0,0.0,0.0,0.0,0.0,0.0,0.0,0.0,0.0,0.0,0.0,0.0,0.0,0.0,0.0,0.0,0.0,0.0,0.0,0.0,0.0,0.0,0.0,0.0,0.0,0.0,0.0,0.0,0.0,0.0,0.0,0.0,0.0,0.0,0.0,0.0,0.0,0.0,0.0,0.0,0.0,0.0,0.0,0.0,0.0,0.0,0.0,0.0,0.0,0.0,0.0,0.0,0.0,0.0,0.0,0.0,0.0,0.0,0.0,0.0,0.0,0.0,0.0,0.0,0.0,0.0,0.0,0.0,0.0,0.0,0.0,0.0,0.0,0.0,0.0,0.0,0.0,0.0,0.0,0.0,0.0,0.0,0.0,0.0,0.0,0.0,0.0,0.0,0.0,0.0,0.0,0.0,0.0,0.0,0.0,0.0,0.0,0.0,0.0,0.0,0.0,0.0,0.0,0.0,0.0,0.0,0.0,0.0,0.0,0.0,0.0,0.0,0.0,0.0,0.0,0.0,0.0,0.0,0.0,0.0,0.0,0.0,0.0,0.0,0.0,0.0,0.0,0.0,0.0,0.0,0.0,0.0,0.0,0.0,0.0,0.0,0.0,0.0,0.0,0.0,0.0,0.0,0.0,0.0,0.0,0.0,0.0,0.0,0.0,0.0,0.0,0.0,0.0,0.0,0.0,0.0,0.0,0.0,0.0,0.0,0.0,0.0,0.0,0.0,0.0,0.0,0.0,0.0,0.0,0.0,0.0,0.0,0.0,0.0,0.0,0.0,0.0,0.0,0.0,0.0,0.0,0.0,0.0,0.0,0.0,0.0,0.0,0.0,0.0,0.0,0.0,0.0,0.0,0.0,0.0,0.0,0.0,0.0,0.0,0.0,0.0,0.0,0.0,0.0,0.0,0.0,0.0,0.0,0.0,0.0,0.0,0.0,0.0,0.0,0.0,0.0,0.0,0.0,0.0,0.0,0.0,0.0,0.0,0.0,0.0,0.0,0.0,0.0,0.0,0.0,0.0,0.0,0.0,0.0,0.0,0.0,0.0,0.0,0.0,0.0,0.0,0.0,0.0,0.0,0.0,0.0,0.0,0.0,0.0,0.0,0.0,0.0,0.0,0.0,0.0,0.0,0.0,0.0,0.0,0.0,0.0,0.0,0.0,0.0,0.0,0.0,0.0,0.0,0.0,0.0,0.0,0.0,0.0,0.0,0.0,0.0,0.0,0.0,0.0,0.0,0.0,0.0,0.0,0.0,0.0,0.0,0.0,0.0,0.0,0.0,0.0,0.0,0.0,0.0,0.0,0.0,0.0,0.0,0.0,0.0,0.0,0.0,0.0,0.0,0.0,0.0,0.0,0.0,0.0,0.0,0.0,0.0,0.0,0.0,0.0,0.0,0.0,0.0,0.0,0.0,0.0,0.0,0.0,0.0,0.0,0.0,0.0,0.0,0.0,0.0,0.0,0.0,0.0,0.0,0.0,0.0,0.0,0.0,0.0,0.0,0.0,0.0,0.0,0.0,0.0,0.0,0.0,0.0,0.0,0.0,0.0,0.0,0.0,0.0,0.0,0.0,0.0,0.0,0.0,0.0,0.0,0.0,0.0,0.0,0.0,0.0,0.0,0.0,0.0,0.0,0.0,0.0,0.0,0.0,0.0,0.0,0.0,0.0,0.0,0.0,0.0,0.0,0.0,0.0,0.0,0.0,0.0,0.0,0.0,0.0,0.0,0.0,0.0,0.0,0.0,0.0,0.0,0.0,0.0,0.0,0.0,0.0,0.0,0.0,0.0,0.0,0.0,0.0,0.0,0.0,0.0,0.0,0.0,0.0,0.0,0.0,0.0,0.0,0.0,0.0,0.0,0.0,0.0,0.0,0.0,0.0,0.0,0.0,0.0,0.0,0.0,0.0,0.0,0.0,0.0,0.0,0.0,0.0,0.0,0.0,0.0,0.0,0.0,0.0,0.0,0.0,0.0,0.0,0.0,0.0,0.0,0.0,0.0,0.0,0.0,0.0,0.0,0.0,0.0,0.0,0.0,0.0,0.0,0.0,0.0,0.0,0.0,0.0,0.0,0.0,0.0,0.0,0.0,0.0,0.0,0.0,0.0,0.0,0.0,0.0,0.0,0.0,0.0,0.0,0.0,0.0,0.0,0.0,0.0,0.0,0.0,0.0,0.0,0.0,0.0,0.0,0.0,0.0,0.0,0.0,0.0,0.0,0.0,0.0,0.0,0.0,0.0,0.0,0.0,0.0,0.0,0.0,0.0,0.0,0.0,0.0,0.0,0.0,0.0,0.0,0.0,0.0,0.0,0.0,0.0,0.0,0.0,0.0,0.0,0.0,0.0,0.0,0.0,0.0,0.0,0.0,0.0,0.0,0.0,0.0,0.0,0.0,0.0,0.0,0.0,0.0,0.0,0.0,0.0,0.0,0.0,0.0,0.0,0.0,0.0,0.0,0.0,0.0,0.0,0.0,0.0,0.0,0.0,0.0,0.0,0.0,0.0,0.0,0.0,0.0,0.0,0.0,0.0,0.0,0.0,0.0,0.0,0.0,0.0,0.0,0.0,0.0,0.0,0.0,0.0,0.0,0.0,0.0,0.0,0.0,0.0,0.0,0.0,0.0,0.0,0.0,0.0,0.0,0.0,0.0,0.0,0.0,0.0,0.0,0.0,0.0,0.0,0.0,0.0,0.0,0.0,0.0,0.0,0.0,0.0,0.0,0.0,0.0,0.0,0.0,4.6521,0.0,0.0,0.0,0.0,0.0,0.0,0.0,0.0,0.0,0.0,0.0,0.0,0.0,0.0,0.0,0.0,0.0,0.0,0.0,0.0,0.0,0.0,0.0,0.0,0.0,0.0,0.0,0.0,0.0,0.0,0.0,0.0,0.0,0.0,0.0,0.0,0.0,0.0,0.0,0.0,0.0,0.0,0.0,0.0,0.0,0.0,0.0,0.0,0.0,0.0,0.0,0.0,0.0,0.0,0.0,0.0,0.0,0.0,0.0,0.0,0.0,0.0,0.0,0.0,0.0,0.0,0.0,0.0,0.0,0.0,0.0,0.0,0.0,0.0,0.0,0.0,0.0,0.0,0.0,0.0,0.0,0.0,0.0,0.0,0.0,0.0,0.0,0.0,0.0,0.0,0.0,0.0,0.0,0.0,0.0,0.0,0.0,0.0,0.0,0.0,0.0,0.0,0.0,0.0,0.0,0.0,0.0,0.0,0.0,0.0,4.7695,4.7733,4.7694,4.7695,4.7695,0.0,0.0,0.0,0.0,0.0,0.0,0.0,0.0,0.0,0.0,0.0,0.0,0.0,0.0,0.0,0.0,0.0,0.0,0.0,0.0,0.0,0.0,0.0,0.0,0.0,0.0,0.0,0.0,0.0,0.0,0.0,0.0,0.0,0.0,0.0,0.0,0.0,0.0,0.0,0.0,0.0,0.0,0.0,0.0,0.0,0.0,0.0,0.0,0.0,0.0,0.0,0.0,0.0,0.0,0.0,0.0,0.0,0.0,0.0,0.0,0.0,0.0,0.0,0.0,0.0,0.0,0.0,0.0,0.0,0.0,0.0,0.0,0.0,0.0,0.0,0.0,0.0,0.0,0.0,0.0,0.0,0.0,0.0,0.0,0.0,0.0,0.0,0.0,0.0,0.0,0.0,0.0,0.0,0.0,0.0,0.0,0.0,0.0,0.0,0.0,0.0,0.0,0.0,0.0,0.0,0.0,0.0,0.0,0.0,0.0,0.0,0.0,4.8972,4.8936,4.9097,0.0,0.0,0.0,0.0,0.0,0.0,0.0,0.0,0.0,0.0,0.0,0.0,0.0,0.0,0.0,0.0,0.0,0.0,0.0,0.0,0.0,0.0,0.0,0.0,0.0,0.0,0.0,0.0,0.0,0.0,0.0,0.0,0.0,0.0,0.0,0.0,0.0,0.0,0.0,0.0,0.0,0.0,0.0,0.0,0.0,0.0,0.0,0.0,0.0,0.0,0.0,0.0,0.0,0.0,0.0,0.0,0.0,0.0,0.0,0.0,0.0,0.0,0.0,0.0,0.0,0.0,0.0,0.0,0.0,0.0,0.0,0.0,0.0,0.0,0.0,0.0,0.0,0.0,0.0,0.0,0.0,0.0,0.0,0.0,0.0,0.0,0.0,0.0,0.0,0.0,0.0,0.0,0.0,0.0,0.0,0.0,0.0,0.0,0.0,0.0,0.0,0.0,0.0,0.0,0.0,0.0,0.0,0.0,0.0,0.0,5.0008,4.997,4.9228,0.0,4.9906,0.0,0.0,0.0,0.0,0.0,0.0,0.0,0.0,0.0,0.0,0.0,0.0,0.0,0.0,0.0,0.0,0.0,0.0,0.0,0.0,0.0,0.0,0.0,0.0,0.0,0.0,0.0,0.0,0.0,0.0,0.0,0.0,0.0,0.0,0.0,0.0,0.0,0.0,0.0,0.0,0.0,0.0,0.0,0.0,0.0,0.0,0.0,0.0,0.0,0.0,0.0,0.0,0.0,0.0,0.0,0.0,0.0,0.0,0.0,0.0,0.0,0.0,0.0,0.0,0.0,0.0,0.0,0.0,0.0,0.0,0.0,0.0,0.0,0.0,0.0,0.0,0.0,0.0,0.0,0.0,0.0,0.0,0.0,0.0,0.0,0.0,0.0,0.0,0.0,0.0,0.0,0.0,0.0,0.0,0.0,0.0,0.0,0.0,0.0,0.0,0.0,0.0,0.0,0.0,0.0,0.0,0.0,0.0,0.0,0.0,5.135,5.0884,5.0533,5.0773,0.0,0.0,0.0,0.0,0.0,0.0,0.0,0.0,0.0,0.0,0.0,0.0,0.0,0.0,0.0,0.0,0.0,0.0,0.0,0.0,0.0,0.0,0.0,0.0,0.0,0.0,0.0,0.0,0.0,0.0,0.0,0.0,0.0,0.0,0.0,0.0,0.0,0.0,0.0,0.0,0.0,0.0,0.0,0.0,0.0,0.0,0.0,0.0,0.0,0.0,0.0,0.0,0.0,0.0,0.0,0.0,0.0,0.0,0.0,0.0,0.0,0.0,0.0,0.0,0.0,0.0,0.0,0.0,0.0,0.0,0.0,0.0,0.0,0.0,0.0,0.0,0.0,0.0,0.0,0.0,0.0,0.0,0.0,0.0,0.0,0.0,0.0,0.0,0.0,0.0,0.0,0.0,0.0,0.0,0.0,0.0,0.0,0.0,0.0,0.0,0.0,0.0,0.0,0.0,0.0,0.0,0.0,0.0,0.0,0.0,5.3022,5.2166,5.1432,5.1359,5.164,5.2279,0.0,0.0,0.0,0.0,0.0,0.0,0.0,0.0,0.0,0.0,0.0,0.0,0.0,0.0,0.0,0.0,0.0,0.0,0.0,0.0,0.0,0.0,0.0,0.0,0.0,0.0,0.0,0.0,0.0,0.0,0.0,0.0,0.0,0.0,0.0,0.0,0.0,0.0,0.0,0.0,0.0,0.0,0.0,0.0,0.0,0.0,0.0,0.0,0.0,0.0,0.0,0.0,0.0,0.0,0.0,0.0,0.0,0.0,0.0,0.0,0.0,0.0,0.0,0.0,0.0,0.0,0.0,0.0,0.0,0.0,0.0,0.0,0.0,0.0,0.0,0.0,0.0,0.0,0.0,0.0,0.0,0.0,0.0,0.0,0.0,0.0,0.0,0.0,0.0,0.0,0.0,0.0,0.0,0.0,0.0,0.0,0.0,0.0,0.0,0.0,0.0,0.0,0.0,0.0,0.0,0.0,0.0,0.0,5.3789,5.2972,5.2125,5.1371,5.1312,5.1322,0.0,0.0,0.0,0.0,0.0,0.0,0.0,0.0,0.0,0.0,0.0,0.0,0.0,0.0,0.0,0.0,0.0,0.0,0.0,0.0,0.0,0.0,0.0,0.0,0.0,0.0,0.0,0.0,0.0,0.0,0.0,0.0,0.0,0.0,0.0,0.0,0.0,0.0,0.0,0.0,0.0,0.0,0.0,0.0,0.0,0.0,0.0,0.0,0.0,0.0,0.0,0.0,0.0,0.0,0.0,0.0,0.0,0.0,0.0,0.0,0.0,0.0,0.0,0.0,0.0,0.0,0.0,0.0,0.0,0.0,0.0,0.0,0.0,0.0,0.0,0.0,0.0,0.0,0.0,0.0,0.0,0.0,0.0,0.0,0.0,0.0,0.0,0.0,0.0,0.0,0.0,0.0,0.0,0.0,0.0,0.0,0.0,0.0,0.0,0.0,0.0,0.0,0.0,0.0,0.0,0.0,0.0,0.0,0.0,5.4638,5.3776,5.3195,5.2933,5.2901,5.2906,0.0,0.0,0.0,0.0,0.0,0.0,0.0,0.0,0.0,0.0,0.0,0.0,0.0,0.0,0.0,0.0,0.0,0.0,0.0,0.0,0.0,0.0,0.0,0.0,0.0,0.0,0.0,0.0,0.0,0.0,0.0,0.0,0.0,0.0,0.0,0.0,0.0,0.0,0.0,0.0,0.0,0.0,0.0,0.0,0.0,0.0,0.0,0.0,0.0,0.0,0.0,0.0,0.0,0.0,0.0,0.0,0.0,0.0,0.0,0.0,0.0,0.0,0.0,0.0,0.0,0.0,0.0,0.0,0.0,0.0,0.0,0.0,0.0,0.0,0.0,0.0,0.0,0.0,0.0,0.0,0.0,0.0,0.0,0.0,0.0,0.0,0.0,0.0,0.0,0.0,0.0,0.0,0.0,0.0,0.0,0.0,0.0,0.0,0.0,0.0,0.0,0.0,0.0,0.0,0.0,0.0,0.0,0.0,0.0,5.4618,0.0,5.3754,5.3716,5.3716,5.3754,0.0,0.0,0.0,0.0,0.0,0.0,0.0,0.0,0.0,0.0,0.0,0.0,0.0,0.0,0.0,0.0,0.0,0.0,0.0,0.0,0.0,0.0,0.0,0.0,0.0,0.0,0.0,0.0,0.0,0.0,0.0,0.0,0.0,0.0,0.0,0.0,0.0,0.0,0.0,0.0,0.0,0.0,0.0,0.0,0.0,0.0,0.0,0.0,0.0,0.0,0.0,0.0,0.0,0.0,0.0,0.0,0.0,0.0,0.0,0.0,0.0,0.0,0.0,0.0,0.0,0.0,0.0,0.0,0.0,0.0,0.0,0.0,0.0,0.0,0.0,0.0,0.0,0.0,0.0,0.0,0.0,0.0,0.0,0.0,0.0,0.0,0.0,0.0,0.0,0.0,0.0,0.0,0.0,0.0,0.0,0.0,0.0,0.0,0.0,0.0,0.0,0.0,0.0,0.0,0.0,0.0,0.0,0.0,5.3695,5.3659,5.3702,5.3744,5.3617,5.3702,5.3663,0.0,0.0,0.0,0.0,0.0,0.0,0.0,0.0,0.0,0.0,0.0,0.0,0.0,0.0,0.0,0.0,0.0,0.0,0.0,0.0,0.0,0.0,0.0,0.0,0.0,0.0,0.0,0.0,0.0,0.0,0.0,0.0,0.0,0.0,0.0,0.0,0.0,0.0,0.0,0.0,0.0,0.0,0.0,0.0,0.0,0.0,0.0,0.0,0.0,0.0,0.0,0.0,0.0,0.0,0.0,0.0,0.0,0.0,0.0,0.0,0.0,0.0,0.0,0.0,0.0,0.0,0.0,0.0,0.0,0.0,0.0,0.0,0.0,0.0,0.0,0.0,0.0,0.0,0.0,0.0,0.0,0.0,0.0,0.0,0.0,0.0,0.0,0.0,0.0,0.0,0.0,0.0,0.0,0.0,0.0,0.0,0.0,0.0,0.0,0.0,0.0,0.0,0.0,0.0,0.0,0.0,0.0,0.0,0.0,5.54,5.5404,5.5404,5.5404,5.5404,5.535,0.0,0.0,0.0,0.0,0.0,0.0,0.0,0.0,0.0,0.0,0.0,0.0,0.0,0.0,0.0,0.0,0.0,0.0,0.0,0.0,0.0,0.0,0.0,0.0,0.0,0.0,0.0,0.0,0.0,0.0,0.0,0.0,0.0,0.0,0.0,0.0,0.0,0.0,0.0,0.0,0.0,0.0,0.0,0.0,0.0,0.0,0.0,0.0,0.0,0.0,0.0,0.0,0.0,0.0,0.0,0.0,0.0,0.0,0.0,0.0,0.0,0.0,0.0,0.0,0.0,0.0,0.0,0.0,0.0,0.0,0.0,0.0,0.0,0.0,0.0,0.0,0.0,0.0,0.0,0.0,0.0,0.0,0.0,0.0,0.0,0.0,0.0,0.0,0.0,0.0,0.0,0.0,0.0,0.0,0.0,0.0,0.0,0.0,0.0,0.0,0.0,0.0,0.0,0.0,0.0,0.0,0.0,0.0,0.0,5.6462,5.6227,5.6105,5.6089,5.6101,5.608,5.5981,0.0,0.0,0.0,0.0,0.0,0.0,0.0,0.0,0.0,0.0,0.0,0.0,0.0,0.0,0.0,0.0,0.0,0.0,0.0,0.0,0.0,0.0,0.0,0.0,0.0,0.0,0.0,0.0,0.0,0.0,0.0,0.0,0.0,0.0,0.0,0.0,0.0,0.0,0.0,0.0,0.0,0.0,0.0,0.0,0.0,0.0,0.0,0.0,0.0,0.0,0.0,0.0,0.0,0.0,0.0,0.0,0.0,0.0,0.0,0.0,0.0,0.0,0.0,0.0,0.0,0.0,0.0,0.0,0.0,0.0,0.0,0.0,0.0,0.0,0.0,0.0,0.0,0.0,0.0,0.0,0.0,0.0,0.0,0.0,0.0,0.0,0.0,0.0,0.0,0.0,0.0,0.0,0.0,0.0,0.0,0.0,0.0,0.0,0.0,0.0,0.0,0.0,0.0,0.0,0.0,0.0,0.0,0.0,5.686,5.6385,5.6044,5.5895,5.5938,5.5953,0.0,0.0,0.0,0.0,0.0,0.0,0.0,0.0,0.0,0.0,0.0,0.0,0.0,0.0,0.0,0.0,0.0,0.0,0.0,0.0,0.0,0.0,0.0,0.0,0.0,0.0,0.0,0.0,0.0,0.0,0.0,0.0,0.0,0.0,0.0,0.0,0.0,0.0,0.0,0.0,0.0,0.0,0.0,0.0,0.0,0.0,0.0,0.0,0.0,0.0,0.0,0.0,0.0,0.0,0.0,0.0,0.0,0.0,0.0,0.0,0.0,0.0,0.0,0.0,0.0,0.0,0.0,0.0,0.0,0.0,0.0,0.0,0.0,0.0,0.0,0.0,0.0,0.0,0.0,0.0,0.0,0.0,0.0,0.0,0.0,0.0,0.0,0.0,0.0,0.0,0.0,0.0,0.0,0.0,0.0,0.0,0.0,0.0,0.0,0.0,0.0,0.0,0.0,0.0,0.0,0.0,0.0,0.0,0.0,5.764,5.7479,5.6842,5.5659,5.5676,5.5978,0.0,0.0,0.0,0.0,0.0,0.0,0.0,0.0,0.0,0.0,0.0,0.0,0.0,0.0,0.0,0.0,0.0,0.0,0.0,0.0,0.0,0.0,0.0,0.0,0.0,0.0,0.0,0.0,0.0,0.0,0.0,0.0,0.0,0.0,0.0,0.0,0.0,0.0,0.0,0.0,0.0,0.0,0.0,0.0,0.0,0.0,0.0,0.0,0.0,0.0,0.0,0.0,0.0,0.0,0.0,0.0,0.0,0.0,0.0,0.0,0.0,0.0,0.0,0.0,0.0,0.0,0.0,0.0,0.0,0.0,0.0,0.0,0.0,0.0,0.0,0.0,0.0,0.0,0.0,0.0,0.0,0.0,0.0,0.0,0.0,0.0,0.0,0.0,0.0,0.0,0.0,0.0,0.0,0.0,0.0,0.0,0.0,0.0,0.0,0.0,0.0,0.0,0.0,0.0,0.0,0.0,0.0,0.0,5.9076,5.8194,5.812,5.7472,5.6228,5.6442,5.6746,0.0,0.0,0.0,0.0,0.0,0.0,0.0,0.0,0.0,0.0,0.0,0.0,0.0,0.0,0.0,0.0,0.0,0.0,0.0,0.0,0.0,0.0,0.0,0.0,0.0,0.0,0.0,0.0,0.0,0.0,0.0,0.0,0.0,0.0,0.0,0.0,0.0,0.0,0.0,0.0,0.0,0.0,0.0,0.0,0.0,0.0,0.0,0.0,0.0,0.0,0.0,0.0,0.0,0.0,0.0,0.0,0.0,0.0,0.0,0.0,0.0,0.0,0.0,0.0,0.0,0.0,0.0,0.0,0.0,0.0,0.0,0.0,0.0,0.0,0.0,0.0,0.0,0.0,0.0,0.0,0.0,0.0,0.0,0.0,0.0,0.0,0.0,0.0,0.0,0.0,0.0,0.0,0.0,0.0,0.0,0.0,0.0,0.0,0.0,0.0,0.0,0.0,0.0,0.0,0.0,0.0,0.0,0.0,5.9503,5.8648,5.8555,5.8127,5.7402,5.7648,5.7808,0.0,0.0,0.0,0.0,0.0,0.0,0.0,0.0,0.0,0.0,0.0,0.0,0.0,0.0,0.0,0.0,0.0,0.0,0.0,0.0,0.0,0.0,0.0,0.0,0.0,0.0,0.0,0.0,0.0,0.0,0.0,0.0,0.0,0.0,0.0,0.0,0.0,0.0,0.0,0.0,0.0,0.0,0.0,0.0,0.0,0.0,0.0,0.0,0.0,0.0,0.0,0.0,0.0,0.0,0.0,0.0,0.0,0.0,0.0,0.0,0.0,0.0,0.0,0.0,0.0,0.0,0.0,0.0,0.0,0.0,0.0,0.0,0.0,0.0,0.0,0.0,0.0,0.0,0.0,0.0,0.0,0.0,0.0,0.0,0.0,0.0,0.0,0.0,0.0,0.0,0.0,0.0,0.0,0.0,0.0,0.0,0.0,0.0,0.0,0.0,0.0,0.0,0.0,0.0,0.0,0.0,0.0,0.0,5.9736,5.9386,5.9351,5.9232,5.8974,5.79,5.768,0.0,0.0,0.0,0.0,0.0,0.0,0.0,0.0,0.0,0.0,0.0,0.0,0.0,0.0,0.0,0.0,0.0,0.0,0.0,0.0,0.0,0.0,0.0,0.0,0.0,0.0,0.0,0.0,0.0,0.0,0.0,0.0,0.0,0.0,0.0,0.0,0.0,0.0,0.0,0.0,0.0,0.0,0.0,0.0,0.0,0.0,0.0,0.0,5.3541,0.0,0.0,0.0,0.0,0.0,0.0,0.0,0.0,0.0,0.0,0.0,0.0,0.0,0.0,0.0,0.0,0.0,0.0,0.0,0.0,0.0,0.0,0.0,0.0,0.0,0.0,0.0,0.0,0.0,0.0,0.0,0.0,0.0,0.0,0.0,0.0,0.0,0.0,0.0,0.0,0.0,0.0,0.0,0.0,0.0,0.0,0.0,0.0,0.0,0.0,0.0,0.0,0.0,0.0,0.0,0.0,0.0,0.0,0.0,6.0002,5.9483,5.9445,5.9456,5.9373,5.8626,5.8501,0.0,0.0,0.0,0.0,0.0,0.0,0.0,0.0,0.0,0.0,0.0,0.0,0.0,0.0,0.0,0.0,0.0,0.0,0.0,0.0,0.0,0.0,0.0,0.0,0.0,0.0,0.0,0.0,0.0,0.0,0.0,0.0,0.0,0.0,0.0,0.0,0.0,0.0,0.0,0.0,0.0,0.0,0.0,0.0,0.0,0.0,0.0,0.0,0.0,0.0,0.0,0.0,0.0,0.0,0.0,0.0,0.0,0.0,0.0,0.0,0.0,0.0,0.0,0.0,0.0,0.0,0.0,0.0,0.0,0.0,0.0,0.0,0.0,0.0,0.0,0.0,0.0,0.0,0.0,0.0,0.0,0.0,0.0,0.0,0.0,0.0,0.0,0.0,0.0,0.0,0.0,0.0,0.0,0.0,0.0,0.0,0.0,0.0,0.0,0.0,0.0,0.0,0.0,0.0,0.0,0.0,0.0,6.109,6.0698,5.9938,5.9891,5.9882,5.9872,5.9731,5.9776,6.0007,0.0,0.0,0.0,0.0,0.0,0.0,0.0,0.0,0.0,0.0,0.0,0.0,0.0,0.0,0.0,0.0,0.0,0.0,0.0,0.0,0.0,0.0,0.0,0.0,0.0,0.0,0.0,0.0,0.0,0.0,0.0,0.0,0.0,0.0,0.0,0.0,0.0,0.0,5.8179,5.7689,0.0,0.0,0.0,0.0,0.0,0.0,0.0,0.0,5.3433,0.0,0.0,0.0,0.0,0.0,0.0,0.0,0.0,0.0,0.0,0.0,0.0,0.0,0.0,0.0,0.0,0.0,0.0,0.0,0.0,0.0,0.0,0.0,0.0,0.0,0.0,0.0,0.0,0.0,0.0,0.0,0.0,0.0,0.0,0.0,0.0,0.0,0.0,0.0,0.0,0.0,0.0,0.0,0.0,0.0,0.0,0.0,0.0,0.0,0.0,0.0,0.0,0.0,0.0,0.0,0.0,6.1863,6.2448,6.2691,6.2482,6.2482,6.2443,6.2288,6.173,6.1412,6.1413,0.0,0.0,0.0,0.0,0.0,0.0,0.0,0.0,0.0,0.0,0.0,0.0,0.0,0.0,0.0,0.0,0.0,0.0,0.0,0.0,0.0,0.0,0.0,0.0,0.0,0.0,0.0,0.0,0.0,0.0,0.0,0.0,0.0,0.0,0.0,0.0,0.0,0.0,0.0,5.8216,5.8208,0.0,0.0,0.0,0.0,0.0,0.0,0.0,0.0,5.3209,0.0,0.0,0.0,0.0,0.0,0.0,0.0,0.0,0.0,0.0,0.0,0.0,0.0,0.0,0.0,0.0,0.0,0.0,0.0,0.0,0.0,0.0,0.0,0.0,0.0,0.0,0.0,0.0,0.0,0.0,0.0,0.0,0.0,0.0,0.0,0.0,0.0,0.0,0.0,0.0,0.0,0.0,0.0,0.0,0.0,0.0,0.0,0.0,0.0,0.0,0.0,0.0,0.0,0.0,0.0,6.3238,6.3594,6.3545,6.312,6.312,6.2838,6.2338,6.1974,6.1806,0.0,0.0,0.0,0.0,0.0,0.0,0.0,0.0,0.0,0.0,0.0,0.0,0.0,0.0,0.0,0.0,0.0,0.0,0.0,0.0,0.0,0.0,0.0,0.0,0.0,0.0,0.0,0.0,0.0,0.0,0.0,0.0,0.0,0.0,0.0,0.0,0.0,0.0,0.0,0.0,5.8215,5.8179,5.8179,0.0,0.0,0.0,0.0,0.0,0.0,5.4699,5.4436,0.0,0.0,0.0,0.0,0.0,0.0,0.0,0.0,0.0,0.0,0.0,0.0,0.0,0.0,0.0,0.0,0.0,0.0,0.0,0.0,0.0,0.0,0.0,0.0,0.0,0.0,0.0,0.0,0.0,0.0,0.0,0.0,0.0,0.0,0.0,0.0,0.0,0.0,0.0,0.0,0.0,0.0,0.0,0.0,0.0,0.0,0.0,0.0,0.0,0.0,0.0,0.0,0.0,0.0,0.0,6.4592,6.4898,6.4735,6.4134,6.4096,6.3673,6.2828,6.2622,6.2472,0.0,0.0,0.0,0.0,0.0,0.0,0.0,0.0,0.0,0.0,0.0,0.0,0.0,0.0,0.0,0.0,0.0,0.0,0.0,0.0,0.0,0.0,0.0,0.0,0.0,0.0,0.0,0.0,0.0,0.0,0.0,0.0,0.0,0.0,0.0,0.0,0.0,0.0,0.0,0.0,0.0,5.818,5.8033,5.8143,0.0,0.0,0.0,0.0,5.5952,5.5732,0.0,0.0,0.0,0.0,0.0,0.0,0.0,0.0,0.0,0.0,0.0,0.0,0.0,0.0,0.0,0.0,0.0,0.0,0.0,0.0,0.0,0.0,0.0,0.0,0.0,0.0,0.0,0.0,0.0,0.0,0.0,0.0,0.0,0.0,0.0,0.0,0.0,0.0,0.0,0.0,0.0,0.0,0.0,0.0,0.0,0.0,0.0,0.0,0.0,0.0,0.0,0.0,0.0,0.0,0.0,0.0,6.5421,6.6838,6.7551,6.7438,6.7438,6.6983,6.6063,6.5434,6.4684,0.0,0.0,0.0,0.0,0.0,0.0,0.0,0.0,0.0,0.0,0.0,0.0,0.0,0.0,0.0,0.0,0.0,0.0,0.0,0.0,0.0,0.0,0.0,0.0,0.0,0.0,0.0,0.0,0.0,0.0,0.0,0.0,0.0,0.0,0.0,0.0,0.0,0.0,0.0,0.0,0.0,5.8792,5.8107,5.8609,5.8792,0.0,0.0,5.6774,5.6664,5.6051,0.0,0.0,0.0,0.0,0.0,0.0,0.0,0.0,0.0,0.0,0.0,0.0,0.0,0.0,0.0,0.0,0.0,0.0,0.0,0.0,0.0,0.0,0.0,0.0,0.0,0.0,0.0,0.0,0.0,0.0,0.0,0.0,0.0,0.0,0.0,0.0,0.0,0.0,0.0,0.0,0.0,0.0,0.0,0.0,0.0,0.0,0.0,0.0,0.0,0.0,0.0,0.0,0.0,0.0,0.0,6.6739,6.7578,6.8329,6.8903,6.9391,6.9428,6.8769,6.745,6.7079,6.6516,0.0,0.0,0.0,0.0,0.0,0.0,0.0,0.0,0.0,0.0,0.0,0.0,0.0,0.0,0.0,0.0,0.0,0.0,0.0,0.0,0.0,0.0,0.0,0.0,0.0,0.0,0.0,0.0,0.0,0.0,0.0,0.0,0.0,0.0,0.0,0.0,0.0,0.0,0.0,0.0,0.0,0.0,5.9391,5.9636,0.0,0.0,0.0,5.8535,5.7629,0.0,0.0,0.0,0.0,0.0,0.0,0.0,0.0,0.0,0.0,0.0,0.0,0.0,0.0,0.0,0.0,0.0,0.0,0.0,0.0,0.0,0.0,0.0,0.0,0.0,0.0,0.0,0.0,0.0,0.0,0.0,0.0,0.0,0.0,0.0,0.0,0.0,0.0,0.0,0.0,0.0,0.0,0.0,0.0,0.0,0.0,0.0,0.0,0.0,0.0,0.0,0.0,0.0,0.0,0.0,0.0,0.0,6.9493,6.9718,7.0244,7.1054,7.0893,7.0104,6.8677,6.864,0.0,0.0,0.0,0.0,0.0,0.0,0.0,0.0,0.0,0.0,0.0,0.0,0.0,0.0,0.0,0.0,0.0,0.0,0.0,0.0,0.0,0.0,0.0,0.0,0.0,0.0,0.0,5.8766,0.0,0.0,0.0,0.0,0.0,0.0,0.0,0.0,0.0,0.0,0.0,0.0,0.0,0.0,6.1029,6.0809,6.0969,6.0724,0.0,0.0,5.9612,5.8217,5.851,5.8694,0.0,0.0,0.0,0.0,0.0,0.0,0.0,0.0,0.0,0.0,0.0,0.0,0.0,0.0,0.0,0.0,0.0,0.0,0.0,0.0,0.0,0.0,0.0,0.0,0.0,0.0,0.0,0.0,0.0,0.0,0.0,0.0,0.0,0.0,0.0,0.0,0.0,0.0,0.0,0.0,0.0,0.0,0.0,0.0,0.0,0.0,0.0,0.0,0.0,0.0,0.0,0.0,0.0,0.0,0.0,7.0405,7.1145,7.1933,7.2695,7.2008,7.1182,7.0367,7.033,6.959,0.0,0.0,0.0,0.0,0.0,0.0,0.0,0.0,0.0,0.0,0.0,0.0,0.0,0.0,0.0,0.0,0.0,0.0,0.0,0.0,0.0,0.0,0.0,0.0,0.0,0.0,0.0,0.0,0.0,0.0,0.0,0.0,0.0,0.0,0.0,0.0,0.0,0.0,0.0,0.0,0.0,6.2739,6.2001,6.2485,6.2339,0.0,5.9793,5.8976,5.8143,5.8081,5.8033,5.8033,0.0,0.0,0.0,0.0,0.0,0.0,0.0,0.0,0.0,0.0,0.0,0.0,0.0,0.0,0.0,0.0,0.0,0.0,0.0,0.0,0.0,0.0,0.0,0.0,0.0,0.0,0.0,0.0,0.0,0.0,0.0,0.0,0.0,0.0,0.0,0.0,0.0,0.0,0.0,0.0,0.0,0.0,0.0,0.0,0.0,0.0,0.0,0.0,0.0,0.0,0.0,0.0,0.0,7.1407,7.277,7.3097,7.3848,7.5098,7.4385,7.3596,7.2808,7.1757,7.0705,0.0,0.0,0.0,0.0,0.0,0.0,0.0,0.0,0.0,0.0,0.0,0.0,0.0,0.0,0.0,0.0,0.0,0.0,0.0,0.0,0.0,0.0,0.0,0.0,0.0,0.0,0.0,0.0,5.9185,5.9552,6.0109,0.0,0.0,0.0,0.0,0.0,0.0,0.0,0.0,0.0,0.0,6.3084,6.2788,6.2903,0.0,0.0,6.1385,6.0958,5.9685,5.9917,6.0052,5.9538,5.9501,0.0,0.0,0.0,0.0,0.0,0.0,0.0,0.0,0.0,0.0,0.0,0.0,0.0,0.0,0.0,0.0,0.0,0.0,0.0,0.0,0.0,0.0,0.0,0.0,0.0,0.0,0.0,0.0,0.0,0.0,0.0,0.0,0.0,0.0,0.0,0.0,0.0,0.0,0.0,0.0,0.0,0.0,0.0,0.0,0.0,0.0,0.0,0.0,0.0,0.0,0.0,0.0,7.2883,7.4535,7.4798,7.5737,7.7302,7.6563,7.5774,7.4936,7.3559,7.2207,0.0,0.0,0.0,0.0,0.0,0.0,0.0,0.0,0.0,0.0,0.0,0.0,0.0,0.0,0.0,0.0,0.0,0.0,0.0,0.0,0.0,0.0,0.0,0.0,0.0,0.0,0.0,0.0,6.0045,6.0619,6.1473,0.0,0.0,0.0,0.0,0.0,0.0,0.0,0.0,0.0,0.0,6.367,6.367,6.3564,6.3185,6.2326,6.2389,6.2034,6.0603,6.086,6.097,6.0187,0.0,0.0,0.0,0.0,0.0,0.0,0.0,0.0,0.0,0.0,0.0,0.0,0.0,0.0,0.0,0.0,0.0,0.0,0.0,0.0,0.0,0.0,0.0,0.0,0.0,0.0,0.0,6.9451,0.0,0.0,7.0394,0.0,0.0,0.0,0.0,0.0,0.0,0.0,0.0,0.0,0.0,0.0,0.0,0.0,0.0,0.0,0.0,0.0,0.0,0.0,0.0,0.0,0.0,7.3747,7.5361,7.6225,7.7426,7.9004,7.8253,7.7426,7.6588,7.5737,7.416,7.1745,0.0,0.0,0.0,0.0,0.0,0.0,0.0,0.0,0.0,0.0,0.0,0.0,0.0,0.0,0.0,0.0,0.0,0.0,0.0,0.0,0.0,0.0,0.0,0.0,0.0,0.0,6.106,6.1187,6.151,0.0,0.0,0.0,0.0,0.0,0.0,0.0,0.0,0.0,0.0,6.4179,6.473,6.473,6.4638,6.4224,6.3341,6.246,6.1555,6.0663,6.0493,6.015,0.0,0.0,0.0,0.0,0.0,0.0,0.0,0.0,0.0,0.0,0.0,0.0,0.0,0.0,0.0,0.0,0.0,0.0,0.0,0.0,0.0,0.0,0.0,0.0,0.0,0.0,0.0,7.2086,7.1872,0.0,0.0,0.0,0.0,0.0,0.0,0.0,0.0,0.0,0.0,0.0,7.454,7.5232,0.0,0.0,0.0,0.0,0.0,0.0,0.0,0.0,0.0,0.0,0.0,0.0,7.627,7.7802,7.814,7.9116,8.0693,7.9992,7.9166,7.8278,7.6413,7.4235,7.1783,0.0,0.0,0.0,0.0,0.0,0.0,0.0,0.0,0.0,0.0,0.0,0.0,0.0,0.0,0.0,0.0,0.0,0.0,0.0,0.0,0.0,0.0,0.0,0.0,0.0,6.18,0.0,0.0,0.0,0.0,0.0,0.0,0.0,0.0,0.0,0.0,0.0,6.4758,6.3682,6.4273,6.4779,6.4779,6.4686,6.4667,0.0,0.0,0.0,0.0,0.0,0.0,0.0,0.0,0.0,0.0,0.0,0.0,0.0,0.0,6.1197,5.905,5.833,5.784,5.731,0.0,0.0,0.0,0.0,0.0,0.0,0.0,0.0,0.0,0.0,0.0,0.0,0.0,0.0,7.4097,0.0,7.3424,0.0,0.0,0.0,0.0,0.0,0.0,0.0,0.0,7.7073,7.7445,7.7269,7.7866,7.8279,0.0,7.8509,7.7435,0.0,0.0,0.0,0.0,0.0,0.0,0.0,0.0,7.7871,7.9115,7.9441,8.0205,8.1482,8.0906,8.0264,7.9712,7.7428,7.5365,7.3649,7.3536,7.3357,0.0,0.0,0.0,0.0,0.0,0.0,0.0,0.0,0.0,0.0,0.0,0.0,0.0,0.0,0.0,0.0,0.0,0.0,0.0,0.0,0.0,0.0,0.0,6.3691,0.0,0.0,0.0,0.0,0.0,0.0,0.0,0.0,0.0,6.5373,6.5745,6.5671,6.4631,6.4928,6.5262,6.5262,0.0,0.0,0.0,0.0,0.0,0.0,0.0,6.5446,6.5114,6.5246,6.5327,6.5199,6.5084,6.4952,6.4749,0.0,0.0,6.0646,5.996,5.9493,5.895,5.9289,5.976,6.0013,6.0484,6.0919,0.0,0.0,0.0,0.0,0.0,0.0,0.0,0.0,7.6712,7.6254,0.0,7.4807,0.0,0.0,0.0,0.0,7.7574,7.773,0.0,0.0,7.9233,7.995,8.0693,8.1119,8.1583,8.1913,8.1967,8.136,8.0012,7.7092,0.0,0.0,0.0,0.0,0.0,0.0,7.8631,7.9422,8.0179,8.0894,8.1658,8.1184,8.0916,8.0874,7.8863,7.7516,7.7052,7.5582,7.4978,7.5394,7.3959,0.0,0.0,0.0,0.0,0.0,0.0,0.0,0.0,0.0,0.0,0.0,0.0,0.0,0.0,0.0,0.0,0.0,0.0,0.0,0.0,6.6193,0.0,0.0,0.0,0.0,0.0,0.0,0.0,0.0,0.0,0.0,6.6413,6.6277,6.6153,6.6079,0.0,0.0,0.0,0.0,6.6081,6.6011,6.6036,6.5988,6.5866,6.5829,6.5534,6.4648,0.0,0.0,6.5131,6.5078,6.5008,6.4721,6.412,6.3516,6.3516,6.2522,6.1774,6.1738,6.1702,6.2223,6.2875,6.2925,6.3309,8.2593,0.0,0.0,0.0,0.0,7.8907,7.8555,7.8821,7.7694,7.7313,7.7425,7.6779,0.0,0.0,0.0,0.0,0.0,0.0,8.0411,8.0778,8.1396,8.1522,8.1219,8.1831,8.221,8.2385,8.2418,8.2264,8.1852,8.105,7.9783,7.8219,0.0,0.0,0.0,0.0,8.1458,8.1664,8.2488,8.2997,8.3164,8.2998,8.2369,8.1288,7.9811,7.8548,7.7488,7.6796,7.6306,7.6111,7.4863,0.0,0.0,0.0,0.0,0.0,0.0,0.0,0.0,0.0,0.0,0.0,0.0,0.0,0.0,0.0,0.0,0.0,0.0,0.0,6.5288,6.5791,6.6017,0.0,0.0,0.0,0.0,0.0,0.0,0.0,0.0,0.0,6.9534,6.8531,6.7379,0.0,0.0,6.6982,6.6933,6.6933,6.7144,6.7677,6.8222,0.0,6.7802,6.8099,6.8135,6.7284,6.7104,6.6963,6.6628,6.649,6.6385,6.6185,6.5975,6.583,6.5649,6.3214,6.1123,6.0507,6.1159,6.2028,6.2317,6.32,6.4142,8.7709,8.4162,8.2516,8.2123,8.247,8.0989,8.0503,8.0711,7.9591,7.9219,7.935,7.8571,7.8625,7.9297,7.9642,0.0,0.0,0.0,8.2817,8.3219,8.3962,8.4238,8.4065,8.4337,8.4576,8.4752,8.48,8.4679,8.449,8.4844,8.4031,8.212,0.0,0.0,8.2236,8.3552,8.4248,8.4199,8.431,8.4365,8.4316,8.3793,8.3122,8.2291,8.1232,8.0248,7.9295,7.8426,7.7814,7.7388,7.6414,7.5984,0.0,0.0,0.0,0.0,0.0,0.0,0.0,0.0,0.0,0.0,0.0,6.828,6.8275,0.0,0.0,0.0,6.7041,6.6691,6.6734,6.7231,0.0,0.0,0.0,0.0,0.0,0.0,0.0,7.0821,7.0895,7.0895,7.0858,7.0054,6.9088,6.8122,6.8419,6.8716,6.8716,0.0,6.8902,6.9385,6.9868,7.0016,6.9521,6.9768,6.9878,6.927,6.8897,6.8413,6.7777,6.7613,6.7375,6.6917,6.6533,6.6351,6.6315,6.407,6.2331,6.244,6.2933,6.3476,6.3802,6.4939,6.5844,9.2864,9.1047,8.7132,8.5431,8.5184,8.3954,8.3416,8.3293,8.2224,8.1822,8.1872,8.0405,8.0195,8.1086,8.199,0.0,8.3419,8.453,8.5439,8.6068,8.6872,8.7629,8.8299,8.7951,8.7999,8.8357,8.8232,8.7952,8.7615,8.8268,8.8233,8.7494,8.5657,8.5063,8.5647,8.6207,8.6587,8.6635,8.5731,8.5259,8.5145,8.3773,8.3243,8.3662,8.2692,8.2032,8.1778,8.0181,7.9185,7.8866,7.8113,7.7396,7.67,0.0,0.0,0.0,0.0,0.0,0.0,0.0,0.0,0.0,0.0,0.0,0.0,0.0,0.0,0.0,6.9185,0.0,6.967,6.9756,0.0,0.0,0.0,7.1019,7.1094,7.1094,7.1168,7.1279,0.0,0.0,7.1279,7.1242,7.1205,7.1205,7.1094,7.0982,7.0895,7.0895,7.0982,7.0834,7.0932,7.097,7.0759,7.0771,7.067,7.0373,7.0252,6.9631,6.869,6.8349,6.7942,6.712,6.6315,6.5881,6.5808,6.5229,6.5156,6.6569,6.617,6.5881,6.6554,6.7366,6.7945,9.4066,9.2979,9.1364,8.994,8.8577,8.7026,8.6233,8.5925,8.5007,8.4615,8.4624,8.3647,8.3093,8.3028,8.4234,8.5346,8.6427,8.7694,8.8873,8.9844,9.0074,9.0266,9.0411,8.9694,8.9733,9.0343,8.9152,8.8841,8.9278,8.9491,8.979,9.0243,9.0411,8.9272,8.6858,8.638,8.6484,8.7208,8.6998,8.6519,8.5828,8.3662,8.3144,8.4547,8.225,8.1363,8.2112,8.0307,7.9076,7.8604,7.7594,7.7258,7.7777,7.6939,0.0,0.0,0.0,0.0,0.0,0.0,0.0,0.0,0.0,7.0711,7.0584,0.0,7.0449,0.0,7.0714,7.0349,6.9769,7.0239,0.0,0.0,7.1478,7.2109,7.2704,7.2828,7.3261,7.4487,7.4078,7.393,7.4561,7.4078,7.3707,7.3707,7.2629,7.1663,7.1056,7.1515,7.1626,7.1131,7.1478,7.1626,7.1094,7.0819,7.0702,7.0387,7.0101,6.9695,6.9267,6.8559,6.802,6.7764,6.7583,6.7438,6.7402,6.7257,6.7474,6.8286,6.751,6.6786,6.7532,6.8343,6.8938,9.6759,9.5903,9.5057,9.3749,9.2018,8.9979,8.8978,8.8727,8.7912,8.7298,8.6915,8.5687,8.5612,8.6423,8.6824,8.7763,8.9154,9.0625,9.1681,9.2364,9.3095,9.3471,9.3441,9.2595,9.2441,9.2864,9.1556,9.1171,9.1595,9.1595,9.1633,9.1787,9.2249,9.153,8.9631,8.9486,8.9512,8.9671,8.8902,8.8094,8.7209,8.5093,8.4632,8.5893,8.3376,8.2224,8.2862,8.1417,8.0334,7.9662,7.9044,7.8749,7.8867,7.7892,7.7323,0.0,0.0,0.0,0.0,0.0,0.0,0.0,0.0,0.0,0.0,0.0,7.1249,7.1404,7.124,7.1181,7.1342,7.1775,7.2295,7.2988,7.3521,7.398,7.4426,7.4463,7.4797,7.5689,7.5429,7.5318,7.5713,7.5081,7.4574,7.4574,7.3831,7.2977,7.2221,7.2456,7.2568,7.2109,7.2406,7.2605,7.2072,7.1817,7.1682,7.1507,7.1152,7.0712,7.0134,6.9569,6.9035,6.8612,6.8525,6.854,6.8525,6.8525,6.8793,6.9373,6.9047,6.8488,6.8525,6.9155,6.9735,9.9606,9.875,9.8096,9.6865,9.5143,9.2941,9.1825,9.1479,9.0855,9.0056,8.9103,8.7709,8.8248,9.0201,8.971,9.0364,9.1941,9.348,9.4249,9.4441,9.5903,9.6634,9.6596,9.572,9.5374,9.5451,9.4518,9.4095,9.4172,9.4095,9.3672,9.3018,9.2979,9.2979,9.3018,9.3672,9.3557,9.2518,9.0893,8.9748,8.9017,8.7209,8.6632,8.7248,8.5063,8.3717,8.3601,8.287,8.2054,8.117,8.1208,8.0862,8.0008,7.9053,7.8174,0.0,7.6399,0.0,0.0,0.0,0.0,0.0,0.0,0.0,0.0,7.272,7.2292,7.2028,7.1885,7.2323,7.3584,7.372,7.4277,7.5615,7.5912,7.5949,7.5949,7.5986,7.6024,7.6098,7.6024,7.5986,7.6135,7.5429,7.4909,7.502,7.4834,7.4426,7.3868,7.3608,7.3497,7.346,7.3385,7.3274,7.3211,7.3087,7.2949,7.2881,7.2471,7.2014,7.1091,7.0693,7.0287,6.9564,6.9337,6.9337,6.9337,6.9445,6.9735,7.0423,7.0444,7.0242,6.9771,7.0061,7.0496,9.9567,9.8836,9.9413,9.8644,9.7019,9.6519,9.5134,9.3249,9.3787,9.3172,9.1825,9.2133,9.2172,9.2095,9.3258,9.4364,9.5365,9.6326,9.7173,9.7827,9.8173,9.8327,9.8288,9.7442,9.7403,9.7942,9.6519,9.6134,9.6749,9.6134,9.5711,9.5595,9.5595,9.5557,9.5595,0.0,0.0,0.0,9.1479,9.0864,9.0671,8.8402,8.7248,8.7363,8.5632,0.0,8.364,8.3447,8.2639,8.1208,8.1747,0.0,0.0,0.0,0.0,0.0,0.0,0.0,0.0,0.0,0.0,0.0,7.7031,7.6303,7.4096,7.4769,7.5479,7.5663,7.5612,7.5496,7.5371,7.5355,7.5466,7.5763,7.6432,7.6878,7.6841,7.6841,7.7101,7.7733,7.725,7.7101,7.7621,7.7138,7.6581,7.6469,7.6024,7.5527,7.5355,7.4723,7.4128,7.3534,7.3385,7.3385,7.3385,7.3265,7.3105,7.2931,7.2531,7.216,7.1799,7.1032,7.0485,7.0206,7.017,7.017,7.017,7.0625,7.106,7.1277,7.1313,7.1241,7.1096,7.1168,7.1277,10.1443,10.075,10.1173,10.0596,0.0,9.9404,9.8634,9.7365,9.6134,9.5403,9.498,9.498,9.5211,9.5634,9.6057,9.6711,9.7557,9.8404,9.9019,9.9452,9.9827,10.0019,10.0019,9.9173,9.9019,9.9375,9.8134,9.775,9.8096,9.775,9.7326,9.6903,9.7326,9.7326,9.6903,9.6903,9.5865,9.3758,9.2864,9.2441,9.2364,9.0787,8.971,8.9248,8.7248,0.0,0.0,0.0,0.0,0.0,0.0,0.0,0.0,8.0861,0.0,8.0896,8.0071,7.9777,8.0161,7.9774,7.9314,7.8941,7.8478,7.7539,7.5966,7.6397,7.68,7.6954,7.6717,7.6556,7.6701,7.6553,7.6581,7.699,7.7435,7.7696,7.7696,7.7696,7.7844,7.8179,7.7956,7.7844,7.8216,7.7584,7.7138,7.7027,7.6358,7.5838,7.5726,7.5095,7.4314,7.3534,7.3385,7.3385,7.3372,7.3292,7.3158,7.2982,7.2933,7.2834,7.2617,7.2096,7.164,7.1562,7.1241,7.0951,7.0987,7.1567,7.211,7.213,7.2436,7.2637,7.2637,7.2058,7.1494,10.3597,10.2828,10.2828,10.2251,10.1279,10.1173,10.1087,10.0904,0.0,0.0,0.0,9.7173,9.775,9.8981,9.8404,9.8557,9.9288,9.999,10.0289,10.0337,10.0981,10.1279,10.1241,10.0596,10.0327,10.0298,9.9596,9.925,9.925,9.925,9.8827,9.8096,9.8673,9.8596,9.7788,9.7596,9.6826,9.5489,9.4441,9.3903,9.3912,9.3133,9.2287,9.1441,8.9248,8.7286,8.5632,8.4055,8.2824,8.2016,8.1977,8.2208,8.267,8.1862,8.1523,8.1919,8.1028,8.0797,8.1489,8.0874,8.0599,8.0854,7.9554,7.8644,7.8337,7.8074,7.8028,7.8221,7.7779,7.7702,7.8179,7.8019,7.8089,7.8676,7.8736,7.8736,7.8736,7.8736,7.8773,7.8736,7.8773,7.8736,7.8773,7.8253,7.7658,7.751,7.7101,7.6284,7.5986,7.5392,7.4686,7.4128,7.3906,7.3645,7.3595,7.3405,7.3259,7.3309,7.3553,7.3678,7.3511,7.3333,7.3145,7.2887,7.2327,7.2038,7.1986,7.2472,7.2891,7.2891,7.3434,7.3905,7.3796,7.2855,7.2001,10.4443,10.3712,10.3712,10.2789,10.1241,10.0558,10.026,10.0221,9.9798,9.9211,9.8673,9.9298,9.9683,9.9952,10.0519,10.0817,10.0933,10.1096,10.1125,10.1135,10.1241,10.1279,10.1279,10.1173,10.1125,10.1135,10.1019,10.0933,10.0943,10.0933,10.0519,9.9837,9.9875,9.949,9.8634,9.7865,9.7365,9.7134,9.5605,9.4835,9.4797,9.3989,9.3133,9.2326,9.1248,8.9863,8.8218,8.7171,8.6286,8.544,8.5401,8.517,8.4547,8.3016,8.1854,8.1231,7.9769,7.8892,7.9038,7.8892,7.9162,7.99,7.9738,7.9838,8.0408,8.0366,8.0734,8.17,8.1556,8.14,8.0892,8.0636,8.0474,8.0316,8.032,8.0371,8.0245,8.0245,8.0259,8.0259,8.0357,8.0297,8.0185,8.0097,7.9725,7.9293,7.8847,7.8476,7.725,7.6172,7.5652,7.5392,7.4872,7.45,7.4314,7.3818,7.3726,7.4125,7.4169,7.4343,7.4467,7.429,7.4071,7.3789,7.3523,7.3434,7.347,7.3615,7.3724,7.376,7.3941,7.405,7.4086,7.3724,7.3289,10.602,10.5366,10.5751,10.5251,10.4049,10.3674,10.2981,10.2222,10.2645,10.1789,10.025,10.0596,10.075,10.0827,10.1635,10.202,10.202,10.2481,10.2712,10.2712,10.2712,10.2712,10.2674,10.2251,10.2251,10.2635,10.1741,10.1779,10.2558,10.1779,10.1366,10.1404,10.0981,10.0327,9.9529,9.9144,9.8673,9.8173,9.6557,9.5711,9.5711,9.5326,9.4711,9.3873,9.2595,9.1325,9.0094,8.8786,8.7709,8.6863,8.6824,8.6632,8.6247,8.5055,8.4401,8.4478,8.3324,8.2631,8.2631,8.2208,8.1939,8.1862,8.1776,8.2312,8.3585,8.2301,8.1884,8.2808,8.2662,8.2274,8.1683,8.1431,8.1129,8.0748,8.0705,8.0705,8.0705,8.0705,8.0705,8.0705,8.0705,8.0705,8.0705,8.0705,8.058,8.0185,8.0134,7.9814,7.9108,7.8699,7.777,7.6209,7.5503,7.5095,7.476,7.4723,7.462,7.4472,7.5038,7.5388,7.5497,7.5253,7.5024,7.4732,7.4348,7.3941,7.3941,7.4303,7.4484,7.4593,7.4971,7.5152,7.5189,7.4899,7.4267,10.7328,10.679,10.7213,10.6828,10.5867,10.5828,10.5097,10.3982,10.452,10.3712,10.2058,10.1904,10.1866,10.1943,10.2597,10.2904,10.2981,10.3597,10.3866,10.3905,10.3905,10.3905,10.3828,10.3174,10.3251,10.3712,10.252,10.2597,10.3597,10.2558,10.2212,10.2751,10.202,10.1289,10.0683,10.0298,9.976,9.9058,9.7634,9.6865,9.6865,9.6673,9.6249,9.5528,9.3941,9.2749,9.2018,9.0441,8.9248,8.8594,8.8363,8.8171,8.794,8.6978,8.6632,8.6978,8.6132,8.5517,8.5478,8.4978,8.4324,8.3678,8.3498,8.4054,8.5305,8.3815,8.3028,8.382,8.3605,8.3069,8.2697,8.2322,8.1837,8.1452,8.1306,8.1374,8.1285,8.1263,8.1248,8.1263,8.1285,8.13,8.1263,8.1248,8.1226,8.1063,8.084,8.0705,8.0705,8.0705,7.9502,7.783,7.6753,7.6544,7.5838,7.6061,7.6142,7.5523,7.6476,7.6964,7.6875,7.659,7.6339,7.613,7.5409,7.5057,7.4843,7.5027,7.5353,7.5406,7.5768,7.6183,7.6147,7.5768,7.4991,10.7675,10.7482,10.6905,10.5597,10.4366,10.4289,10.4174,10.402,10.402,10.3943,10.3751,10.3674,10.3674,10.3674,10.3712,10.3751,10.3789,10.3866,10.3943,10.3943,10.3905,10.3905,10.3982,10.3828,10.3828,10.3943,10.3674,10.3674,10.402,10.3751,10.3674,10.3674,10.2904,10.2443,10.2174,10.0904,10.0106,9.9952,9.9067,9.8557,9.8519,9.7788,9.7326,9.725,9.5643,9.472,9.4527,9.3027,9.2095,9.1979,9.1248,9.047,8.9663,8.8171,8.7017,8.6324,8.4824,8.3832,8.387,8.3755,8.3793,8.3601,8.3662,8.4006,8.4861,8.4643,8.5055,8.6001,8.5694,8.4927,8.4729,8.4285,8.3765,8.3267,8.3031,8.2972,8.286,8.2972,8.2972,8.2972,8.2786,8.2972,8.286,8.2898,8.2712,8.2192,8.1545,8.1151,8.1114,8.1003,8.0877,8.0208,7.9665,7.9108,7.8736,7.8402,7.8197,7.8516,7.8944,7.8853,7.8498,7.8771,7.9208,7.7693,7.7304,7.7003,7.6886,7.671,7.6203,7.6348,7.6456,7.6384,7.6328,7.6311,7.5768,10.8406,10.8367,10.8021,10.7482,10.6828,10.6367,10.6136,10.6136,10.6136,10.6136,10.6213,10.6636,10.579,10.3943,10.4405,10.4607,10.4636,10.5136,10.5366,10.5366,10.5405,10.5366,10.5328,10.4828,10.4828,10.5213,10.4405,10.4443,10.5136,10.4866,10.4366,10.3905,10.352,10.3097,10.2635,10.2443,10.1876,10.0827,10.0943,10.0827,10.0173,9.8942,9.8019,9.748,9.6826,9.6249,9.5788,9.5057,9.4518,9.4027,9.3642,9.3056,9.2172,9.0556,8.9479,8.9056,8.7555,8.6371,8.5871,8.5863,8.5593,8.5132,8.5052,8.5373,8.615,8.571,8.5834,8.668,8.6164,8.5451,8.5035,8.4871,8.4515,8.3932,8.362,8.3461,8.321,8.318,8.318,8.318,8.318,8.3418,8.3864,8.4332,8.4443,8.4087,8.3366,8.2809,8.2823,8.2489,8.2192,8.214,8.1894,8.1003,7.9962,7.9739,7.966,7.958,7.9797,7.9919,7.9823,7.9636,7.958,7.9052,7.8442,7.8207,7.8274,7.7683,7.7108,7.7362,7.7688,7.7724,7.7724,7.7724,7.7326,10.8999,10.9027,10.9189,10.9129,10.8829,10.829,10.8021,10.8021,10.8021,10.8021,10.8098,10.8636,10.7559,10.552,10.5674,10.5905,10.6174,10.6559,10.6895,10.7059,10.7087,10.7087,10.7021,10.6482,10.6444,10.679,10.5905,10.5828,10.6636,10.6174,10.5405,10.4674,10.4366,10.3905,10.3405,10.3751,10.3289,10.2174,10.2443,10.2289,10.1558,10.0212,9.9096,9.8288,9.798,9.7557,9.7019,9.698,9.6711,9.6105,9.5826,9.5288,9.4403,9.2595,9.1248,9.0517,8.941,8.8449,8.7786,8.7748,8.7478,8.6893,8.6765,8.7026,8.7406,8.682,8.654,8.6926,8.6268,8.5561,8.5234,8.5062,8.4682,8.4063,8.3878,8.362,8.3268,8.318,8.318,8.318,8.318,8.3492,8.4295,8.5,8.5446,8.5372,8.5,8.4592,8.4406,8.3812,8.3418,8.3269,8.3158,8.2474,8.0891,8.1003,8.1025,8.0877,8.1102,8.1251,8.1007,8.061,8.0346,8.0236,7.9255,7.8893,7.9334,7.882,7.8061,7.8483,7.8719,7.8719,7.8484,7.8666,7.8666,10.9176,10.9311,10.9947,10.974,10.8906,10.8878,10.8878,10.8888,10.8878,10.8916,10.8916,10.907,10.8867,10.8636,10.8021,10.8021,10.8482,10.7905,10.7982,10.8598,10.8675,10.8752,10.879,10.8752,10.8675,10.8559,10.8329,10.8059,10.7675,10.7559,10.7136,10.629,10.5443,10.503,10.4789,10.4289,10.3905,10.3597,10.302,10.2597,10.2404,10.1587,10.0712,9.9904,9.9173,9.8673,9.8596,9.8634,9.8596,9.8596,9.775,9.698,9.6057,9.3787,9.1441,8.9372,8.8872,8.8756,8.8679,8.8641,8.8564,8.8526,8.8363,8.8517,8.844,8.7769,8.7333,8.7216,8.6542,8.5887,8.5634,8.53,8.4882,8.4393,8.4024,8.3685,8.3239,8.318,8.318,8.3232,8.3343,8.3737,8.4421,8.509,8.5706,8.5781,8.5632,8.5335,8.4778,8.4443,8.4012,8.3492,8.3254,8.3106,8.2957,8.2623,8.2734,8.2586,8.2259,8.2638,8.2349,8.2044,8.1751,8.1486,8.0856,8.0477,8.0507,8.0096,7.9363,7.9267,7.9203,7.9132,7.942,7.8918,7.8955,11.0536,11.0112,11.0922,11.0728,10.9966,10.9918,10.9928,10.9957,11.0506,11.0697,11.0829,11.1781,11.225,11.2137,11.1291,11.0137,10.8944,10.8598,10.8636,10.8867,10.8906,10.8906,10.8906,10.8906,10.8906,10.8906,10.8906,10.8752,10.8444,10.7982,10.7559,10.7175,10.6367,10.5674,10.5251,10.5405,10.502,10.3982,10.3558,10.3174,10.2635,10.1741,10.1135,10.0866,10.0058,9.9375,9.8788,9.8788,9.8788,9.8788,9.8481,9.7942,9.6942,9.4672,9.2672,9.1287,9.0594,9.0056,8.9556,8.9479,8.921,8.8756,8.8679,8.8756,8.8641,8.841,8.8175,8.7964,8.775,8.7399,8.7006,8.609,8.5067,8.4527,8.4281,8.3969,8.3398,8.318,8.318,8.3329,8.4012,8.4889,8.5261,8.6338,8.7155,8.7155,8.6709,8.6264,8.5855,8.5112,8.4295,8.396,8.3514,8.318,8.318,8.3143,8.3143,8.3143,8.3069,8.298,8.2772,8.2557,8.2243,8.2197,8.1852,8.1534,8.1339,8.1358,8.0682,8.0619,8.0504,8.0189,8.0553,8.0088,8.0057,11.1113,11.0708,11.1471,11.151,11.0969,11.0979,11.0949,11.1055,11.1567,11.178,11.1992,11.3224,11.3741,11.3629,11.3328,11.2344,11.069,11.0312,11.0137,11.0137,11.0137,10.9983,10.9752,10.9752,10.9752,10.9752,10.9752,10.9483,10.8906,10.8367,10.7982,10.7675,10.6828,10.629,10.602,10.629,10.579,10.4828,10.4443,10.3982,10.3366,10.2597,10.2135,10.2058,10.1597,10.076,9.9673,9.9596,9.9596,9.9558,9.9365,9.8596,9.7096,9.5211,9.3758,9.295,9.2364,9.1787,9.1201,9.0893,9.0517,8.9979,8.9671,8.9526,8.9479,8.9248,8.9051,8.8924,8.8555,8.8337,8.8011,8.7061,8.6087,8.5498,8.5129,8.472,8.4049,8.3662,8.3392,8.3447,8.4555,8.5409,8.5781,8.7133,8.7877,8.81,8.7564,8.7118,8.6375,8.5558,8.448,8.4072,8.3529,8.3254,8.318,8.318,8.318,8.318,8.2898,8.2935,8.3106,8.2891,8.2794,8.2786,8.2606,8.2326,8.2244,8.2318,8.2242,8.2145,8.1729,8.1256,8.1357,8.1315,8.1067,11.0812,11.0741,11.1534,11.1844,11.1689,11.1775,11.1898,11.1921,11.1975,11.2084,11.2318,11.2899,11.3507,11.339,11.4119,11.4155,11.3874,11.3097,11.2609,11.2483,11.2522,11.2099,11.1395,11.1357,11.1291,11.1242,11.1406,11.056,10.9175,10.8983,10.8598,10.779,10.7059,10.7021,10.7675,10.6982,10.651,10.6251,10.5597,10.5107,10.4992,10.4135,10.3635,10.3712,10.3635,10.2866,10.1404,10.1327,10.1289,10.1173,10.0635,9.8952,9.7096,9.5566,9.4604,9.3941,9.3672,9.3595,9.348,9.271,9.221,9.1979,9.1556,9.0941,9.0748,9.0325,8.9906,8.971,8.914,8.8529,8.8432,8.8219,8.7784,8.7403,8.6393,8.579,8.5248,8.4488,8.3671,8.3541,8.4681,8.5536,8.5929,8.7044,8.801,8.7935,8.7898,8.7378,8.6115,8.5558,8.4867,8.3827,8.3306,8.3217,8.318,8.318,8.318,8.3143,8.2712,8.2526,8.2898,8.2913,8.2898,8.2869,8.3017,8.2741,8.2634,8.2696,8.2565,8.2418,8.2226,8.208,8.1985,8.1818,8.1529,11.1945,11.0944,11.1697,11.1671,11.1284,11.1787,11.2071,11.2224,11.2702,11.3288,11.3845,11.466,11.5224,11.5571,11.5897,11.5964,11.5964,11.5615,11.4827,11.3775,11.3599,11.3137,11.2434,11.2319,11.2049,11.1588,11.1511,11.1242,11.0637,11.006,10.9637,10.929,10.8521,10.829,10.8482,10.8252,10.8136,10.7982,10.6713,10.5982,10.5867,10.4636,10.3943,10.3905,10.3905,10.3597,10.3135,10.3097,10.2789,10.2251,10.252,10.1789,9.9635,9.6711,9.5211,9.5326,9.4326,9.3672,9.3595,9.3018,9.2556,9.2364,9.171,9.124,9.1201,9.0979,9.0769,9.0725,9.0367,9.0081,9.0043,8.9932,8.8928,8.6848,8.6374,8.5906,8.5082,8.4494,8.4074,8.3876,8.5035,8.5802,8.5946,8.7059,8.7824,8.7452,8.7712,8.7415,8.6078,8.5595,8.5261,8.4235,8.3789,8.3217,8.318,8.318,8.318,8.3083,8.2712,8.2526,8.2823,8.286,8.286,8.3009,8.3143,8.3151,8.3046,8.2956,8.2828,8.2782,8.2659,8.2534,8.2428,8.2166,8.1869,11.3173,11.2042,11.2807,11.286,11.2395,11.2938,11.3156,11.3282,11.3722,11.4046,11.44,11.5416,11.5925,11.6141,11.6576,11.6846,11.6846,11.6845,11.6175,11.5009,11.4252,11.3604,11.2753,11.2368,11.2011,11.1588,11.1511,11.1329,11.0983,11.0521,11.0214,11.006,10.9329,10.906,10.929,10.906,10.8906,10.8713,10.7867,10.7328,10.7136,10.629,10.5636,10.5366,10.5328,10.4982,10.4482,10.4636,10.4289,10.3251,10.3058,10.2251,10.0712,9.775,9.6057,9.598,9.5365,9.4672,9.4557,9.3989,9.345,9.3249,9.2364,9.171,9.1633,9.1479,9.1201,9.11,9.0934,9.0896,9.0789,9.0697,8.9571,8.7634,8.7422,8.6647,8.5475,8.4774,8.4454,8.4429,8.529,8.5891,8.625,8.7046,8.7839,8.7452,8.7452,8.723,8.6004,8.5632,8.5,8.448,8.396,8.3552,8.3217,8.318,8.318,8.3046,8.2786,8.2823,8.2972,8.2675,8.2526,8.2972,8.318,8.318,8.3106,8.3121,8.3076,8.3061,8.3001,8.2896,8.2711,8.2423,8.215,11.446,11.3801,11.453,11.4747,11.4662,11.4693,11.4654,11.4778,11.4707,11.4358,11.4305,11.5351,11.5626,11.5373,11.6361,11.6837,11.6972,11.6721,11.6701,11.6187,11.5152,11.3913,11.3009,11.2114,11.1641,11.1543,11.1532,11.1109,11.0598,11.0483,11.0291,11.0291,10.9713,10.9483,11.0021,10.9483,10.9252,10.929,10.9021,10.8867,10.8867,10.8713,10.8367,10.7636,10.7521,10.6867,10.5713,10.5867,10.552,10.4097,10.2635,10.1481,10.0298,9.8596,9.7211,9.6826,9.6519,9.6288,9.6134,9.5258,9.4797,9.4604,9.3412,9.2556,9.2479,9.1902,9.1414,9.1256,9.1059,9.0838,9.0749,9.0656,9.0124,8.9513,8.8735,8.7796,8.6539,8.5609,8.4947,8.4831,8.553,8.6195,8.6153,8.7176,8.7702,8.7468,8.7044,8.6524,8.5595,8.5,8.4703,8.4257,8.3775,8.3604,8.3232,8.318,8.318,8.3121,8.2935,8.2972,8.3032,8.2749,8.2563,8.2972,8.318,8.318,8.318,8.318,8.318,8.3136,8.3106,8.3091,8.2941,8.2643,8.2207,11.5435,11.4651,11.4832,11.4848,11.4754,11.4746,11.4784,11.4746,11.4768,11.5001,11.5349,11.5781,11.6164,11.6499,11.6231,11.6514,11.6882,11.6438,11.6498,11.6712,11.5872,11.48,11.3707,11.2376,11.1671,11.1609,11.155,11.1442,11.1175,11.1098,11.1137,11.1137,11.0868,11.0829,11.106,11.0857,11.0829,11.0714,11.0137,10.9829,10.9713,10.9252,10.8829,10.8636,10.8598,10.8021,10.7021,10.6597,10.6241,10.5664,10.3482,10.252,10.2404,10.0096,9.8557,9.8567,9.7788,9.7173,9.6865,9.5835,9.5104,9.4951,9.4066,9.3403,9.3364,9.2633,9.2201,9.1955,9.1451,9.0858,9.0799,9.0697,9.0451,9.0086,8.8825,8.7725,8.7385,8.6296,8.5446,8.5763,8.6523,8.6392,8.6087,8.6584,8.7152,8.6229,8.6086,8.6167,8.5142,8.4926,8.4852,8.3886,8.3381,8.3343,8.3269,8.3232,8.318,8.318,8.3121,8.3121,8.3143,8.3046,8.3009,8.3195,8.3195,8.318,8.318,8.318,8.318,8.318,8.3165,8.3136,8.3061,8.2828,8.2175,11.6367,11.5623,11.5893,11.5934,11.5816,11.5775,11.5781,11.5755,11.5781,11.5822,11.611,11.6425,11.6602,11.6693,11.6546,11.6704,11.7053,11.6318,11.6359,11.6825,11.6149,11.5031,11.3768,11.2619,11.2059,11.1622,11.1612,11.154,11.1494,11.1511,11.1511,11.1472,11.1511,11.1511,11.1472,11.1511,11.1511,11.1395,11.0944,11.0598,11.0175,11.0098,10.9521,10.9252,10.9175,10.8944,10.7829,10.7213,10.6828,10.6136,10.4674,10.3597,10.3174,10.1212,9.9635,9.9173,9.8019,9.7365,9.6903,9.6057,9.5595,9.5403,9.4749,9.4335,9.4027,9.321,9.2509,9.2283,9.1462,9.0982,9.0789,9.0687,9.0604,9.0353,8.894,8.8071,8.8568,8.6714,8.5994,8.6311,8.662,8.6604,8.56,8.6599,8.6537,8.6038,8.59,8.547,8.4778,8.4971,8.4808,8.3811,8.3395,8.3492,8.3343,8.3232,8.318,8.318,8.318,8.318,8.318,8.318,8.3195,8.3195,8.3195,8.318,8.318,8.318,8.318,8.318,8.318,8.3165,8.3106,8.3031,8.2345,11.7245,11.6584,11.7246,11.7476,11.7314,11.7311,11.7072,11.7157,11.7102,11.6782,11.6505,11.6976,11.6882,11.6236,11.668,11.7053,11.713,11.6279,11.655,11.6686,11.6213,11.5028,11.3594,11.3111,11.2475,11.1798,11.1642,11.1571,11.1526,11.1494,11.1511,11.1511,11.1511,11.1511,11.1511,11.1511,11.1511,11.1472,11.1214,11.0791,11.0406,11.0598,11.0291,10.9483,10.9713,10.9444,10.8444,10.779,10.7328,10.6549,10.5636,10.4366,10.302,10.2058,10.0596,9.8827,9.8211,9.748,9.6749,9.6557,9.6249,9.6057,9.5528,9.5143,9.4874,9.3864,9.2982,9.2938,9.1663,9.1097,9.0737,9.0635,9.0593,9.043,8.9704,8.936,8.8978,8.7259,8.6113,8.6905,8.6785,8.6555,8.6434,8.6627,8.6893,8.607,8.5824,8.533,8.4872,8.487,8.4477,8.3659,8.3572,8.3827,8.3529,8.318,8.318,8.318,8.318,8.318,8.318,8.318,8.318,8.318,8.318,8.318,8.318,8.318,8.318,8.318,8.318,8.318,8.3165,8.3091,8.2667,11.7594,11.7432,11.7472,11.7476,11.7399,11.7349,11.7257,11.7207,11.7225,11.7114,11.7028,11.7166,11.7097,11.6921,11.6576,11.655,11.7053,11.6356,11.6395,11.7014,11.6318,11.5333,11.4205,11.353,11.2721,11.2011,11.1771,11.1682,11.1581,11.1526,11.1511,11.1511,11.1511,11.1511,11.1511,11.1511,11.1511,11.1395,11.0906,11.0521,11.0329,11.0444,11.0444,10.9944,11.0137,11.006,10.9483,10.8406,10.7636,10.7098,10.602,10.4905,10.4251,10.3058,10.1904,10.0904,9.9327,9.8365,9.8057,9.7019,9.6288,9.6249,9.6095,9.6019,9.598,9.5018,9.4396,9.4033,9.2853,9.1527,9.0781,9.0604,9.0621,9.043,8.9895,8.9638,8.9829,8.8644,8.788,8.8356,8.8495,8.8243,8.7353,8.7247,8.7029,8.6254,8.5762,8.5309,8.5164,8.5071,8.4502,8.3947,8.3686,8.3871,8.3587,8.3283,8.318,8.318,8.318,8.318,8.318,8.318,8.318,8.318,8.318,8.318,8.318,8.318,8.318,8.318,8.318,8.318,8.318,8.3121,8.2609,11.7651,11.761,11.7499,11.7423,11.7335,11.7291,11.7252,11.7216,11.7261,11.7239,11.7278,11.7278,11.7231,11.7231,11.6761,11.682,11.6898,11.6318,11.5892,11.5892,11.5428,11.4809,11.4113,11.3524,11.287,11.2007,11.1836,11.1771,11.1632,11.1589,11.1536,11.1522,11.1511,11.1511,11.1511,11.1511,11.1511,11.1472,11.1098,11.0637,11.0291,11.0598,11.0829,11.0829,11.0791,11.0675,11.007,10.8983,10.8175,10.7482,10.6444,10.5482,10.502,10.3905,10.2943,10.175,10.0096,9.8634,9.798,9.7096,9.6288,9.6326,9.6288,9.6288,9.6095,9.548,9.4972,9.4494,9.3236,9.1747,9.0777,9.0621,9.0621,9.0544,9.0211,9.0287,9.0631,8.937,8.8415,8.895,8.8825,8.8409,8.7987,8.79,8.7821,8.7317,8.6764,8.6337,8.6379,8.6185,8.5331,8.4726,8.4143,8.3869,8.3606,8.3398,8.321,8.318,8.318,8.318,8.318,8.318,8.318,8.318,8.318,8.318,8.318,8.318,8.318,8.3158,8.3158,8.318,8.2987,8.2549,8.1874,11.7596,11.7499,11.7415,11.7382,11.7308,11.7252,11.7207,11.7216,11.7257,11.7265,11.7291,11.7252,11.7265,11.7265,11.7204,11.7169,11.6975,11.6344,11.5734,11.5234,11.4706,11.4126,11.3537,11.318,11.2759,11.2005,11.193,11.1818,11.1682,11.1612,11.1578,11.1532,11.1511,11.1511,11.1511,11.1511,11.1511,11.1472,11.1175,11.0829,11.0367,11.0829,11.1137,11.1395,11.1357,11.1098,11.0406,10.9444,10.8598,10.7905,10.6944,10.6097,10.5328,10.4289,10.3366,10.1741,10.0173,9.9019,9.8288,9.7288,9.6557,9.648,9.6326,9.6288,9.6095,9.574,9.5338,9.4619,9.3648,9.2222,9.0996,9.0899,9.0774,9.0621,9.0583,9.0937,9.1052,8.9714,8.9256,8.96,8.9791,8.9481,8.8794,8.8398,8.8488,8.8367,8.774,8.7297,8.7243,8.682,8.5787,8.5122,8.4494,8.4128,8.3905,8.3822,8.3602,8.3376,8.337,8.3312,8.3283,8.318,8.318,8.318,8.318,8.318,8.318,8.318,8.3195,8.3158,8.2898,8.2637,8.2312,8.1941,8.1229,11.7431,11.7415,11.7335,11.7325,11.7299,11.7243,11.7198,11.7207,11.7225,11.7225,11.7234,11.7234,11.7234,11.7225,11.7216,11.7198,11.7023,11.6254,11.573,11.5239,11.4456,11.3614,11.3449,11.2921,11.2448,11.2191,11.2019,11.1875,11.1741,11.1652,11.155,11.1532,11.1511,11.1511,11.1511,11.1511,11.1511,11.1434,11.1021,11.0521,11.0483,11.056,11.0944,11.1434,11.1511,11.1395,11.0944,10.979,10.8829,10.8559,10.7213,10.6405,10.5713,10.4597,10.3751,10.2904,10.1019,9.9567,9.9259,9.8134,9.7442,9.7134,9.6826,9.6432,9.6355,9.6163,9.5857,9.5308,9.4523,9.3321,9.1788,9.151,9.1204,9.0899,9.0621,9.0735,9.0774,9.0517,9.0326,9.0861,9.0899,9.0631,8.9752,8.895,8.8638,8.8286,8.7578,8.7072,8.684,8.6309,8.5523,8.5006,8.4651,8.4454,8.4306,8.4243,8.4102,8.3811,8.3675,8.3574,8.3475,8.3268,8.3195,8.3326,8.3231,8.3143,8.3143,8.3083,8.2697,8.2377,8.2154,8.2043,8.1577,8.12,8.0785,11.7376,11.7335,11.7294,11.7282,11.7239,11.7225,11.7198,11.7198,11.7198,11.7198,11.7198,11.7198,11.7198,11.7198,11.7198,11.7198,11.6886,11.5833,11.5377,11.499,11.411,11.3522,11.3474,11.2938,11.2827,11.2664,11.2342,11.1948,11.1819,11.1662,11.156,11.1504,11.1511,11.1511,11.1511,11.1511,11.1511,11.1357,11.1098,11.0868,11.0868,11.0868,11.1175,11.1357,11.1511,11.1511,11.1175,10.9829,10.8713,10.8021,10.6636,10.5674,10.5059,10.452,10.3905,10.3443,10.1568,10.0144,9.999,9.8865,9.8211,9.8134,9.7711,9.7567,9.7395,9.7154,9.6415,9.548,9.4996,9.3997,9.2601,9.216,9.1625,9.1281,9.0888,9.085,9.1041,9.1156,9.1357,9.1586,9.109,9.0631,9.043,8.9666,8.895,8.8224,8.7422,8.6925,8.6505,8.6029,8.5469,8.523,8.4924,8.4495,8.4341,8.4183,8.405,8.3866,8.3775,8.3645,8.3739,8.3553,8.3527,8.3588,8.3424,8.3295,8.2712,8.2489,8.2043,8.1746,8.1857,8.1754,8.1021,8.0459,8.0178,11.7311,11.7282,11.7282,11.7239,11.7207,11.7198,11.7198,11.7198,11.7198,11.7198,11.7169,11.6993,11.6925,11.6925,11.6925,11.6856,11.6641,11.5225,11.4776,11.4358,11.3887,11.3499,11.3274,11.3333,11.3184,11.2791,11.2431,11.2045,11.1847,11.1741,11.1612,11.1547,11.1543,11.1511,11.1511,11.1511,11.1511,11.1511,11.1511,11.1511,11.1511,11.1511,11.1511,11.1511,11.1511,11.1511,11.1318,10.9829,10.8598,10.7636,10.6367,10.5107,10.4328,10.4135,10.4059,10.3558,10.176,10.0875,10.0366,9.9298,9.875,9.8981,9.8673,9.8433,9.8077,9.7231,9.6501,9.5288,9.486,9.4519,9.348,9.2809,9.2236,9.1663,9.1243,9.0975,9.1194,9.127,9.1204,9.1166,9.0861,9.0506,9.0162,8.9409,8.8492,8.7689,8.6887,8.6619,8.6237,8.6227,8.582,8.5571,8.5221,8.4638,8.4263,8.3887,8.3688,8.3415,8.3384,8.3374,8.3627,8.3866,8.3827,8.3795,8.3811,8.3563,8.2738,8.2169,8.2117,8.2043,8.1931,8.1568,8.0902,8.0444,8.0155,11.7234,11.7225,11.7225,11.7216,11.7207,11.7198,11.7198,11.7198,11.7198,11.7198,11.7169,11.6543,11.6267,11.622,11.6267,11.5853,11.5359,11.5034,11.4577,11.4073,11.3778,11.3381,11.2884,11.3336,11.3243,11.2909,11.2409,11.1989,11.1912,11.1836,11.1732,11.1602,11.1536,11.1511,11.1511,11.1511,11.1511,11.1511,11.1511,11.1511,11.1511,11.1511,11.1511,11.1511,11.1511,11.1434,11.1165,10.9752,10.8482,10.7482,10.6674,10.579,10.5136,10.4943,10.452,10.3866,10.2981,10.2289,10.175,10.0135,9.9288,9.9481,9.8788,9.7894,9.7645,9.7105,9.6383,9.592,9.5564,9.5102,9.4436,9.4146,9.3306,9.258,9.2007,9.1434,9.1281,9.1739,9.1625,9.1204,9.1013,9.0249,8.9676,8.8797,8.7918,8.7154,8.6495,8.6237,8.6008,8.596,8.5845,8.5548,8.5413,8.4864,8.466,8.4223,8.3747,8.3307,8.3263,8.3343,8.3639,8.3975,8.4012,8.4004,8.4067,8.3971,8.3348,8.2873,8.2576,8.2235,8.1921,8.1432,8.0877,8.0511,8.031,11.7299,11.7248,11.7248,11.7222,11.7207,11.7198,11.7198,11.7198,11.7198,11.7198,11.713,11.6895,11.6457,11.6087,11.6418,11.6242,11.5526,11.5034,11.4724,11.4181,11.3863,11.3652,11.3925,11.4026,11.3845,11.3396,11.3045,11.2492,11.2204,11.1884,11.1751,11.1642,11.156,11.1536,11.1532,11.1511,11.1511,11.1511,11.1511,11.1511,11.1511,11.1511,11.1511,11.1511,11.1511,11.1252,11.0598,10.9637,10.7944,10.6597,10.5405,10.4597,10.4059,10.4097,10.4328,10.4646,10.3789,10.2866,10.1789,10.0366,10.0212,10.0289,9.9625,9.8885,9.8231,9.7574,9.6713,9.5884,9.5761,9.5484,9.5151,9.5102,9.4414,9.3688,9.3077,9.2695,9.2236,9.2083,9.2121,9.1663,9.1166,9.0555,8.9829,8.895,8.8262,8.7575,8.6772,8.6123,8.5893,8.5702,8.555,8.5349,8.5234,8.5099,8.5031,8.4838,8.4388,8.3971,8.3791,8.3825,8.387,8.403,8.4157,8.4396,8.4618,8.4393,8.3907,8.3386,8.2858,8.2332,8.1811,8.1611,8.1419,8.1193,8.1027,11.7415,11.7374,11.7358,11.7299,11.7278,11.7278,11.7239,11.7239,11.7239,11.7239,11.7171,11.7003,11.6478,11.5944,11.6185,11.5938,11.528,11.4802,11.446,11.4119,11.3902,11.3832,11.3856,11.4071,11.4104,11.4057,11.3139,11.2625,11.2204,11.1959,11.1828,11.1682,11.1581,11.154,11.1536,11.1494,11.1511,11.1511,11.1511,11.1511,11.1511,11.1511,11.1511,11.1511,11.1434,11.1098,11.0214,10.9367,10.7713,10.5597,10.4789,10.4097,10.3174,10.3866,10.4135,10.4289,10.3751,10.302,10.1827,10.0827,10.0817,10.0788,10.0518,9.9459,9.8938,9.8528,9.7793,9.6242,9.5844,9.5714,9.5632,9.556,9.5178,9.4681,9.4288,9.4059,9.3726,9.3229,9.3,9.2837,9.2264,9.1395,9.0555,8.9485,8.8683,8.8043,8.7192,8.6275,8.6084,8.6046,8.5779,8.5702,8.5435,8.5129,8.4518,8.4594,8.4403,8.4441,8.425,8.4384,8.4447,8.4503,8.4601,8.487,8.5192,8.4905,8.4465,8.3789,8.3138,8.3073,8.2925,8.2424,8.2133,8.1999,8.1888,11.761,11.7499,11.7438,11.7399,11.7376,11.7384,11.7376,11.736,11.7329,11.729,11.7135,11.6624,11.5893,11.54,11.5219,11.4916,11.4031,11.3807,11.3497,11.325,11.3112,11.3204,11.3313,11.3429,11.3358,11.2817,11.2668,11.2436,11.1984,11.2005,11.193,11.1855,11.1652,11.1609,11.1414,11.1141,11.1214,11.1242,11.128,11.1434,11.1472,11.1511,11.1511,11.1511,11.1434,11.1098,11.0186,10.9329,10.7636,10.5184,10.4751,10.402,10.3135,10.3751,10.3982,10.3635,10.3597,10.2866,10.1827,10.1125,10.1124,10.0891,10.055,9.9972,9.9421,9.7963,9.7112,9.6784,9.6107,9.5681,9.5609,9.5598,9.5675,9.5331,9.5064,9.4987,9.4529,9.3879,9.3688,9.3868,9.3371,9.2465,9.1816,9.0822,8.937,8.8683,8.7995,8.7116,8.7307,8.7231,8.6658,8.6314,8.5855,8.5129,8.3725,8.3763,8.448,8.4403,8.4098,8.4594,8.5099,8.5099,8.5013,8.5518,8.5814,8.542,8.5035,8.4552,8.4216,8.424,8.4042,8.3486,8.3324,8.3336,8.3186,11.7839,11.7819,11.7761,11.762,11.7399,11.7399,11.7399,11.7283,11.6857,11.6624,11.6601,11.5802,11.525,11.5039,11.4916,11.4474,11.3759,11.3689,11.3417,11.3131,11.2963,11.2941,11.3003,11.3165,11.3253,11.2907,11.2827,11.2449,11.1948,11.1969,11.1875,11.178,11.1672,11.1257,11.0937,11.0469,11.0378,11.0637,11.0752,11.0906,11.1472,11.1511,11.1511,11.1511,11.1511,11.0714,10.9598,10.9136,10.7098,10.5251,10.452,10.3597,10.2828,10.3405,10.3482,10.3174,10.3251,10.2712,10.201,10.1212,10.0577,10.073,10.0909,10.0938,10.0048,9.8544,9.7566,9.6937,9.6243,9.5877,9.5637,9.6057,9.6286,9.5866,9.5675,9.5637,9.5446,9.4796,9.4452,9.4632,9.4212,9.3524,9.2924,9.2351,9.0746,8.9332,8.8644,8.8186,8.8415,8.8377,8.7766,8.7345,8.6963,8.6505,8.5244,8.5015,8.49,8.4556,8.4212,8.49,8.5626,8.5425,8.5453,8.6036,8.6304,8.5876,8.5543,8.5365,8.5142,8.4883,8.4728,8.4531,8.4518,8.458,8.4372,11.8002,11.8002,11.8002,11.7867,11.7576,11.7595,11.744,11.7122,11.6559,11.6267,11.6222,11.5444,11.5209,11.5241,11.4705,11.4302,11.3696,11.3431,11.3322,11.3022,11.2707,11.2723,11.2995,11.3096,11.2923,11.299,11.2948,11.2479,11.1875,11.1876,11.179,11.1751,11.1722,11.1277,11.0793,10.9815,10.9483,10.9713,10.9867,11.0021,11.0665,11.0944,11.106,11.106,11.1021,11.0367,10.9136,10.8252,10.6636,10.4789,10.3635,10.3058,10.2635,10.2481,10.2789,10.2866,10.2866,10.252,10.1933,10.1258,10.0613,10.1433,10.1607,10.1521,10.0787,9.9704,9.8849,9.8258,9.7203,9.6286,9.6133,9.6477,9.6668,9.6286,9.5904,9.5866,9.6172,9.5866,9.556,9.5396,9.4911,9.4414,9.3688,9.3115,9.2312,9.0975,9.0402,8.9944,8.9829,8.9561,8.8912,8.8568,8.8301,8.7804,8.7259,8.6734,8.6199,8.5741,8.5511,8.5664,8.5998,8.5817,8.5845,8.6304,8.6418,8.6189,8.61,8.6008,8.5681,8.5299,8.5309,8.5378,8.5524,8.5571,8.5327,11.8012,11.8002,11.8012,11.8005,11.7864,11.7949,11.7502,11.6805,11.6501,11.6388,11.6208,11.5458,11.5505,11.5668,11.444,11.3742,11.3501,11.2891,11.2606,11.2553,11.2464,11.2418,11.245,11.2529,11.2522,11.236,11.2359,11.2239,11.1848,11.1865,11.1761,11.1692,11.1652,11.1391,11.1409,11.0574,10.9762,10.906,10.8944,10.906,10.956,11.0137,11.0406,11.0675,11.0483,10.9944,10.8752,10.7521,10.5867,10.402,10.3135,10.2443,10.1702,10.2289,10.2366,10.1827,10.2366,10.2164,10.1423,10.1088,10.1646,10.2578,10.2698,10.241,10.2509,10.1621,10.0283,9.9572,9.8732,9.7662,9.7241,9.6898,9.6936,9.6821,9.6477,9.6439,9.6783,9.6592,9.621,9.5942,9.5675,9.5255,9.4452,9.3803,9.3459,9.2733,9.216,9.1701,9.1243,9.0708,9.002,8.9409,8.9103,8.8415,8.7918,8.788,8.7498,8.6991,8.6571,8.6456,8.6342,8.6113,8.6265,8.6648,8.6342,8.596,8.6342,8.6742,8.6557,8.6438,8.6237,8.6323,8.6489,8.6505,8.6241,11.8185,11.8185,11.8185,11.7872,11.7434,11.782,11.7495,11.6594,11.558,11.4995,11.4793,11.4052,11.4139,11.4261,11.3855,11.31,11.2945,11.2848,11.2511,11.2537,11.2429,11.2384,11.2369,11.2287,11.2212,11.2243,11.2179,11.2019,11.1884,11.1873,11.1847,11.1741,11.1411,11.0878,10.9902,10.8993,10.829,10.8136,10.8213,10.8598,10.9598,11.0021,11.0444,11.0906,11.0444,10.9521,10.829,10.7021,10.529,10.3597,10.2789,10.2135,10.1625,10.2135,10.2366,10.2097,10.251,10.2134,10.1641,10.1556,10.2347,10.3136,10.3672,10.3443,10.3267,10.2206,10.1341,10.0642,9.9801,9.8732,9.7918,9.7727,9.7689,9.7689,9.7536,9.7547,9.7623,9.7012,9.6554,9.6363,9.6133,9.5713,9.5064,9.4681,9.4338,9.4032,9.3421,9.2504,9.193,9.1548,9.1013,9.0211,8.9638,8.8912,8.8453,8.8453,8.7575,8.6533,8.6495,8.6686,8.6533,8.6227,8.638,8.6533,8.6113,8.5769,8.6541,8.7243,8.7694,8.7702,8.7395,8.7125,8.7127,8.7156,8.7043,11.8279,11.8279,11.7968,11.7538,11.7107,11.7461,11.704,11.5828,11.4424,11.3956,11.403,11.3386,11.3421,11.3708,11.3213,11.2693,11.266,11.261,11.2608,11.2596,11.2471,11.2405,11.2338,11.2047,11.174,11.1786,11.1707,11.1555,11.0955,11.1612,11.1818,11.1655,11.1124,11.0149,10.9193,10.8593,10.8098,10.7944,10.7905,10.8175,10.9098,10.979,11.0444,11.056,11.0137,10.9213,10.7982,10.6521,10.4982,10.3597,10.2674,10.2174,10.1943,10.1933,10.2202,10.2125,10.2047,10.1902,10.1859,10.1869,10.2709,10.3876,10.4434,10.4458,10.402,10.3391,10.2526,10.1674,10.0757,9.9725,9.8923,9.8758,9.8567,9.8567,9.83,9.83,9.8071,9.7509,9.7127,9.6936,9.6554,9.6095,9.5648,9.5571,9.5255,9.4987,9.4643,9.365,9.2733,9.2389,9.2045,9.1357,9.0746,9.0287,8.9638,8.9093,8.7946,8.6265,8.6495,8.7106,8.6265,8.5922,8.6189,8.6342,8.5922,8.5902,8.6976,8.7682,8.8226,8.8444,8.8314,8.8054,8.7869,8.7554,8.7289,11.8302,11.8186,11.7375,11.6987,11.6949,11.6755,11.5898,11.4492,11.3633,11.3672,11.4297,11.3335,11.3388,11.3888,11.3246,11.2824,11.2693,11.2674,11.2606,11.2563,11.2425,11.2405,11.2137,11.173,11.1577,11.1251,11.1134,11.1223,10.9968,11.0943,11.1662,11.1346,11.0285,10.9591,10.9138,10.8712,10.816,10.7639,10.7877,10.8098,10.8713,10.9521,11.0252,11.0367,10.9867,10.9252,10.8021,10.6328,10.5097,10.3905,10.2866,10.2366,10.202,10.1779,10.1548,10.1403,10.1449,10.1803,10.1933,10.2029,10.2862,10.3917,10.4353,10.4831,10.5048,10.459,10.3813,10.3087,10.2285,10.11,10.0107,9.9801,9.9534,9.9228,9.8796,9.8644,9.8491,9.8158,9.7815,9.7471,9.7012,9.6515,9.5801,9.5609,9.5789,9.5446,9.514,9.4872,9.3994,9.3344,9.3038,9.2618,9.2121,9.1843,9.1117,9.0086,8.8978,8.7488,8.7412,8.7717,8.6686,8.5922,8.6151,8.6227,8.5731,8.6024,8.7169,8.8091,8.8843,8.893,8.8824,8.8296,8.7895,8.7289,8.6909,11.8301,11.8185,11.7368,11.6631,11.5933,11.4804,11.4336,11.4375,11.3593,11.3398,11.3554,11.3281,11.3308,11.3319,11.3105,11.2895,11.2784,11.2669,11.2583,11.2473,11.2418,11.2369,11.221,11.194,11.1841,11.1755,11.1676,11.1364,11.1156,11.1478,11.1,11.0705,10.9721,10.9299,10.8964,10.8589,10.7789,10.7488,10.7939,10.837,10.8745,10.9707,11.0438,11.0669,11.0168,10.9591,10.836,10.6821,10.5502,10.4069,10.3607,10.302,10.1548,10.2471,10.3,10.2179,10.2061,10.1981,10.1629,10.1855,10.2608,10.3596,10.4064,10.4857,10.5303,10.5329,10.4807,10.4081,10.3584,10.2514,10.175,10.1406,10.1062,10.068,10.0286,10.0019,9.9801,9.9228,9.8846,9.8273,9.7815,9.6783,9.6057,9.5942,9.6057,9.5789,9.5598,9.556,9.5178,9.449,9.3994,9.3612,9.3153,9.2771,9.1892,9.0861,8.9905,8.9027,8.8863,8.8443,8.7564,8.6915,8.6581,8.6332,8.6235,8.6667,8.7454,8.8219,8.8851,8.9164,8.9094,8.8475,8.7857,8.7213,8.6568,11.7581,11.7194,11.6346,11.5498,11.4607,11.3633,11.3554,11.3828,11.3437,11.3203,11.3203,11.3203,11.3162,11.3114,11.3109,11.2994,11.2836,11.2813,11.2708,11.2544,11.2411,11.2369,11.2319,11.1987,11.1623,11.17,11.1637,11.1179,11.1112,11.0507,10.9931,11.1133,10.9656,10.9041,10.8928,10.8526,10.7593,10.7557,10.7991,10.8779,10.9414,11.0107,11.1032,11.1291,11.0762,10.9953,10.899,10.744,10.589,10.4446,10.4089,10.3021,10.1808,10.2548,10.3356,10.2535,10.202,10.1891,10.1652,10.141,10.2195,10.2991,10.3708,10.4513,10.5227,10.5533,10.5036,10.4463,10.431,10.4004,10.3546,10.3126,10.2743,10.24,10.2094,10.1788,10.1139,10.0451,9.984,9.9228,9.8311,9.7241,9.6668,9.6554,9.6477,9.6439,9.6515,9.6592,9.6095,9.5369,9.4911,9.4567,9.4032,9.3497,9.2618,9.1892,9.1128,9.0402,8.9933,8.9398,8.852,8.8252,8.8176,8.761,8.6986,8.7453,8.7905,8.8136,8.8565,8.9028,8.9373,8.8805,8.7971,8.7023,8.6329,11.6452,11.5717,11.4776,11.4093,11.3281,11.3203,11.3242,11.3203,11.3203,11.3203,11.3203,11.3203,11.3203,11.3164,11.3164,11.3086,11.2934,11.2859,11.2732,11.2663,11.238,11.2328,11.2065,11.1531,11.1529,11.1211,11.1087,11.1232,11.0029,10.9703,11.0313,11.1706,10.896,10.8084,10.8879,10.8247,10.7478,10.7258,10.8199,10.9234,10.963,11.0604,11.1732,11.1635,11.1057,11.0247,10.9205,10.7884,10.6448,10.5225,10.4099,10.3137,10.2675,10.2357,10.2886,10.2883,10.2299,10.2008,10.1833,10.1484,10.2103,10.2767,10.329,10.4272,10.5074,10.5647,10.5227,10.4998,10.4807,10.4654,10.4272,10.4081,10.3813,10.3393,10.3011,10.2705,10.2247,10.1444,10.0527,9.9878,9.8999,9.7929,9.7318,9.7165,9.7203,9.7203,9.7241,9.7383,9.7127,9.6324,9.5789,9.5484,9.4872,9.4338,9.3955,9.3229,9.258,9.1881,9.1461,9.0784,9.0173,8.9971,8.9895,8.8936,8.7919,8.8004,8.8313,8.8596,8.9038,8.9649,8.9752,8.9146,8.835,8.763,8.7061,11.5908,11.56,11.4776,11.3931,11.3194,11.3202,11.3203,11.3203,11.3203,11.3203,11.3203,11.3203,11.3203,11.3203,11.3203,11.312,11.3008,11.2838,11.2689,11.2539,11.2331,11.2243,11.2188,11.19,11.1726,11.1817,11.1779,11.1546,11.1095,11.0631,11.0244,11.0816,10.8775,10.831,10.8581,10.7804,10.7263,10.7061,10.8312,10.919,10.9455,11.016,11.0999,11.1472,11.1356,11.0912,11.0015,10.9118,10.7749,10.6448,10.5407,10.4501,10.3789,10.3444,10.3098,10.2853,10.2924,10.2572,10.2061,10.182,10.2373,10.3164,10.3813,10.4463,10.5036,10.5456,10.5647,10.5495,10.538,10.5265,10.5151,10.5036,10.4845,10.4386,10.3737,10.3469,10.3202,10.2247,10.1215,10.0489,9.9649,9.8923,9.8273,9.7956,9.7918,9.7918,9.788,9.7918,9.7956,9.7471,9.6668,9.6248,9.5637,9.5178,9.4911,9.4529,9.3841,9.3803,9.3612,9.2809,9.1816,9.1625,9.1308,8.987,8.8928,8.9065,8.9159,8.9275,8.9775,9.0409,9.0624,9.0245,9.0131,8.9601,8.8842,11.4893,11.4507,11.4034,11.3581,11.3198,11.3202,11.3203,11.3203,11.3203,11.3203,11.3203,11.3203,11.3203,11.3203,11.3203,11.3164,11.3047,11.2799,11.2703,11.2565,11.2352,11.2259,11.2163,11.2161,11.2091,11.2152,11.211,11.1985,11.1977,11.128,11.067,11.0593,10.9316,10.8388,10.8241,10.7537,10.7034,10.7072,10.8426,10.9025,10.9421,11.0426,11.1284,11.1864,11.1787,11.1237,11.028,10.943,10.8129,10.6587,10.52,10.4672,10.4095,10.3906,10.3897,10.3779,10.357,10.3158,10.2406,10.2279,10.2717,10.3443,10.4043,10.4577,10.6068,10.6526,10.6641,10.6564,10.687,10.6832,10.6641,10.6488,10.6144,10.5686,10.4234,10.3202,10.2973,10.2514,10.2132,10.2018,10.1177,10.0336,9.9752,9.9408,9.9293,9.8884,9.8808,9.8808,9.877,9.8644,9.7853,9.7165,9.6668,9.6248,9.6019,9.5637,9.5064,9.5216,9.5293,9.4338,9.3219,9.3066,9.2597,9.0868,8.9958,9.0216,9.0333,9.0127,9.0661,9.1394,9.1571,9.1534,9.1496,9.1534,9.1155,11.3641,11.2986,11.294,11.3038,11.3202,11.3203,11.3203,11.3203,11.3203,11.3203,11.3203,11.3203,11.3203,11.3203,11.3203,11.3203,11.3086,11.2812,11.2676,11.2591,11.2334,11.222,11.2196,11.2204,11.2171,11.2169,11.2127,11.2101,11.2054,11.1474,11.1095,11.0709,10.978,10.8697,10.8426,10.7777,10.7313,10.7537,10.831,10.8891,10.9888,11.1057,11.165,11.1968,11.186,11.1048,11.0012,10.899,10.7873,10.6731,10.5378,10.4918,10.4719,10.4655,10.4725,10.4734,10.4802,10.4001,10.3054,10.2922,10.3247,10.3658,10.4169,10.5074,10.65,10.7099,10.7252,10.7481,10.7787,10.7863,10.7672,10.7596,10.7214,10.6603,10.4845,10.3469,10.3317,10.3049,10.3087,10.324,10.2514,10.1674,10.1292,10.0909,10.0451,10.0031,9.9801,9.984,9.9801,9.9572,9.9114,9.8502,9.8006,9.7585,9.7012,9.6668,9.6172,9.5522,9.5407,9.4938,9.4468,9.3901,9.2967,9.1516,9.0909,9.1049,9.0917,9.0722,9.1431,9.2178,9.2746,9.2936,9.2936,9.3012,9.3403,11.2197,11.2045,11.2082,11.2487,11.3038,11.3163,11.3203,11.3203,11.3203,11.3203,11.3203,11.3203,11.3203,11.3203,11.3203,11.3164,11.3086,11.2796,11.2657,11.2561,11.2313,11.2181,11.2147,11.2163,11.2138,11.2221,11.2226,11.214,11.2325,11.2093,11.2101,11.2295,11.1057,11.0477,11.0747,10.9626,10.804,10.8194,10.8581,10.9316,10.9626,11.0554,11.1358,11.1512,11.1396,11.0507,10.9626,10.8852,10.7915,10.7031,10.6345,10.5799,10.5515,10.5482,10.562,10.5418,10.5525,10.5113,10.4358,10.4212,10.4488,10.4632,10.5018,10.501,10.6156,10.6908,10.7099,10.7329,10.7558,10.7672,10.7634,10.7902,10.7711,10.7061,10.5762,10.5265,10.496,10.4386,10.3966,10.3852,10.3431,10.2858,10.2514,10.2018,10.1356,10.0909,10.0413,10.0451,10.0527,10.0413,10.026,9.9916,9.9419,9.812,9.7241,9.7547,9.7165,9.6324,9.5435,9.4893,9.4478,9.4166,9.3107,9.1404,9.1274,9.1537,9.1415,9.1254,9.1912,9.2709,9.3846,9.4338,9.43,9.4187,9.4237]}]]